[[{"header":{"parameterUnit":"m.s-1","parameterCategory":1,"la1":31.0,"la2":29.5877,"lo1":-88.7671,"lo2":-86.6584,"dy":0.0162,"dx":0.0185,"nx":115,"ny":88,"refTime":"2026-04-13T12:00:00:Z","depth":0,"parameterNumber":2,"parameterNumberName":"U-component_of_WINDS"},"data":[0.0,0.0,0.0,0.0,0.0,0.0,0.0,0.0,0.0,0.0,0.0,0.0,0.0,0.0,0.0,0.0,0.0,0.0,0.0,0.0,0.0,0.0,0.0,0.0,0.0,0.0,0.0,0.0,0.0,0.0,0.0,0.0,0.0,0.0,0.0,0.0,0.0,0.0,0.0,0.0,0.0,0.0,0.0,0.0,0.0,0.0,0.0,0.0,0.0,0.0,0.0,0.0,0.0,0.0,0.0,0.0,0.0,0.0,0.0,0.0,0.0,0.0,0.0,0.0,0.0,0.0,0.0,0.0,0.0,0.0,0.0,0.0,0.0,0.0,0.0,0.0,0.0,0.0,0.0,0.0,0.0,0.0,0.0,0.0,0.0,0.0,0.0,0.0,0.0,0.0,0.0,0.0,0.0,0.0,0.0,0.0,0.0,0.0,0.0,0.0,0.0,0.0,0.0,0.0,0.0,0.0,0.0,0.0,0.0,0.0,0.0,0.0,0.0,0.0,0.0,0.0,0.0,0.0,0.0,0.0,0.0,0.0,0.0,0.0,0.0,0.0,0.0,0.0,0.0,0.0,0.0,0.0,0.0,0.0,0.0,0.0,0.0,0.0,0.0,0.0,0.0,0.0,0.0,0.0,0.0,0.0,0.0,0.0,0.0,0.0,0.0,0.0,0.0,0.0,0.0,0.0,0.0,0.0,0.0,0.0,0.0,0.0,0.0,0.0,0.0,0.0,0.0,0.0,0.0,0.0,0.0,0.0,0.0,0.0,0.0,0.0,0.0,0.0,0.0,0.0,0.0,0.0,0.0,0.0,0.0,0.0,0.0,0.0,0.0,0.0,0.0,0.0,0.0,0.0,0.0,0.0,0.0,0.0,0.0,0.0,0.0,0.0,0.0,0.0,0.0,0.0,0.0,0.0,0.0,0.0,0.0,0.0,0.0,0.0,0.0,0.0,0.0,0.0,0.0,0.0,0.0,0.0,0.0,0.0,0.0,0.0,0.0,0.0,0.0,0.0,0.0,0.0,0.0,0.0,0.0,0.0,0.0,0.0,0.0,0.0,0.0,0.0,0.0,0.0,0.0,0.0,0.0,0.0,0.0,0.0,0.0,0.0,0.0,0.0,0.0,0.0,0.0,0.0,0.0,0.0,0.0,0.0,0.0,0.0,0.0,0.0,0.0,0.0,0.0,0.0,0.0,0.0,0.0,0.0,0.0,0.0,0.0,0.0,0.0,0.0,0.0,0.0,0.0,0.0,0.0,0.0,0.0,0.0,0.0,0.0,0.0,0.0,0.0,0.0,0.0,0.0,0.0,0.0,0.0,0.0,0.0,0.0,0.0,0.0,0.0,0.0,0.0,0.0,0.0,0.0,0.0,0.0,0.0,0.0,0.0,0.0,0.0,0.0,0.0,0.0,0.0,0.0,0.0,0.0,0.0,0.0,0.0,0.0,0.0,0.0,0.0,0.0,0.0,0.0,0.0,0.0,0.0,0.0,0.0,0.0,0.0,0.0,0.0,0.0,0.0,0.0,0.0,0.0,0.0,0.0,0.0,0.0,0.0,0.0,0.0,0.0,0.0,0.0,0.0,0.0,0.0,0.0,0.0,0.0,0.0,0.0,0.0,0.0,0.0,0.0,0.0,0.0,0.0,0.0,0.0,0.0,0.0,0.0,0.0,0.0,0.0,0.0,0.0,0.0,0.0,0.0,0.0,0.0,0.0,0.0,0.0,0.0,0.0,0.0,0.0,0.0,0.0,0.0,0.0,0.0,0.0,0.0,0.0,0.0,0.0,0.0,0.0,0.0,0.0,0.0,0.0,0.0,0.0,0.0,0.0,0.0,0.0,0.0,0.0,0.0,0.0,0.0,0.0,0.0,0.0,0.0,0.0,0.0,0.0,0.0,0.0,0.0,0.0,0.0,0.0,0.0,0.0,0.0,0.0,0.0,0.0,0.0,0.0,0.0,0.0,0.0,0.0,0.0,0.0,0.0,0.0,0.0,0.0,0.0,0.0,0.0,0.0,0.0,0.0,0.0,0.0,0.0,0.0,0.0,0.0,0.0,0.0,0.0,0.0,0.0,0.0,0.0,0.0,0.0,0.0,0.0,0.0,0.0,0.0,0.0,0.0,0.0,0.0,0.0,0.0,0.0,0.0,0.0,0.0,0.0,0.0,0.0,0.0,0.0,0.0,0.0,0.0,0.0,0.0,0.0,0.0,0.0,0.0,0.0,0.0,0.0,0.0,0.0,0.0,0.0,0.0,0.0,0.0,0.0,0.0,0.0,0.0,0.0,0.0,0.0,0.0,0.0,0.0,0.0,0.0,0.0,0.0,0.0,0.0,0.0,0.0,0.0,0.0,0.0,0.0,0.0,0.0,0.0,0.0,0.0,0.0,0.0,0.0,0.0,0.0,0.0,0.0,0.0,0.0,0.0,0.0,0.0,0.0,0.0,0.0,0.0,0.0,0.0,0.0,0.0,0.0,0.0,0.0,0.0,0.0,0.0,0.0,0.0,0.0,0.0,0.0,0.0,0.0,0.0,0.0,0.0,0.0,0.0,0.0,0.0,0.0,0.0,0.0,0.0,0.0,0.0,0.0,0.0,0.0,0.0,0.0,0.0,0.0,0.0,0.0,0.0,0.0,0.0,0.0,0.0,0.0,0.0,0.0,0.0,0.0,0.0,0.0,0.0,0.0,0.0,0.0,0.0,0.0,0.0,0.0,0.0,0.0,0.0,0.0,0.0,0.0,0.0,0.0,0.0,0.0,0.0,0.0,0.0,0.0,0.0,0.0,0.0,0.0,0.0,0.0,0.0,0.0,0.0,0.0,0.0,0.0,0.0,0.0,0.0,0.0,0.0,0.0,0.0,0.0,0.0,0.0,0.0,0.0,0.0,0.0,0.0,0.0,0.0,0.0,0.0,0.0,0.0,0.0,0.0,0.0,0.0,0.0,0.0,0.0,0.0,0.0,0.0,0.0,0.0,0.0,0.0,0.0,0.0,0.0,0.0,0.0,0.0,0.0,0.0,0.0,0.0,0.0,0.0,0.0,0.0,0.0,0.0,0.0,0.0,0.0,0.0,0.0,0.0,0.0,0.0,0.0,0.0,0.0,0.0,0.0,0.0,0.0,0.0,0.0,0.0,0.0,0.0,0.0,0.0,0.0,0.0,0.0,0.0,0.0,0.0,0.0,0.0,0.0,0.0,0.0,0.0,0.0,0.0,0.0,0.0,0.0,0.0,0.0,0.0,0.0,0.0,0.0,0.0,0.0,0.0,0.0,0.0,0.0,0.0,0.0,0.0,0.0,0.0,0.0,0.0,0.0,0.0,0.0,0.0,0.0,0.0,0.0,0.0,0.0,0.0,0.0,0.0,0.0,0.0,0.0,0.0,0.0,0.0,0.0,0.0,0.0,0.0,0.0,0.0,0.0,0.0,0.0,0.0,0.0,0.0,0.0,0.0,0.0,0.0,0.0,0.0,0.0,0.0,0.0,0.0,0.0,0.0,0.0,0.0,0.0,0.0,0.0,0.0,0.0,0.0,0.0,0.0,0.0,0.0,0.0,0.0,0.0,0.0,0.0,0.0,0.0,0.0,0.0,0.0,0.0,0.0,0.0,0.0,0.0,0.0,0.0,0.0,0.0,0.0,0.0,0.0,0.0,0.0,0.0,0.0,0.0,0.0,0.0,0.0,0.0,0.0,0.0,0.0,0.0,0.0,0.0,0.0,0.0,0.0,0.0,0.0,0.0,0.0,0.0,0.0,0.0,0.0,0.0,0.0,0.0,0.0,0.0,0.0,0.0,0.0,0.0,0.0,0.0,0.0,0.0,0.0,0.0,0.0,0.0,0.0,0.0,0.0,0.0,0.0,0.0,0.0,0.0,0.0,0.0,0.0,0.0,0.0,0.0,0.0,0.0,0.0,0.0,0.0,0.0,0.0,0.0,0.0,0.0,0.0,0.0,0.0,0.0,0.0,0.0,0.0,0.0,0.0,0.0,0.0,0.0,0.0,0.0,0.0,0.0,0.0,0.0,0.0,0.0,0.0,0.0,0.0,0.0,0.0,0.0,0.0,0.0,0.0,0.0,0.0,0.0,0.0,0.0,0.0,0.0,0.0,0.0,0.0,0.0,0.0,0.0,0.0,0.0,0.0,0.0,0.0,0.0,0.0,0.0,0.0,0.0,0.0,0.0,0.0,0.0,0.0,0.0,0.0,0.0,0.0,0.0,0.0,0.0,0.0,0.0,0.0,0.0,0.0,0.0,0.0,0.0,0.0,-2.5327,0.0,0.0,0.0,0.0,0.0,0.0,0.0,0.0,0.0,0.0,0.0,0.0,0.0,0.0,0.0,0.0,0.0,0.0,0.0,0.0,0.0,0.0,0.0,0.0,0.0,0.0,0.0,0.0,0.0,0.0,0.0,0.0,0.0,0.0,0.0,0.0,0.0,0.0,0.0,0.0,0.0,0.0,0.0,0.0,0.0,0.0,0.0,0.0,0.0,0.0,0.0,0.0,0.0,0.0,0.0,0.0,0.0,0.0,0.0,0.0,0.0,0.0,0.0,0.0,0.0,0.0,0.0,0.0,0.0,0.0,0.0,0.0,0.0,0.0,0.0,0.0,0.0,0.0,0.0,0.0,0.0,0.0,0.0,0.0,0.0,0.0,0.0,0.0,0.0,0.0,0.0,0.0,0.0,0.0,0.0,0.0,0.0,0.0,0.0,0.0,0.0,0.0,0.0,0.0,0.0,0.0,0.0,0.0,0.0,0.0,-2.7313,-2.6077,-2.6385,-2.6197,-2.5365,0.0,0.0,0.0,0.0,0.0,0.0,0.0,0.0,0.0,0.0,0.0,0.0,0.0,0.0,0.0,0.0,0.0,0.0,0.0,0.0,0.0,0.0,0.0,0.0,0.0,0.0,0.0,0.0,0.0,0.0,0.0,0.0,0.0,0.0,0.0,0.0,0.0,0.0,0.0,0.0,0.0,0.0,0.0,0.0,0.0,0.0,0.0,0.0,0.0,0.0,0.0,0.0,0.0,0.0,0.0,0.0,0.0,0.0,0.0,0.0,0.0,0.0,0.0,0.0,0.0,0.0,0.0,0.0,0.0,0.0,0.0,0.0,0.0,0.0,0.0,0.0,0.0,0.0,0.0,0.0,0.0,0.0,0.0,0.0,0.0,0.0,0.0,0.0,0.0,0.0,0.0,0.0,0.0,0.0,0.0,0.0,0.0,0.0,0.0,0.0,0.0,0.0,0.0,0.0,0.0,0.0,0.0,0.0,0.0,0.0,0.0,0.0,-2.6788,-2.6481,-2.5654,0.0,0.0,0.0,0.0,0.0,0.0,0.0,0.0,0.0,0.0,0.0,0.0,0.0,0.0,0.0,0.0,0.0,0.0,0.0,0.0,0.0,0.0,0.0,0.0,0.0,0.0,0.0,0.0,0.0,0.0,0.0,0.0,0.0,0.0,0.0,0.0,0.0,0.0,0.0,0.0,0.0,0.0,0.0,0.0,0.0,0.0,0.0,0.0,0.0,0.0,0.0,0.0,0.0,0.0,0.0,0.0,0.0,0.0,0.0,0.0,0.0,0.0,0.0,0.0,0.0,0.0,0.0,0.0,0.0,0.0,0.0,0.0,0.0,0.0,0.0,0.0,0.0,0.0,0.0,0.0,0.0,0.0,0.0,0.0,0.0,0.0,0.0,0.0,0.0,0.0,0.0,0.0,0.0,0.0,0.0,0.0,0.0,0.0,0.0,0.0,0.0,0.0,0.0,0.0,0.0,0.0,0.0,0.0,0.0,0.0,-2.6678,-2.6621,-2.7351,0.0,-2.6563,0.0,0.0,0.0,0.0,0.0,0.0,0.0,0.0,0.0,0.0,0.0,0.0,0.0,0.0,0.0,0.0,0.0,0.0,0.0,0.0,0.0,0.0,0.0,0.0,0.0,0.0,0.0,0.0,0.0,0.0,0.0,0.0,0.0,0.0,0.0,0.0,0.0,0.0,0.0,0.0,0.0,0.0,0.0,0.0,0.0,0.0,0.0,0.0,0.0,0.0,0.0,0.0,0.0,0.0,0.0,0.0,0.0,0.0,0.0,0.0,0.0,0.0,0.0,0.0,0.0,0.0,0.0,0.0,0.0,0.0,0.0,0.0,0.0,0.0,0.0,0.0,0.0,0.0,0.0,0.0,0.0,0.0,0.0,0.0,0.0,0.0,0.0,0.0,0.0,0.0,0.0,0.0,0.0,0.0,0.0,0.0,0.0,0.0,0.0,0.0,0.0,0.0,0.0,0.0,0.0,0.0,0.0,0.0,0.0,0.0,-2.6941,-2.6437,-2.6886,-2.6967,0.0,0.0,0.0,0.0,0.0,0.0,0.0,0.0,0.0,0.0,0.0,0.0,0.0,0.0,0.0,0.0,0.0,0.0,0.0,0.0,0.0,0.0,0.0,0.0,0.0,0.0,0.0,0.0,0.0,0.0,0.0,0.0,0.0,0.0,0.0,0.0,0.0,0.0,0.0,0.0,0.0,0.0,0.0,0.0,0.0,0.0,0.0,0.0,0.0,0.0,0.0,0.0,0.0,0.0,0.0,0.0,0.0,0.0,0.0,0.0,0.0,0.0,0.0,0.0,0.0,0.0,0.0,0.0,0.0,0.0,0.0,0.0,0.0,0.0,0.0,0.0,0.0,0.0,0.0,0.0,0.0,0.0,0.0,0.0,0.0,0.0,0.0,0.0,0.0,0.0,0.0,0.0,0.0,0.0,0.0,0.0,0.0,0.0,0.0,0.0,0.0,0.0,0.0,0.0,0.0,0.0,0.0,0.0,0.0,0.0,-2.6871,-2.698,-2.6676,-2.6833,-2.6851,-2.6621,0.0,0.0,0.0,0.0,0.0,0.0,0.0,0.0,0.0,0.0,0.0,0.0,0.0,0.0,0.0,0.0,0.0,0.0,0.0,0.0,0.0,0.0,0.0,0.0,0.0,0.0,0.0,0.0,0.0,0.0,0.0,0.0,0.0,0.0,0.0,0.0,0.0,0.0,0.0,0.0,0.0,0.0,0.0,0.0,0.0,0.0,0.0,0.0,0.0,0.0,0.0,0.0,0.0,0.0,0.0,0.0,0.0,0.0,0.0,0.0,0.0,0.0,0.0,0.0,0.0,0.0,0.0,0.0,0.0,0.0,0.0,0.0,0.0,0.0,0.0,0.0,0.0,0.0,0.0,0.0,0.0,0.0,0.0,0.0,0.0,0.0,0.0,0.0,0.0,0.0,0.0,0.0,0.0,0.0,0.0,0.0,0.0,0.0,0.0,0.0,0.0,0.0,0.0,0.0,0.0,0.0,0.0,0.0,0.0,-2.6434,-2.6514,-2.7406,-2.771,-2.7448,0.0,0.0,0.0,0.0,0.0,0.0,0.0,0.0,0.0,0.0,0.0,0.0,0.0,0.0,0.0,0.0,0.0,0.0,0.0,0.0,0.0,0.0,0.0,0.0,0.0,0.0,0.0,0.0,0.0,0.0,0.0,0.0,0.0,0.0,0.0,0.0,0.0,0.0,0.0,0.0,0.0,0.0,0.0,0.0,0.0,0.0,0.0,0.0,0.0,0.0,0.0,0.0,0.0,0.0,0.0,0.0,0.0,0.0,0.0,0.0,0.0,0.0,0.0,0.0,0.0,0.0,0.0,0.0,0.0,0.0,0.0,0.0,0.0,0.0,0.0,0.0,0.0,0.0,0.0,0.0,0.0,0.0,0.0,0.0,0.0,0.0,0.0,0.0,0.0,0.0,0.0,0.0,0.0,0.0,0.0,0.0,0.0,0.0,0.0,0.0,0.0,0.0,0.0,0.0,0.0,0.0,0.0,0.0,0.0,-2.5253,-2.5607,-2.6559,-2.804,-2.7331,-2.698,0.0,0.0,0.0,0.0,0.0,0.0,0.0,0.0,0.0,0.0,0.0,0.0,0.0,0.0,0.0,0.0,0.0,0.0,0.0,0.0,0.0,0.0,0.0,0.0,0.0,0.0,0.0,0.0,0.0,0.0,0.0,0.0,0.0,0.0,0.0,0.0,0.0,0.0,0.0,0.0,0.0,0.0,0.0,0.0,0.0,0.0,0.0,0.0,0.0,0.0,0.0,0.0,0.0,0.0,0.0,0.0,0.0,0.0,0.0,0.0,0.0,0.0,0.0,0.0,0.0,0.0,0.0,0.0,0.0,0.0,0.0,0.0,0.0,0.0,0.0,0.0,0.0,0.0,0.0,0.0,0.0,0.0,0.0,0.0,0.0,0.0,0.0,0.0,0.0,0.0,0.0,0.0,0.0,0.0,0.0,0.0,0.0,0.0,0.0,0.0,0.0,0.0,0.0,0.0,0.0,0.0,0.0,0.0,0.0,-2.4989,0.0,-2.696,0.0,-2.7144,-2.6708,0.0,0.0,0.0,0.0,0.0,0.0,0.0,0.0,0.0,0.0,0.0,0.0,0.0,0.0,0.0,0.0,0.0,0.0,0.0,0.0,0.0,0.0,0.0,0.0,0.0,0.0,0.0,0.0,0.0,0.0,0.0,0.0,0.0,0.0,0.0,0.0,0.0,0.0,0.0,0.0,0.0,0.0,0.0,0.0,0.0,0.0,0.0,0.0,0.0,0.0,0.0,0.0,0.0,0.0,0.0,0.0,0.0,0.0,0.0,0.0,0.0,0.0,0.0,0.0,0.0,0.0,0.0,0.0,0.0,0.0,0.0,0.0,0.0,0.0,0.0,0.0,0.0,0.0,0.0,0.0,0.0,0.0,0.0,0.0,0.0,0.0,0.0,0.0,0.0,0.0,0.0,0.0,0.0,0.0,0.0,0.0,0.0,0.0,0.0,0.0,0.0,0.0,0.0,0.0,0.0,0.0,0.0,0.0,-2.4997,-2.6521,-2.7458,-2.7576,-2.6963,-2.7221,-2.6669,0.0,0.0,0.0,0.0,0.0,0.0,0.0,0.0,0.0,0.0,0.0,0.0,0.0,0.0,0.0,0.0,0.0,0.0,0.0,0.0,0.0,0.0,0.0,0.0,0.0,0.0,0.0,0.0,0.0,0.0,0.0,0.0,0.0,0.0,0.0,0.0,0.0,0.0,0.0,0.0,0.0,0.0,0.0,0.0,0.0,0.0,0.0,0.0,0.0,0.0,0.0,0.0,0.0,0.0,0.0,0.0,0.0,0.0,0.0,0.0,0.0,0.0,0.0,0.0,0.0,0.0,0.0,0.0,0.0,0.0,0.0,0.0,0.0,0.0,0.0,0.0,0.0,0.0,0.0,0.0,0.0,0.0,0.0,0.0,0.0,0.0,0.0,0.0,0.0,0.0,0.0,0.0,0.0,0.0,0.0,0.0,0.0,0.0,0.0,0.0,0.0,0.0,0.0,0.0,0.0,0.0,0.0,0.0,0.0,-2.5778,-2.6088,-2.6655,-2.7438,-2.615,-2.5774,0.0,0.0,0.0,0.0,0.0,0.0,0.0,0.0,0.0,0.0,0.0,0.0,0.0,0.0,0.0,0.0,0.0,0.0,0.0,0.0,0.0,0.0,0.0,0.0,0.0,0.0,0.0,0.0,0.0,0.0,0.0,0.0,0.0,0.0,0.0,0.0,0.0,0.0,0.0,0.0,0.0,0.0,0.0,0.0,0.0,0.0,0.0,0.0,0.0,0.0,0.0,0.0,0.0,0.0,0.0,0.0,0.0,0.0,0.0,0.0,0.0,0.0,0.0,0.0,0.0,0.0,0.0,0.0,0.0,0.0,0.0,0.0,0.0,0.0,0.0,0.0,0.0,0.0,0.0,0.0,0.0,0.0,0.0,0.0,0.0,0.0,0.0,0.0,0.0,0.0,0.0,0.0,0.0,0.0,0.0,0.0,0.0,0.0,0.0,0.0,0.0,0.0,0.0,0.0,0.0,0.0,0.0,0.0,0.0,-2.721,-2.7192,-2.7365,-2.7798,-2.6591,-2.6064,-2.6268,0.0,0.0,0.0,0.0,0.0,0.0,0.0,0.0,0.0,0.0,0.0,0.0,0.0,0.0,0.0,0.0,0.0,0.0,0.0,0.0,0.0,0.0,0.0,0.0,0.0,0.0,0.0,0.0,0.0,0.0,0.0,0.0,0.0,0.0,0.0,0.0,0.0,0.0,0.0,0.0,0.0,0.0,0.0,0.0,0.0,0.0,0.0,0.0,0.0,0.0,0.0,0.0,0.0,0.0,0.0,0.0,0.0,0.0,0.0,0.0,0.0,0.0,0.0,0.0,0.0,0.0,0.0,0.0,0.0,0.0,0.0,0.0,0.0,0.0,0.0,0.0,0.0,0.0,0.0,0.0,0.0,0.0,0.0,0.0,0.0,0.0,0.0,0.0,0.0,0.0,0.0,0.0,0.0,0.0,0.0,0.0,0.0,0.0,0.0,0.0,0.0,0.0,0.0,0.0,0.0,0.0,0.0,0.0,-3.0234,-3.0393,-2.9714,-2.8184,-2.8221,-2.7282,0.0,0.0,0.0,0.0,0.0,0.0,0.0,0.0,0.0,0.0,0.0,0.0,0.0,0.0,0.0,0.0,0.0,0.0,0.0,0.0,0.0,0.0,0.0,0.0,0.0,0.0,0.0,0.0,0.0,0.0,0.0,0.0,0.0,0.0,0.0,0.0,0.0,0.0,0.0,0.0,0.0,0.0,0.0,0.0,0.0,0.0,0.0,0.0,0.0,0.0,0.0,0.0,0.0,0.0,0.0,0.0,0.0,0.0,0.0,0.0,0.0,0.0,0.0,0.0,0.0,0.0,0.0,0.0,0.0,0.0,0.0,0.0,0.0,0.0,0.0,0.0,0.0,0.0,0.0,0.0,0.0,0.0,0.0,0.0,0.0,0.0,0.0,0.0,0.0,0.0,0.0,0.0,0.0,0.0,0.0,0.0,0.0,0.0,0.0,0.0,0.0,0.0,0.0,0.0,0.0,0.0,0.0,0.0,0.0,-3.1072,-3.2803,-3.2968,-3.1347,-2.8703,-2.7361,0.0,0.0,0.0,0.0,0.0,0.0,0.0,0.0,0.0,0.0,0.0,0.0,0.0,0.0,0.0,0.0,0.0,0.0,0.0,0.0,0.0,0.0,0.0,0.0,0.0,0.0,0.0,0.0,0.0,0.0,0.0,0.0,0.0,0.0,0.0,0.0,0.0,0.0,0.0,0.0,0.0,0.0,0.0,0.0,0.0,0.0,0.0,0.0,0.0,0.0,0.0,0.0,0.0,0.0,0.0,0.0,0.0,0.0,0.0,0.0,0.0,0.0,0.0,0.0,0.0,0.0,0.0,0.0,0.0,0.0,0.0,0.0,0.0,0.0,0.0,0.0,0.0,0.0,0.0,0.0,0.0,0.0,0.0,0.0,0.0,0.0,0.0,0.0,0.0,0.0,0.0,0.0,0.0,0.0,0.0,0.0,0.0,0.0,0.0,0.0,0.0,0.0,0.0,0.0,0.0,0.0,0.0,0.0,-3.0797,-3.2394,-3.4798,-3.5605,-3.4669,-3.1256,-2.8921,0.0,0.0,0.0,0.0,0.0,0.0,0.0,0.0,0.0,0.0,0.0,0.0,0.0,0.0,0.0,0.0,0.0,0.0,0.0,0.0,0.0,0.0,0.0,0.0,0.0,0.0,0.0,0.0,0.0,0.0,0.0,0.0,0.0,0.0,0.0,0.0,0.0,0.0,0.0,0.0,0.0,0.0,0.0,0.0,0.0,0.0,0.0,0.0,0.0,0.0,0.0,0.0,0.0,0.0,0.0,0.0,0.0,0.0,0.0,0.0,0.0,0.0,0.0,0.0,0.0,0.0,0.0,0.0,0.0,0.0,0.0,0.0,0.0,0.0,0.0,0.0,0.0,0.0,0.0,0.0,0.0,0.0,0.0,0.0,0.0,0.0,0.0,0.0,0.0,0.0,0.0,0.0,0.0,0.0,0.0,0.0,0.0,0.0,0.0,0.0,0.0,0.0,0.0,0.0,0.0,0.0,0.0,0.0,-3.2357,-3.4045,-3.6391,-3.7584,-3.7419,-3.443,-3.1155,0.0,0.0,0.0,0.0,0.0,0.0,0.0,0.0,0.0,0.0,0.0,0.0,0.0,0.0,0.0,0.0,0.0,0.0,0.0,0.0,0.0,0.0,0.0,0.0,0.0,0.0,0.0,0.0,0.0,0.0,0.0,0.0,0.0,0.0,0.0,0.0,0.0,0.0,0.0,0.0,0.0,0.0,0.0,0.0,0.0,0.0,0.0,0.0,0.0,0.0,0.0,0.0,0.0,0.0,0.0,0.0,0.0,0.0,0.0,0.0,0.0,0.0,0.0,0.0,0.0,0.0,0.0,0.0,0.0,0.0,0.0,0.0,0.0,0.0,0.0,0.0,0.0,0.0,0.0,0.0,0.0,0.0,0.0,0.0,0.0,0.0,0.0,0.0,0.0,0.0,0.0,0.0,0.0,0.0,0.0,0.0,0.0,0.0,0.0,0.0,0.0,0.0,0.0,0.0,0.0,0.0,0.0,0.0,-3.3458,-3.5716,-3.7514,-3.8138,-3.7492,-3.3894,-3.1342,0.0,0.0,0.0,0.0,0.0,0.0,0.0,0.0,0.0,0.0,0.0,0.0,0.0,0.0,0.0,0.0,0.0,0.0,0.0,0.0,0.0,0.0,0.0,0.0,0.0,0.0,0.0,0.0,0.0,0.0,0.0,0.0,0.0,0.0,0.0,0.0,0.0,0.0,0.0,0.0,0.0,0.0,0.0,0.0,0.0,0.0,0.0,0.0,-2.1744,0.0,0.0,0.0,0.0,0.0,0.0,0.0,0.0,0.0,0.0,0.0,0.0,0.0,0.0,0.0,0.0,0.0,0.0,0.0,0.0,0.0,0.0,0.0,0.0,0.0,0.0,0.0,0.0,0.0,0.0,0.0,0.0,0.0,0.0,0.0,0.0,0.0,0.0,0.0,0.0,0.0,0.0,0.0,0.0,0.0,0.0,0.0,0.0,0.0,0.0,0.0,0.0,0.0,0.0,0.0,0.0,0.0,0.0,0.0,-3.4174,-3.6248,-3.7881,-3.8487,-3.797,-3.4939,-3.2432,0.0,0.0,0.0,0.0,0.0,0.0,0.0,0.0,0.0,0.0,0.0,0.0,0.0,0.0,0.0,0.0,0.0,0.0,0.0,0.0,0.0,0.0,0.0,0.0,0.0,0.0,0.0,0.0,0.0,0.0,0.0,0.0,0.0,0.0,0.0,0.0,0.0,0.0,0.0,0.0,0.0,0.0,0.0,0.0,0.0,0.0,0.0,0.0,0.0,0.0,0.0,0.0,0.0,0.0,0.0,0.0,0.0,0.0,0.0,0.0,0.0,0.0,0.0,0.0,0.0,0.0,0.0,0.0,0.0,0.0,0.0,0.0,0.0,0.0,0.0,0.0,0.0,0.0,0.0,0.0,0.0,0.0,0.0,0.0,0.0,0.0,0.0,0.0,0.0,0.0,0.0,0.0,0.0,0.0,0.0,0.0,0.0,0.0,0.0,0.0,0.0,0.0,0.0,0.0,0.0,0.0,0.0,-3.2302,-3.4614,-3.6615,-3.801,-3.8707,-3.867,-3.6307,-3.3624,-3.0761,0.0,0.0,0.0,0.0,0.0,0.0,0.0,0.0,0.0,0.0,0.0,0.0,0.0,0.0,0.0,0.0,0.0,0.0,0.0,0.0,0.0,0.0,0.0,0.0,0.0,0.0,0.0,0.0,0.0,0.0,0.0,0.0,0.0,0.0,0.0,0.0,0.0,0.0,-2.3667,-2.4336,0.0,0.0,0.0,0.0,0.0,0.0,0.0,0.0,-2.2132,0.0,0.0,0.0,0.0,0.0,0.0,0.0,0.0,0.0,0.0,0.0,0.0,0.0,0.0,0.0,0.0,0.0,0.0,0.0,0.0,0.0,0.0,0.0,0.0,0.0,0.0,0.0,0.0,0.0,0.0,0.0,0.0,0.0,0.0,0.0,0.0,0.0,0.0,0.0,0.0,0.0,0.0,0.0,0.0,0.0,0.0,0.0,0.0,0.0,0.0,0.0,0.0,0.0,0.0,0.0,0.0,-3.2926,-3.2871,-3.4564,-3.8212,-3.8579,-3.8707,-3.8634,-3.6288,-3.382,-3.1348,0.0,0.0,0.0,0.0,0.0,0.0,0.0,0.0,0.0,0.0,0.0,0.0,0.0,0.0,0.0,0.0,0.0,0.0,0.0,0.0,0.0,0.0,0.0,0.0,0.0,0.0,0.0,0.0,0.0,0.0,0.0,0.0,0.0,0.0,0.0,0.0,0.0,0.0,0.0,-2.4626,-2.4644,0.0,0.0,0.0,0.0,0.0,0.0,0.0,0.0,-2.2572,0.0,0.0,0.0,0.0,0.0,0.0,0.0,0.0,0.0,0.0,0.0,0.0,0.0,0.0,0.0,0.0,0.0,0.0,0.0,0.0,0.0,0.0,0.0,0.0,0.0,0.0,0.0,0.0,0.0,0.0,0.0,0.0,0.0,0.0,0.0,0.0,0.0,0.0,0.0,0.0,0.0,0.0,0.0,0.0,0.0,0.0,0.0,0.0,0.0,0.0,0.0,0.0,0.0,0.0,0.0,-3.2462,-3.4247,-3.6303,-3.8615,-3.8707,-3.8707,-3.8634,-3.5885,-3.3458,0.0,0.0,0.0,0.0,0.0,0.0,0.0,0.0,0.0,0.0,0.0,0.0,0.0,0.0,0.0,0.0,0.0,0.0,0.0,0.0,0.0,0.0,0.0,0.0,0.0,0.0,0.0,0.0,0.0,0.0,0.0,0.0,0.0,0.0,0.0,0.0,0.0,0.0,0.0,0.0,-2.5062,-2.5157,-2.6039,0.0,0.0,0.0,0.0,0.0,0.0,-2.3795,-2.3446,0.0,0.0,0.0,0.0,0.0,0.0,0.0,0.0,0.0,0.0,0.0,0.0,0.0,0.0,0.0,0.0,0.0,0.0,0.0,0.0,0.0,0.0,0.0,0.0,0.0,0.0,0.0,0.0,0.0,0.0,0.0,0.0,0.0,0.0,0.0,0.0,0.0,0.0,0.0,0.0,0.0,0.0,0.0,0.0,0.0,0.0,0.0,0.0,0.0,0.0,0.0,0.0,0.0,0.0,0.0,-3.147,-3.5092,-3.7551,-3.8634,-3.8707,-3.8634,-3.8414,-3.5422,-3.2963,0.0,0.0,0.0,0.0,0.0,0.0,0.0,0.0,0.0,0.0,0.0,0.0,0.0,0.0,0.0,0.0,0.0,0.0,0.0,0.0,0.0,0.0,0.0,0.0,0.0,0.0,0.0,0.0,0.0,0.0,0.0,0.0,0.0,0.0,0.0,0.0,0.0,0.0,0.0,0.0,0.0,-2.6072,-2.6528,-2.5511,0.0,0.0,0.0,0.0,-2.4704,-2.4685,0.0,0.0,0.0,0.0,0.0,0.0,0.0,0.0,0.0,0.0,0.0,0.0,0.0,0.0,0.0,0.0,0.0,0.0,0.0,0.0,0.0,0.0,0.0,0.0,0.0,0.0,0.0,0.0,0.0,0.0,0.0,0.0,0.0,0.0,0.0,0.0,0.0,0.0,0.0,0.0,0.0,0.0,0.0,0.0,0.0,0.0,0.0,0.0,0.0,0.0,0.0,0.0,0.0,0.0,0.0,0.0,-3.1415,-3.3972,-3.6399,-3.8579,-3.8707,-3.8358,-3.7621,-3.5147,-3.2706,0.0,0.0,0.0,0.0,0.0,0.0,0.0,0.0,0.0,0.0,0.0,0.0,0.0,0.0,0.0,0.0,0.0,0.0,0.0,0.0,0.0,0.0,0.0,0.0,0.0,0.0,0.0,0.0,0.0,0.0,0.0,0.0,0.0,0.0,0.0,0.0,0.0,0.0,0.0,0.0,0.0,-2.7291,-2.6675,-2.6447,-2.608,0.0,0.0,-2.6337,-2.6319,-2.6308,0.0,0.0,0.0,0.0,0.0,0.0,0.0,0.0,0.0,0.0,0.0,0.0,0.0,0.0,0.0,0.0,0.0,0.0,0.0,0.0,0.0,0.0,0.0,0.0,0.0,0.0,0.0,0.0,0.0,0.0,0.0,0.0,0.0,0.0,0.0,0.0,0.0,0.0,0.0,0.0,0.0,0.0,0.0,0.0,0.0,0.0,0.0,0.0,0.0,0.0,0.0,0.0,0.0,0.0,0.0,-3.035,-3.1507,-3.5165,-3.7624,-3.8652,-3.8707,-3.8322,-3.7529,-3.4651,-3.221,0.0,0.0,0.0,0.0,0.0,0.0,0.0,0.0,0.0,0.0,0.0,0.0,0.0,0.0,0.0,0.0,0.0,0.0,0.0,0.0,0.0,0.0,0.0,0.0,0.0,0.0,0.0,0.0,0.0,0.0,0.0,0.0,0.0,0.0,0.0,0.0,0.0,0.0,0.0,0.0,0.0,0.0,-2.6704,-2.6979,0.0,0.0,0.0,-2.7126,-2.6657,0.0,0.0,0.0,0.0,0.0,0.0,0.0,0.0,0.0,0.0,0.0,0.0,0.0,0.0,0.0,0.0,0.0,0.0,0.0,0.0,0.0,0.0,0.0,0.0,0.0,0.0,0.0,0.0,0.0,0.0,0.0,0.0,0.0,0.0,0.0,0.0,0.0,0.0,0.0,0.0,0.0,0.0,0.0,0.0,0.0,0.0,0.0,0.0,0.0,0.0,0.0,0.0,0.0,0.0,0.0,0.0,0.0,-3.1494,-3.6229,-3.8707,-3.8707,-3.8707,-3.8212,-3.7199,-3.4596,0.0,0.0,0.0,0.0,0.0,0.0,0.0,0.0,0.0,0.0,0.0,0.0,0.0,0.0,0.0,0.0,0.0,0.0,0.0,0.0,0.0,0.0,0.0,0.0,0.0,0.0,0.0,-2.0189,0.0,0.0,0.0,0.0,0.0,0.0,0.0,0.0,0.0,0.0,0.0,0.0,0.0,0.0,-2.8044,-2.7034,-2.775,-2.8411,0.0,0.0,-2.7897,-2.7299,-2.8381,-2.8491,0.0,0.0,0.0,0.0,0.0,0.0,0.0,0.0,0.0,0.0,0.0,0.0,0.0,0.0,0.0,0.0,0.0,0.0,0.0,0.0,0.0,0.0,0.0,0.0,0.0,0.0,0.0,0.0,0.0,0.0,0.0,0.0,0.0,0.0,0.0,0.0,0.0,0.0,0.0,0.0,0.0,0.0,0.0,0.0,0.0,0.0,0.0,0.0,0.0,0.0,0.0,0.0,0.0,0.0,0.0,-3.1562,-3.6229,-3.8707,-3.8707,-3.8707,-3.7955,-3.6413,-3.5371,-3.3023,0.0,0.0,0.0,0.0,0.0,0.0,0.0,0.0,0.0,0.0,0.0,0.0,0.0,0.0,0.0,0.0,0.0,0.0,0.0,0.0,0.0,0.0,0.0,0.0,0.0,0.0,0.0,0.0,0.0,0.0,0.0,0.0,0.0,0.0,0.0,0.0,0.0,0.0,0.0,0.0,0.0,-2.9475,-2.7934,-2.9053,-3.0044,0.0,0.0,-2.8895,-2.884,-2.9537,-2.9299,-2.6895,0.0,0.0,0.0,0.0,0.0,0.0,0.0,0.0,0.0,0.0,0.0,0.0,0.0,0.0,0.0,0.0,0.0,0.0,0.0,0.0,0.0,0.0,0.0,0.0,0.0,0.0,0.0,0.0,0.0,0.0,0.0,0.0,0.0,0.0,0.0,0.0,0.0,0.0,0.0,0.0,0.0,0.0,0.0,0.0,0.0,0.0,0.0,0.0,0.0,0.0,0.0,0.0,0.0,-3.1403,-3.147,-3.6229,-3.8707,-3.8689,-3.8212,-3.7422,-3.6321,-3.5,-3.2601,0.0,0.0,0.0,0.0,0.0,0.0,0.0,0.0,0.0,0.0,0.0,0.0,0.0,0.0,0.0,0.0,0.0,0.0,0.0,0.0,0.0,0.0,0.0,0.0,0.0,0.0,0.0,0.0,-2.3722,-2.3566,-2.3731,0.0,0.0,0.0,0.0,0.0,0.0,0.0,0.0,0.0,0.0,-2.8994,-2.8862,-2.9589,0.0,0.0,-2.9872,-2.9349,-2.847,-2.8999,-2.8563,-2.5703,-2.4721,0.0,0.0,0.0,0.0,0.0,0.0,0.0,0.0,0.0,0.0,0.0,0.0,0.0,0.0,0.0,0.0,0.0,0.0,0.0,0.0,0.0,0.0,0.0,0.0,0.0,0.0,0.0,0.0,0.0,0.0,0.0,0.0,0.0,0.0,0.0,0.0,0.0,0.0,0.0,0.0,0.0,0.0,0.0,0.0,0.0,0.0,0.0,0.0,0.0,0.0,0.0,0.0,-3.1403,-3.1421,-3.6211,-3.8707,-3.8689,-3.7933,-3.7107,-3.6303,-3.4908,-3.2656,0.0,0.0,0.0,0.0,0.0,0.0,0.0,0.0,0.0,0.0,0.0,0.0,0.0,0.0,0.0,0.0,0.0,0.0,0.0,0.0,0.0,0.0,0.0,0.0,0.0,0.0,0.0,0.0,-2.4824,-2.4475,-2.3896,0.0,0.0,0.0,0.0,0.0,0.0,0.0,0.0,0.0,0.0,-2.8975,-2.9303,-2.979,-3.0119,-3.0152,-2.9763,-2.9121,-2.8085,-2.8415,-2.7861,-2.5179,0.0,0.0,0.0,0.0,0.0,0.0,0.0,0.0,0.0,0.0,0.0,0.0,0.0,0.0,0.0,0.0,0.0,0.0,0.0,0.0,0.0,0.0,0.0,0.0,0.0,0.0,0.0,-2.7871,0.0,0.0,-2.672,0.0,0.0,0.0,0.0,0.0,0.0,0.0,0.0,0.0,0.0,0.0,0.0,0.0,0.0,0.0,0.0,0.0,0.0,0.0,0.0,0.0,0.0,-3.1384,-3.1452,-3.6178,-3.8655,-3.8637,-3.7915,-3.7088,-3.6266,-3.5408,-3.3445,-3.0234,0.0,0.0,0.0,0.0,0.0,0.0,0.0,0.0,0.0,0.0,0.0,0.0,0.0,0.0,0.0,0.0,0.0,0.0,0.0,0.0,0.0,0.0,0.0,0.0,0.0,0.0,-2.4254,-2.3529,-2.3079,0.0,0.0,0.0,0.0,0.0,0.0,0.0,0.0,0.0,0.0,-2.8161,-2.9768,-2.9107,-2.9688,-3.0185,-3.0264,-2.9036,-2.8056,-2.8007,-2.7986,-2.7453,0.0,0.0,0.0,0.0,0.0,0.0,0.0,0.0,0.0,0.0,0.0,0.0,0.0,0.0,0.0,0.0,0.0,0.0,0.0,0.0,0.0,0.0,0.0,0.0,0.0,0.0,0.0,-3.1042,-3.0544,0.0,0.0,0.0,0.0,0.0,0.0,0.0,0.0,0.0,0.0,0.0,-3.1633,-3.2187,0.0,0.0,0.0,0.0,0.0,0.0,0.0,0.0,0.0,0.0,0.0,0.0,-3.054,-3.1537,-3.5377,-3.7598,-3.7881,-3.7125,-3.6183,-3.5057,-3.4243,-3.2268,-2.9042,0.0,0.0,0.0,0.0,0.0,0.0,0.0,0.0,0.0,0.0,0.0,0.0,0.0,0.0,0.0,0.0,0.0,0.0,0.0,0.0,0.0,0.0,0.0,0.0,0.0,-2.4787,0.0,0.0,0.0,0.0,0.0,0.0,0.0,0.0,0.0,0.0,0.0,-2.6167,-2.7625,-2.8027,-2.8469,-2.9281,-2.9401,-2.9575,0.0,0.0,0.0,0.0,0.0,0.0,0.0,0.0,0.0,0.0,0.0,0.0,0.0,0.0,-2.4376,-2.2119,-2.1535,-2.1453,-2.164,0.0,0.0,0.0,0.0,0.0,0.0,0.0,0.0,0.0,0.0,0.0,0.0,0.0,0.0,-3.2853,0.0,-3.0958,0.0,0.0,0.0,0.0,0.0,0.0,0.0,0.0,-3.4169,-3.5172,-3.4375,-3.4657,-3.4274,0.0,-3.1971,-2.9853,0.0,0.0,0.0,0.0,0.0,0.0,0.0,0.0,-3.013,-3.1447,-3.4508,-3.6417,-3.6914,-3.595,-3.501,-3.4167,-3.3111,-3.1273,-2.8621,-2.6549,-2.4998,0.0,0.0,0.0,0.0,0.0,0.0,0.0,0.0,0.0,0.0,0.0,0.0,0.0,0.0,0.0,0.0,0.0,0.0,0.0,0.0,0.0,0.0,0.0,-2.4798,0.0,0.0,0.0,0.0,0.0,0.0,0.0,0.0,0.0,-2.5551,-2.6106,-2.7005,-2.8378,-2.835,-2.839,-2.8887,0.0,0.0,0.0,0.0,0.0,0.0,0.0,-2.5812,-2.5354,-2.532,-2.5558,-2.6235,-2.6556,-2.6775,-2.7056,0.0,0.0,-2.3995,-2.3309,-2.3202,-2.362,-2.3501,-2.3305,-2.3264,-2.333,-2.3264,0.0,0.0,0.0,0.0,0.0,0.0,0.0,0.0,-3.5936,-3.5422,0.0,-3.3019,0.0,0.0,0.0,0.0,0.0,-3.2611,0.0,0.0,-3.8201,-3.9688,-3.8091,-3.6666,-3.5961,-3.5855,-3.4323,-3.2401,-3.0184,-2.834,0.0,0.0,0.0,0.0,0.0,0.0,-3.0173,-3.1384,-3.3701,-3.5208,-3.5882,-3.4499,-3.3701,-3.3579,-3.2113,-3.0561,-2.9077,-2.8193,-2.6517,-2.3871,-2.3613,0.0,0.0,0.0,0.0,0.0,0.0,0.0,0.0,0.0,0.0,0.0,0.0,0.0,0.0,0.0,0.0,0.0,0.0,0.0,0.0,-2.4479,0.0,0.0,0.0,0.0,0.0,0.0,0.0,0.0,0.0,0.0,-2.5181,-2.6918,-2.8133,-2.7842,0.0,0.0,0.0,0.0,-2.8485,-2.7114,-2.6218,-2.5778,-2.5828,-2.6319,-2.6742,-2.6759,0.0,0.0,-2.7975,-2.7265,-2.6654,-2.6072,-2.6596,-2.7208,-2.7886,-2.676,-2.5925,-2.5953,-2.5123,-2.4436,-2.441,-2.4225,-2.3908,-4.1249,0.0,0.0,0.0,0.0,-3.814,-3.8922,-4.0662,-3.8864,-3.7851,-3.737,-3.5465,0.0,0.0,0.0,0.0,0.0,0.0,-3.5434,-3.5532,-3.7974,-3.8706,-3.8003,-3.7884,-3.7551,-3.7001,-3.5797,-3.4871,-3.4147,-3.2283,-2.9462,-2.5867,0.0,0.0,0.0,0.0,-3.0321,-3.2065,-3.3616,-3.4634,-3.5137,-3.4198,-3.3282,-3.2353,-3.1359,-3.035,-2.9375,-2.8351,-2.7183,-2.5856,-2.4158,0.0,0.0,0.0,0.0,0.0,0.0,0.0,0.0,0.0,0.0,0.0,0.0,0.0,0.0,0.0,0.0,0.0,0.0,0.0,-2.359,-2.4087,-2.392,0.0,0.0,0.0,0.0,0.0,0.0,0.0,0.0,0.0,-2.6926,-2.7062,-2.7335,0.0,0.0,-2.8314,-2.7858,-2.8484,-2.9044,-2.9127,-2.8501,0.0,-2.8738,-2.806,-2.7689,-2.8248,-2.8795,-2.9062,-2.8826,-2.8722,-2.8589,-2.8367,-2.8192,-2.8147,-2.8241,-2.7243,-2.6505,-2.6803,-2.6413,-2.6134,-2.6533,-2.6519,-2.6432,-4.3252,-4.1231,-4.0354,-4.0274,-4.0637,-3.9896,-4.0731,-4.2493,-4.0957,-4.0398,-4.045,-3.8615,-3.6755,-3.4922,-3.3953,0.0,0.0,0.0,-3.6866,-3.7365,-3.8573,-3.8996,-3.8766,-3.8463,-3.8099,-3.7624,-3.6392,-3.5615,-3.5305,-3.3867,-3.133,-2.7873,0.0,0.0,-2.7116,-2.9211,-3.0973,-3.2313,-3.3076,-3.3563,-3.3797,-3.3084,-3.2329,-3.1582,-3.1082,-3.0362,-2.9334,-2.8658,-2.7722,-2.6506,-2.5092,-2.3924,0.0,0.0,0.0,0.0,0.0,0.0,0.0,0.0,0.0,0.0,0.0,-2.1207,-2.0507,0.0,0.0,0.0,-2.2682,-2.2825,-2.2845,-2.3802,0.0,0.0,0.0,0.0,0.0,0.0,0.0,-2.4947,-2.6247,-2.73,-2.7756,-2.7925,-2.8315,-2.9041,-2.9414,-2.9499,-2.9193,0.0,-3.0364,-3.0514,-2.97,-2.925,-2.9649,-2.8771,-2.8268,-2.9032,-2.9235,-2.9267,-2.9295,-2.9355,-2.93,-2.9065,-2.8732,-2.8415,-2.8189,-2.7429,-2.6977,-2.7389,-2.7231,-2.7151,-2.754,-2.7585,-2.7509,-4.4598,-4.4401,-4.2337,-4.1474,-4.1474,-4.1457,-4.1863,-4.2455,-4.2499,-4.2828,-4.3291,-4.1982,-4.0561,-3.9005,-3.6282,0.0,-3.6022,-3.7432,-3.8413,-3.9131,-3.9791,-4.0113,-4.0028,-3.8582,-3.7898,-3.7872,-3.6326,-3.5228,-3.4595,-3.3914,-3.2831,-3.1413,-3.1008,-3.0367,-2.9592,-3.0985,-3.1931,-3.2276,-3.2293,-3.2259,-3.2209,-3.1565,-3.119,-3.119,-3.114,-3.0448,-2.9061,-2.8925,-2.8049,-2.6268,-2.6094,-2.5221,-2.3418,0.0,0.0,0.0,0.0,0.0,0.0,0.0,0.0,0.0,0.0,0.0,0.0,0.0,0.0,0.0,-2.3585,0.0,-2.2575,-2.3748,0.0,0.0,0.0,-2.5693,-2.5676,-2.6353,-2.6776,-2.6793,0.0,0.0,-2.7993,-2.9261,-3.048,-3.1258,-3.1904,-3.2056,-3.1396,-3.187,-3.2141,-3.1413,-3.0199,-2.9391,-2.9428,-2.8842,-2.8645,-2.9239,-2.9361,-2.9291,-2.9284,-2.921,-2.8996,-2.8535,-2.8431,-2.8247,-2.77,-2.7575,-2.7585,-2.758,-2.757,-2.7585,-2.7585,-2.7585,-2.7382,-4.4598,-4.4564,-4.4022,-4.3802,-4.3802,-4.3802,-4.3876,-4.4056,-4.4073,-4.3809,-4.3375,-4.302,-4.2057,-4.0646,-3.9935,-3.9394,-3.9039,-3.9394,-3.9673,-3.9842,-4.0011,-4.0113,-4.0028,-3.8599,-3.7898,-3.7804,-3.6326,-3.5498,-3.5334,-3.516,-3.4315,-3.2966,-3.332,-3.2326,-3.0104,-3.1412,-3.2204,-3.2293,-3.2293,-3.2022,-3.1461,-3.1275,-3.119,-3.119,-3.0649,-2.9922,-2.9027,-2.8399,-2.7622,-2.6621,-2.6026,-2.5496,-2.5011,-2.2716,0.0,0.0,0.0,0.0,0.0,0.0,0.0,0.0,0.0,-2.1722,-1.981,0.0,-2.2682,0.0,-2.3619,-2.4243,-2.4,-2.4797,0.0,0.0,-2.5896,-2.6437,-2.6454,-2.7097,-2.7536,-2.7536,-2.823,-2.8924,-2.9463,-3.0362,-3.1427,-3.2679,-3.2544,-3.2242,-3.209,-3.2645,-3.2882,-3.2131,-3.1333,-3.0698,-3.0028,-2.9524,-2.9154,-2.9374,-2.8996,-2.8709,-2.8709,-2.8343,-2.7993,-2.7835,-2.781,-2.776,-2.7625,-2.7585,-2.7585,-2.7585,-2.7585,-2.7585,-2.7585,-2.7585,-2.7357,-4.4598,-4.4598,-4.4598,-4.4367,-4.4079,-4.4418,-4.4598,-4.4598,-4.4598,-4.4333,-4.391,-4.3527,-4.2936,-4.2151,-4.1508,-4.0967,-4.0561,-4.0265,-4.0113,-4.0113,-4.0113,-4.0113,-4.0045,-3.8945,-3.821,-3.7872,-3.6705,-3.596,-3.5616,-3.5616,-3.5199,-3.4382,-3.4793,-3.4015,-3.2154,-3.2544,-3.2459,-3.1819,-3.1478,-3.1275,-3.1207,-3.119,-3.0886,-3.0262,-2.9839,-2.8941,-2.7554,-2.7063,-2.6488,-2.5744,-2.5337,-2.4949,-2.4611,-2.2767,-2.1563,0.0,0.0,0.0,0.0,0.0,0.0,0.0,0.0,0.0,0.0,0.0,-2.3395,-2.3733,-2.4814,-2.5472,-2.5489,-2.615,-2.6573,-2.659,-2.7554,-2.8213,-2.8197,-2.8873,-2.9294,-2.933,-2.9685,-3.0243,-3.097,-3.1715,-3.2594,-3.3744,-3.3829,-3.3761,-3.3761,-3.3863,-3.3664,-3.2969,-3.1803,-3.0532,-2.9321,-2.8818,-2.8599,-2.8567,-2.8304,-2.8091,-2.8091,-2.782,-2.7585,-2.7585,-2.7585,-2.7585,-2.7585,-2.7585,-2.7585,-2.7585,-2.7585,-2.7585,-2.7585,-2.7331,-2.689,-4.4598,-4.4598,-4.4598,-4.4198,-4.3623,-4.4282,-4.4496,-4.431,-4.431,-4.4361,-4.4429,-4.3826,-4.3494,-4.3308,-4.1938,-4.1288,-4.1153,-4.0451,-4.0113,-4.0113,-4.0113,-4.0113,-4.0062,-3.9326,-3.8616,-3.7889,-3.7168,-3.64,-3.5616,-3.5616,-3.5549,-3.5447,-3.5447,-3.5098,-3.4353,-3.3626,-3.2577,-3.1224,-3.048,-3.0412,-3.1038,-3.0954,-3.0243,-2.8942,-2.8756,-2.7723,-2.5694,-2.5491,-2.5169,-2.4541,-2.4508,-2.4254,-2.3697,-2.2902,-2.2192,0.0,-2.0775,0.0,0.0,0.0,0.0,0.0,0.0,0.0,0.0,-2.4389,-2.5202,-2.5829,-2.6539,-2.6996,-2.6996,-2.7655,-2.8094,-2.8145,-2.9379,-3.0241,-3.0277,-3.0818,-3.119,-3.119,-3.1275,-3.1616,-3.2175,-3.2949,-3.3677,-3.4336,-3.4878,-3.5099,-3.5223,-3.4744,-3.4162,-3.3468,-3.1653,-2.9809,-2.8514,-2.8031,-2.8006,-2.7935,-2.7875,-2.7735,-2.779,-2.7685,-2.7585,-2.7585,-2.7585,-2.7585,-2.7585,-2.7585,-2.7585,-2.7585,-2.7585,-2.7534,-2.7382,-2.6982,-2.6256,-4.4598,-4.4598,-4.4598,-4.453,-4.4412,-4.4547,-4.3904,-4.2726,-4.2726,-4.3064,-4.3656,-4.4147,-4.4012,-4.3352,-4.2489,-4.1745,-4.117,-4.0451,-4.0113,-4.0113,-4.0113,-4.0113,-4.0062,-3.9351,-3.8616,-3.7905,-3.7144,-3.6366,-3.5616,-3.5616,-3.5278,-3.4726,-3.4709,-3.4336,-3.3609,0.0,0.0,0.0,-3.048,-3.0176,-3.0294,-2.9702,-2.8958,-2.8043,-2.7452,0.0,-2.5642,-2.5049,-2.466,-2.4525,-2.4508,0.0,0.0,0.0,0.0,0.0,0.0,0.0,0.0,0.0,0.0,0.0,-2.5947,-2.5423,-2.4457,-2.6048,-2.7232,-2.7384,-2.8095,-2.857,-2.857,-2.9228,-2.9666,-2.9719,-3.0446,-3.0987,-3.0987,-3.1123,-3.119,-3.1207,-3.1698,-3.2141,-3.2378,-3.2949,-3.3694,-3.437,-3.4624,-3.4499,-3.4083,-3.4259,-3.3799,-3.2117,-3.0615,-2.9645,-2.929,-2.9172,-2.9097,-2.9172,-2.8727,-2.8427,-2.8338,-2.7914,-2.76,-2.7585,-2.7585,-2.7585,-2.7585,-2.7585,-2.7585,-2.7585,-2.7585,-2.7408,-2.6826,-2.6616,-2.6095,-4.4598,0.0,-4.4598,-4.4378,0.0,-4.4012,-4.3352,-4.2337,-4.3098,-4.3639,-4.4012,-4.4429,-4.435,-4.391,-4.2422,-4.1559,-4.1136,-3.9665,-3.9208,-3.9529,-3.9546,-3.9732,-4.0096,-3.974,-3.8971,-3.7905,-3.7533,-3.6738,-3.5633,-3.5616,-3.5397,-3.5047,-3.5047,-3.4839,-3.4472,-3.3389,-3.2307,-3.1207,-3.048,-3.0258,-3.0615,-3.026,-2.955,-2.8433,-2.7655,0.0,0.0,0.0,0.0,0.0,0.0,0.0,0.0,0.0,0.0,-2.5015,-2.4695,-2.4966,-2.6015,-2.6133,-2.6623,-2.774,-2.8163,-2.7757,-2.6251,-2.7875,-2.8939,-2.8956,-2.9634,-3.0093,-3.0074,-3.0412,-3.0649,-3.0666,-3.097,-3.119,-3.119,-3.119,-3.1362,-3.1718,-3.2073,-3.2547,-3.3309,-3.366,-3.4066,-3.4421,-3.4472,-3.4245,-3.3634,-3.3501,-3.2768,-3.0824,-3.0042,-2.9583,-2.9597,-2.9621,-2.9621,-2.9505,-2.9026,-2.8652,-2.8592,-2.8023,-2.7585,-2.7585,-2.7585,-2.7585,-2.7585,-2.7585,-2.7585,-2.7585,-2.7585,-2.7188,-2.6242,-2.596,-2.5646,-4.4598,-4.4598,-4.4598,-4.4215,-4.3595,-4.3595,-4.3267,-4.2777,0.0,0.0,0.0,-4.4547,-4.4598,-4.4462,-4.2354,-4.139,-4.1271,-3.9242,-3.8599,-3.9174,-3.9191,-3.9495,-4.0096,-4.0113,-3.9326,-3.7956,-3.7898,-3.7127,-3.565,-3.5616,-3.5616,-3.5616,-3.5616,-3.5532,-3.5334,-3.4061,-3.2747,-3.141,-3.0548,-3.0395,-3.097,-3.0869,-3.0159,-2.8805,-2.8163,-2.7164,-2.5862,-2.5218,-2.4897,-2.488,-2.4897,-2.4948,-2.51,-2.5659,-2.6048,-2.6218,-2.6776,-2.7418,-2.8145,-2.8196,-2.8534,-2.9331,-2.9956,-2.97,-2.8314,-2.9499,-3.0292,-3.0311,-3.0852,-3.119,-3.119,-3.119,-3.119,-3.119,-3.1309,-3.1413,-3.1393,-3.1529,-3.1884,-3.2378,-3.2649,-3.3123,-3.4273,-3.4573,-3.4692,-3.4692,-3.4742,-3.4273,-3.3404,-3.2734,-3.1848,-3.0407,-2.9851,-2.9606,-2.9729,-2.9816,-2.9771,-2.9801,-2.9235,-2.8801,-2.8667,-2.8113,-2.766,-2.7585,-2.7585,-2.7585,-2.7585,-2.7585,-2.7534,-2.7433,-2.7408,-2.6967,-2.5618,-2.5203,-2.4951,-4.4598,-4.4598,-4.4598,-4.4547,-4.4445,-4.4418,-4.435,-4.4242,-4.3792,-4.3544,-4.3623,-4.4282,-4.4598,-4.4513,-4.2861,-4.2134,-4.2033,-4.0519,-3.9859,-3.9943,-3.996,-3.9994,-4.0113,-4.0113,-3.9351,-3.799,-3.7898,-3.7087,-3.5752,-3.5616,-3.5616,-3.5616,-3.5616,-3.5278,-3.4624,-3.3829,-3.3,-3.2141,-3.0784,-3.0159,-3.0241,-2.9653,-2.889,-2.8027,-2.7891,-2.7401,-2.659,-2.6437,-2.6403,-2.6386,-2.637,-2.6674,-2.73,-2.7418,-2.7807,-2.8451,-2.8637,-2.901,-2.97,-2.9768,-3.0108,-3.0801,-3.0987,-3.0683,-2.9886,-3.0548,-3.1038,-3.1038,-3.1123,-3.119,-3.119,-3.1207,-3.1241,-3.1292,-3.1802,-3.2141,-3.2158,-3.2662,-3.3068,-3.322,-3.3829,-3.4189,-3.4506,-3.5047,-3.5346,-3.5397,-3.5233,-3.4767,-3.3172,-3.2112,-3.1571,-3.1099,-3.0262,-2.9931,-3.0253,-3.0372,-3.0313,-3.0357,-2.9789,-2.928,-2.9265,-2.8364,-2.7645,-2.7585,-2.7585,-2.7585,-2.7585,-2.7585,-2.7382,-2.6956,-2.6841,-2.6295,-2.4951,-2.458,-2.4221,-4.4598,-4.4598,-4.4598,-4.4598,-4.4598,-4.4598,-4.4598,-4.4581,-4.4215,-4.4045,-4.4079,-4.4462,-4.4598,-4.4429,-4.2557,-4.1711,-4.1627,-3.9749,-3.9123,-3.9503,-3.9503,-3.9723,-4.0079,-4.0113,-3.9351,-3.7973,-3.7898,-3.7087,-3.5718,-3.5616,-3.5616,-3.5616,-3.5616,-3.5228,-3.4523,-3.4167,-3.3423,-3.231,-3.1241,-3.0683,-3.0683,-3.0362,-3.0025,-2.9668,-2.9277,-2.8889,-2.8552,-2.8146,-2.7943,-2.7943,-2.796,-2.8095,-2.8433,-2.8821,-2.921,-2.9567,-2.9991,-3.0328,-3.0683,-3.0683,-3.0835,-3.1157,-3.119,-3.1055,-3.0734,-3.1004,-3.119,-3.119,-3.119,-3.1376,-3.1752,-3.1802,-3.1955,-3.2374,-3.2696,-3.2882,-3.2916,-3.3152,-3.3537,-3.3931,-3.4269,-3.4641,-3.5064,-3.538,-3.5397,-3.5109,-3.503,-3.4471,-3.3281,-3.2829,-3.2181,-3.1163,-3.0762,-3.0746,-3.0957,-3.0717,-3.0537,-3.0492,-2.9684,-2.9131,-2.8996,-2.8214,-2.7705,-2.7585,-2.7585,-2.7585,-2.7585,-2.7585,-2.7408,-2.728,-2.7086,-2.6496,-2.5315,-2.4279,-2.3531,-4.4598,-4.4598,-4.4598,-4.4598,-4.4598,-4.4598,-4.4598,-4.4598,-4.4598,-4.4598,-4.4598,-4.4598,-4.4598,-4.4395,-4.2388,-4.1457,-4.117,-3.9326,-3.87,-3.9216,-3.9242,-3.9546,-4.0062,-4.0113,-3.9326,-3.8058,-3.7898,-3.7104,-3.5769,-3.5616,-3.5616,-3.5616,-3.5616,-3.5312,-3.4759,-3.4573,-3.3846,-3.2598,-3.1819,-3.136,-3.119,-3.119,-3.119,-3.1157,-3.0649,-3.0345,-3.0328,-2.9805,-2.9517,-2.9484,-2.9501,-2.9501,-2.9517,-3.0023,-3.0362,-3.0376,-3.0886,-3.119,-3.119,-3.119,-3.119,-3.119,-3.119,-3.119,-3.119,-3.119,-3.119,-3.119,-3.1379,-3.1718,-3.2175,-3.2462,-3.2801,-3.3339,-3.3558,-3.366,-3.366,-3.3795,-3.41,-3.4658,-3.4759,-3.4996,-3.543,-3.5616,-3.5414,-3.4962,-3.4742,-3.4482,-3.3905,-3.3704,-3.283,-3.1637,-3.1189,-3.1152,-3.1241,-3.0866,-3.0477,-3.0342,-2.952,-2.8966,-2.8652,-2.8053,-2.7645,-2.7585,-2.7585,-2.7585,-2.7585,-2.7585,-2.7484,-2.728,-2.7178,-2.6785,-2.5301,-2.4034,-2.3185,-4.4598,-4.4598,-4.4598,-4.4598,-4.4598,-4.4598,-4.4598,-4.4598,-4.4598,-4.4598,-4.4598,-4.4598,-4.4598,-4.4378,-4.2895,-4.2151,-4.2033,-4.0578,-3.991,-3.996,-4.0011,-4.0045,-4.0113,-4.0113,-3.9326,-3.8075,-3.7956,-3.7195,-3.5735,-3.5616,-3.5616,-3.5616,-3.5616,-3.5566,-3.5414,-3.4844,-3.41,-3.3322,-3.256,-3.1887,-3.1224,-3.119,-3.119,-3.119,-3.1123,-3.1106,-3.1055,-3.1021,-3.097,-3.0987,-3.0937,-3.0954,-3.097,-3.1038,-3.1089,-3.1072,-3.1157,-3.119,-3.119,-3.119,-3.119,-3.119,-3.119,-3.119,-3.119,-3.1207,-3.119,-3.1309,-3.1836,-3.2192,-3.2344,-3.2899,-3.3372,-3.3592,-3.4083,-3.4404,-3.4455,-3.5013,-3.5414,-3.5464,-3.5414,-3.5532,-3.5583,-3.5616,-3.5566,-3.5436,-3.5346,-3.5172,-3.4584,-3.4023,-3.3453,-3.2392,-3.1506,-3.0773,-3.0702,-3.0597,-3.0328,-2.9879,-2.9609,-2.9205,-2.8682,-2.8124,-2.76,-2.7615,-2.7585,-2.7585,-2.7585,-2.756,-2.7382,-2.7034,-2.6733,-2.6215,-2.4781,-2.3796,-2.3275,-4.4598,-4.4598,-4.4598,-4.4598,-4.4598,-4.4598,-4.4598,-4.4598,-4.4598,-4.4598,-4.4598,-4.4598,-4.4598,-4.4496,-4.298,-4.2303,-4.2185,-4.079,-4.0113,-4.0113,-4.0113,-4.0113,-4.0113,-4.0113,-3.9554,-3.8616,-3.8548,-3.7787,-3.6451,-3.5819,-3.5616,-3.5616,-3.5616,-3.5616,-3.5566,-3.5295,-3.459,-3.344,-3.3102,-3.2391,-3.1343,-3.119,-3.119,-3.119,-3.119,-3.119,-3.119,-3.119,-3.119,-3.119,-3.119,-3.119,-3.119,-3.119,-3.119,-3.119,-3.119,-3.119,-3.119,-3.119,-3.119,-3.119,-3.119,-3.119,-3.1224,-3.1579,-3.1853,-3.1904,-3.2141,-3.2615,-3.3444,-3.3901,-3.4218,-3.4619,-3.4974,-3.5148,-3.5165,-3.5397,-3.56,-3.5616,-3.5616,-3.5616,-3.5616,-3.5616,-3.5616,-3.5616,-3.5616,-3.5447,-3.5184,-3.4616,-3.3962,-3.3255,-3.2361,-3.1612,-3.1159,-3.0731,-3.0432,-3.0148,-2.9804,-2.9355,-2.8771,-2.8427,-2.8109,-2.7705,-2.766,-2.7645,-2.7585,-2.7585,-2.7458,-2.706,-2.6628,-2.6162,-2.5147,-2.4337,-2.3767,-4.4598,-4.4598,-4.4598,-4.4598,-4.4598,-4.4598,-4.4598,-4.4598,-4.4598,-4.4598,-4.4598,-4.4598,-4.4598,-4.4412,-4.3183,-4.2506,-4.2134,-4.0976,-4.0299,-4.013,-4.0113,-4.0113,-4.0113,-4.0096,-3.9723,-3.9089,-3.8971,-3.8251,-3.6863,-3.5994,-3.5616,-3.5616,-3.5616,-3.5616,-3.5583,-3.5414,-3.467,-3.3525,-3.322,-3.2476,-3.136,-3.119,-3.119,-3.119,-3.119,-3.119,-3.119,-3.119,-3.119,-3.119,-3.119,-3.119,-3.119,-3.119,-3.119,-3.119,-3.119,-3.119,-3.119,-3.119,-3.119,-3.119,-3.119,-3.1292,-3.1529,-3.1989,-3.2479,-3.2919,-3.2919,-3.3461,-3.4273,-3.4675,-3.5047,-3.5532,-3.5616,-3.5616,-3.5583,-3.5616,-3.5616,-3.5616,-3.5616,-3.5616,-3.5616,-3.5616,-3.5616,-3.5616,-3.5616,-3.5616,-3.5515,-3.5028,-3.4382,-3.3896,-3.3156,-3.2312,-3.1623,-3.1152,-3.0763,-3.0447,-3.0088,-2.9669,-2.8966,-2.8801,-2.8562,-2.8109,-2.7944,-2.7779,-2.769,-2.766,-2.7735,-2.7503,-2.7034,-2.6416,-2.5824,-2.5105,-2.4366,-4.4598,-4.4598,-4.4598,-4.4598,-4.4598,-4.4598,-4.4598,-4.4598,-4.4598,-4.4598,-4.4598,-4.4598,-4.4598,-4.4547,-4.3724,-4.2963,-4.2252,-4.1424,-4.0663,-4.0146,-4.0113,-4.0113,-4.0113,-4.0096,-3.974,-3.9123,-3.9089,-3.8311,-3.688,-3.6028,-3.5616,-3.5616,-3.5616,-3.5616,-3.5515,-3.4996,-3.4201,-3.3457,-3.2814,-3.2022,-3.1292,-3.119,-3.119,-3.119,-3.119,-3.119,-3.119,-3.119,-3.119,-3.119,-3.119,-3.119,-3.119,-3.119,-3.119,-3.119,-3.119,-3.119,-3.119,-3.119,-3.1207,-3.1241,-3.1275,-3.1532,-3.2192,-3.2429,-3.3021,-3.4201,-3.4269,-3.4421,-3.459,-3.5115,-3.5464,-3.5583,-3.5616,-3.5616,-3.5616,-3.5616,-3.5616,-3.5616,-3.5616,-3.5616,-3.5616,-3.5616,-3.5616,-3.5616,-3.5616,-3.5616,-3.5532,-3.5052,-3.4664,-3.4235,-3.3427,-3.2355,-3.1682,-3.1361,-3.1077,-3.0836,-3.0582,-3.0253,-2.9639,-2.9101,-2.8816,-2.8577,-2.8562,-2.8378,-2.7959,-2.7854,-2.7989,-2.7746,-2.7144,-2.6575,-2.6256,-2.5783,-2.5035,-4.4598,-4.4598,-4.4598,-4.4598,-4.4598,-4.4598,-4.4598,-4.4598,-4.4598,-4.4598,-4.4598,-4.4598,-4.4598,-4.4581,-4.4282,-4.347,-4.2252,-4.1035,-4.0367,-4.0113,-4.0113,-4.0113,-4.0113,-4.0113,-3.9994,-3.9757,-3.9706,-3.892,-3.7567,-3.6721,-3.6096,-3.5667,-3.5616,-3.5616,-3.5549,-3.5329,-3.4641,-3.3487,-3.3119,-3.2408,-3.1326,-3.119,-3.119,-3.119,-3.119,-3.119,-3.119,-3.119,-3.119,-3.119,-3.119,-3.119,-3.119,-3.119,-3.119,-3.119,-3.119,-3.119,-3.119,-3.119,-3.1413,-3.187,-3.1904,-3.2205,-3.2916,-3.3427,-3.3952,-3.4421,-3.4979,-3.5182,-3.525,-3.5447,-3.5616,-3.5616,-3.5616,-3.5616,-3.5616,-3.5616,-3.5616,-3.5616,-3.5616,-3.5616,-3.5616,-3.5616,-3.5616,-3.5616,-3.5616,-3.5616,-3.5577,-3.5379,-3.4981,-3.4161,-3.3531,-3.2841,-3.164,-3.1496,-3.1391,-3.1271,-3.1047,-3.0748,-3.0283,-2.9983,-2.9714,-2.928,-2.922,-2.9175,-2.8828,-2.8353,-2.8412,-2.7853,-2.7251,-2.6904,-2.659,-2.6269,-2.5563,-4.4598,-4.4598,-4.4598,-4.4598,-4.4598,-4.4598,-4.4598,-4.4598,-4.4598,-4.4598,-4.4598,-4.4598,-4.4598,-4.4547,-4.4333,-4.369,-4.2591,-4.1373,-4.057,-4.013,-4.0113,-4.0113,-4.0113,-4.0113,-4.0113,-4.0045,-3.9842,-3.9097,-3.7939,-3.7144,-3.64,-3.565,-3.5616,-3.5616,-3.5549,-3.5143,-3.4438,-3.3761,-3.3068,-3.2239,-3.1579,-3.1309,-3.119,-3.119,-3.119,-3.119,-3.119,-3.119,-3.119,-3.119,-3.119,-3.119,-3.119,-3.119,-3.119,-3.119,-3.119,-3.119,-3.1224,-3.141,-3.1769,-3.2259,-3.2527,-3.2949,-3.3694,-3.4218,-3.4556,-3.4895,-3.5245,-3.5616,-3.5616,-3.56,-3.5616,-3.5616,-3.5616,-3.5616,-3.5616,-3.5616,-3.5616,-3.5616,-3.5616,-3.5616,-3.5616,-3.5616,-3.5616,-3.5616,-3.5616,-3.5616,-3.5616,-3.5577,-3.5247,-3.4178,-3.3761,-3.3093,-3.2188,-3.1768,-3.1582,-3.1435,-3.1361,-3.1122,-3.0928,-3.0731,-3.0447,-3.0043,-2.9879,-2.9879,-2.9609,-2.9086,-2.8547,-2.8004,-2.7603,-2.7265,-2.706,-2.693,-2.6203,-4.4598,-4.4598,-4.4598,-4.4598,-4.4598,-4.4598,-4.4598,-4.4598,-4.4598,-4.4598,-4.4598,-4.4598,-4.4598,-4.4479,-4.3961,-4.347,-4.3183,-4.2422,-4.1399,-4.0316,-4.0197,-4.0146,-4.0113,-4.0113,-4.0113,-4.0079,-3.9394,-3.8684,-3.7905,-3.7252,-3.6485,-3.5752,-3.5616,-3.5616,-3.5583,-3.4484,-3.3964,-3.3914,-3.2594,-3.1785,-3.2107,-3.1562,-3.119,-3.119,-3.119,-3.119,-3.119,-3.119,-3.119,-3.119,-3.119,-3.119,-3.119,-3.119,-3.119,-3.119,-3.119,-3.119,-3.1326,-3.1887,-3.2226,-3.2615,-3.3051,-3.3728,-3.437,-3.4573,-3.4861,-3.5368,-3.5549,-3.5616,-3.5616,-3.5616,-3.5616,-3.5616,-3.5616,-3.5616,-3.5616,-3.5616,-3.5616,-3.5616,-3.5616,-3.5616,-3.5616,-3.5616,-3.5616,-3.5616,-3.5616,-3.5616,-3.5616,-3.5616,-3.5293,-3.4664,-3.4112,-3.3521,-3.2745,-3.202,-3.1752,-3.1538,-3.1495,-3.1361,-3.1227,-3.1032,-3.0853,-3.0537,-3.0552,-3.0522,-3.0073,-2.9549,-2.8891,-2.8368,-2.8008,-2.7619,-2.7423,-2.7233,-2.7029,-4.4598,-4.4598,-4.4598,-4.4598,-4.4598,-4.4598,-4.4598,-4.4598,-4.4598,-4.4598,-4.4598,-4.4598,-4.4598,-4.4564,-4.4327,-4.3927,-4.3341,-4.2625,-4.1762,-4.0984,-4.0832,-4.0527,-4.0163,-4.0113,-4.0113,-4.0079,-3.9851,-3.9089,-3.8075,-3.7652,-3.6941,-3.5853,-3.5616,-3.5616,-3.5583,-3.5126,-3.4878,-3.437,-3.3339,-3.2628,-3.2293,-3.1579,-3.1207,-3.119,-3.119,-3.119,-3.119,-3.119,-3.119,-3.119,-3.119,-3.119,-3.119,-3.119,-3.119,-3.119,-3.119,-3.1444,-3.1904,-3.2192,-3.2784,-3.3558,-3.4032,-3.4506,-3.5126,-3.525,-3.5351,-3.5583,-3.5616,-3.5616,-3.5616,-3.5616,-3.5616,-3.5616,-3.5616,-3.5616,-3.5616,-3.5616,-3.5616,-3.5616,-3.5616,-3.5616,-3.5616,-3.5616,-3.5616,-3.5616,-3.5616,-3.5616,-3.5616,-3.5616,-3.5339,-3.4688,-3.4333,-3.3862,-3.305,-3.2339,-3.1979,-3.171,-3.1582,-3.1496,-3.1406,-3.1331,-3.1152,-3.1077,-3.1092,-3.0956,-3.0507,-2.9968,-2.9325,-2.8637,-2.8128,-2.7859,-2.772,-2.7597,-2.7473,-4.4598,-4.4598,-4.4598,-4.4598,-4.4598,-4.4598,-4.4598,-4.4598,-4.4598,-4.4598,-4.4598,-4.4598,-4.4598,-4.4598,-4.4598,-4.4316,-4.3809,-4.3318,-4.2591,-4.1593,-4.0933,-4.051,-4.013,-4.0113,-4.0113,-4.0113,-4.0096,-3.9478,-3.8345,-3.799,-3.7263,-3.6214,-3.5752,-3.5616,-3.5549,-3.5312,-3.5013,-3.4776,-3.3914,-3.3169,-3.2662,-3.2005,-3.1498,-3.1241,-3.119,-3.119,-3.119,-3.119,-3.119,-3.119,-3.119,-3.119,-3.119,-3.119,-3.119,-3.119,-3.1241,-3.1512,-3.2192,-3.2581,-3.3186,-3.4269,-3.4742,-3.5081,-3.5498,-3.5616,-3.5616,-3.5616,-3.5616,-3.5616,-3.5616,-3.5616,-3.5616,-3.5616,-3.5616,-3.5616,-3.5616,-3.5616,-3.5616,-3.5616,-3.5616,-3.5616,-3.5616,-3.5616,-3.5616,-3.5616,-3.5616,-3.5616,-3.5616,-3.5616,-3.5207,-3.4752,-3.4252,-3.3735,-3.3235,-3.268,-3.2188,-3.191,-3.1697,-3.1582,-3.1451,-3.1451,-3.1346,-3.1331,-3.1331,-3.1301,-3.0928,-3.0402,-2.9789,-2.9071,-2.8442,-2.8233,-2.8158,-2.8263,-2.8215,-4.4598,-4.4598,-4.4598,-4.4598,-4.4598,-4.4598,-4.4598,-4.4598,-4.4598,-4.4598,-4.4598,-4.4598,-4.4598,-4.4598,-4.4598,-4.4547,-4.4547,-4.4248,-4.3521,-4.2219,-4.1068,-4.0299,-4.013,-4.0113,-4.0113,-4.0113,-4.0113,-3.969,-3.887,-3.8328,-3.7567,-3.6721,-3.6079,-3.5633,-3.5532,-3.4912,-3.4996,-3.5261,-3.4201,-3.3525,-3.3423,-3.273,-3.2087,-3.1478,-3.1478,-3.1512,-3.1546,-3.1546,-3.1393,-3.1224,-3.1275,-3.136,-3.1292,-3.1258,-3.1326,-3.1478,-3.136,-3.185,-3.2425,-3.3119,-3.3795,-3.459,-3.516,-3.56,-3.56,-3.5616,-3.5667,-3.5808,-3.5785,-3.5785,-3.5853,-3.5921,-3.5921,-3.5785,-3.5735,-3.5633,-3.5616,-3.5667,-3.5825,-3.5808,-3.5701,-3.5785,-3.5955,-3.5938,-3.5887,-3.5791,-3.5808,-3.5802,-3.5616,-3.5532,-3.5293,-3.4911,-3.4512,-3.4301,-3.3987,-3.3453,-3.2971,-3.2516,-3.2132,-3.1768,-3.1553,-3.1496,-3.1496,-3.1496,-3.1496,-3.1481,-3.1271,-3.0717,-3.0253,-2.9714,-2.9205,-2.8816,-2.8742,-2.8891,-2.8969,-4.4598,-4.4598,-4.4598,-4.4598,-4.4598,-4.4598,-4.4598,-4.4598,-4.4598,-4.4598,-4.4598,-4.4598,-4.4598,-4.4598,-4.4598,-4.4598,-4.4496,-4.4028,-4.3606,-4.2963,-4.1593,-4.0612,-4.0197,-4.0113,-4.0113,-4.0113,-4.0079,-3.9706,-3.9022,-3.8768,-3.8041,-3.6846,-3.6569,-3.6146,-3.565,-3.538,-3.538,-3.5464,-3.4726,-3.4201,-3.4066,-3.3491,-3.3051,-3.2882,-3.278,-3.2763,-3.2814,-3.2831,-3.2256,-3.1309,-3.1752,-3.2005,-3.2005,-3.2022,-3.2209,-3.2611,-3.278,-3.3102,-3.3728,-3.4032,-3.4523,-3.5194,-3.5447,-3.56,-3.5616,-3.5616,-3.5893,-3.6282,-3.6485,-3.6705,-3.7127,-3.7229,-3.7239,-3.7138,-3.636,-3.5735,-3.5802,-3.6129,-3.6468,-3.6502,-3.6924,-3.7104,-3.7138,-3.7127,-3.6975,-3.6586,-3.6434,-3.6332,-3.6079,-3.587,-3.5811,-3.5571,-3.5264,-3.5115,-3.4823,-3.4309,-3.377,-3.3271,-3.2718,-3.2035,-3.1739,-3.1496,-3.1496,-3.1496,-3.1496,-3.1481,-3.1271,-3.0883,-3.0552,-3.0208,-2.9789,-2.9355,-2.9505,-2.9639,-2.9684,-4.4598,-4.4598,-4.4598,-4.4598,-4.4598,-4.4598,-4.4598,-4.4598,-4.4598,-4.4598,-4.4598,-4.4598,-4.4598,-4.4598,-4.4598,-4.4598,-4.453,-4.4113,-4.3555,-4.2692,-4.1373,-4.0519,-4.0163,-4.0113,-4.0113,-4.0113,-4.0113,-3.9876,-3.9486,-3.9157,-3.8505,-3.7794,-3.71,-3.6535,-3.6163,-3.5718,-3.5616,-3.5532,-3.5165,-3.4844,-3.4472,-3.4083,-3.3694,-3.3491,-3.3389,-3.3389,-3.3423,-3.3677,-3.3305,-3.2476,-3.251,-3.2747,-3.2747,-3.2767,-3.2966,-3.3389,-3.3389,-3.3711,-3.432,-3.4489,-3.4844,-3.5414,-3.5616,-3.5802,-3.6045,-3.6113,-3.6434,-3.7127,-3.7229,-3.7483,-3.777,-3.7898,-3.7898,-3.7736,-3.7094,-3.6563,-3.6586,-3.7009,-3.7212,-3.7364,-3.7618,-3.7922,-3.7922,-3.7939,-3.7719,-3.7381,-3.7246,-3.7043,-3.6789,-3.658,-3.6462,-3.636,-3.6142,-3.5976,-3.5719,-3.5241,-3.431,-3.3799,-3.2905,-3.2264,-3.1991,-3.163,-3.1496,-3.1496,-3.1496,-3.1451,-3.1286,-3.1107,-3.0853,-3.0537,-3.0178,-3.0043,-3.0148,-3.0223,-3.0283,-4.4598,-4.4598,-4.4598,-4.4598,-4.4598,-4.4598,-4.4598,-4.4598,-4.4598,-4.4598,-4.4598,-4.4598,-4.4598,-4.4598,-4.4598,-4.4598,-4.4598,-4.4513,-4.3701,-4.2557,-4.1288,-4.0519,-4.0367,-4.0146,-4.0113,-4.0113,-4.0113,-4.0079,-3.9876,-3.9419,-3.9114,-3.8572,-3.7516,-3.6931,-3.6535,-3.5977,-3.5633,-3.5616,-3.5549,-3.5233,-3.4827,-3.4624,-3.4387,-3.3977,-3.3892,-3.3858,-3.3964,-3.4252,-3.4269,-3.366,-3.3575,-3.3508,-3.3508,-3.3525,-3.3643,-3.3761,-3.388,-3.4117,-3.4506,-3.4726,-3.4979,-3.5673,-3.5802,-3.6079,-3.6688,-3.6931,-3.7195,-3.7956,-3.8007,-3.8125,-3.8311,-3.8244,-3.8328,-3.8362,-3.8176,-3.8142,-3.8125,-3.8058,-3.8024,-3.8058,-3.8075,-3.8142,-3.8142,-3.8125,-3.8125,-3.8091,-3.7956,-3.777,-3.7533,-3.7324,-3.7358,-3.7442,-3.7189,-3.6854,-3.6551,-3.6199,-3.5123,-3.4156,-3.3043,-3.2344,-3.2238,-3.1914,-3.163,-3.1496,-3.1496,-3.1496,-3.1451,-3.1271,-3.1077,-3.0957,-3.0717,-3.0642,-3.0642,-3.0717,-3.0776,-4.4598,-4.4598,-4.4598,-4.4598,-4.4598,-4.4598,-4.4598,-4.4598,-4.4598,-4.4598,-4.4598,-4.4598,-4.4598,-4.4598,-4.4598,-4.4598,-4.4581,-4.453,-4.4028,-4.32,-4.2286,-4.1474,-4.0933,-4.0375,-4.0113,-4.0113,-4.0113,-4.0113,-4.0011,-3.9893,-3.9571,-3.892,-3.8193,-3.7381,-3.6823,-3.618,-3.5616,-3.5616,-3.5616,-3.5532,-3.538,-3.5301,-3.5216,-3.4991,-3.5025,-3.5076,-3.5126,-3.5301,-3.5278,-3.5025,-3.459,-3.4252,-3.4269,-3.4269,-3.4489,-3.4839,-3.5025,-3.5143,-3.5295,-3.5385,-3.569,-3.6315,-3.6535,-3.684,-3.7567,-3.7669,-3.8007,-3.8582,-3.8785,-3.8971,-3.9385,-3.9588,-3.9503,-3.9453,-3.9462,-3.9495,-3.9495,-3.9114,-3.8802,-3.8853,-3.9233,-3.9605,-3.9546,-3.9486,-3.9259,-3.8903,-3.865,-3.8481,-3.8311,-3.8142,-3.8227,-3.8396,-3.7969,-3.7567,-3.7124,-3.6637,-3.5526,-3.4553,-3.3451,-3.2677,-3.2572,-3.2302,-3.2004,-3.1735,-3.1496,-3.1511,-3.1555,-3.1481,-3.1301,-3.1256,-3.1212,-3.1137,-3.1092,-3.1167,-3.1152,-4.4598,-4.4598,-4.4598,-4.4598,-4.4598,-4.4598,-4.4598,-4.4598,-4.4598,-4.4598,-4.4598,-4.4598,-4.4598,-4.4598,-4.4598,-4.4598,-4.4496,-4.4164,-4.3826,-4.3183,-4.232,-4.1576,-4.1153,-4.0493,-4.0113,-4.0113,-4.0113,-4.0113,-4.0113,-4.0079,-3.9876,-3.9478,-3.8768,-3.8294,-3.7669,-3.6721,-3.6248,-3.6096,-3.5791,-3.5616,-3.5616,-3.5616,-3.5616,-3.5616,-3.5616,-3.5616,-3.5566,-3.5583,-3.56,-3.5498,-3.5233,-3.5013,-3.503,-3.503,-3.525,-3.5498,-3.5616,-3.5616,-3.5616,-3.5977,-3.6332,-3.6795,-3.7094,-3.7702,-3.821,-3.8413,-3.8768,-3.9317,-3.9554,-3.9723,-4.0062,-4.0079,-4.0113,-4.0113,-4.0113,-4.0113,-4.0045,-3.9757,-3.9537,-3.9588,-3.9825,-3.9977,-4.0096,-4.0113,-4.0028,-3.9445,-3.9445,-3.9309,-3.936,-3.9208,-3.914,-3.91,-3.8639,-3.8181,-3.7715,-3.6944,-3.584,-3.494,-3.3999,-3.3442,-3.3155,-3.2826,-3.2452,-3.2183,-3.1944,-3.1675,-3.1675,-3.16,-3.1511,-3.1421,-3.1391,-3.1466,-3.1466,-3.1361,-3.1346,-4.4598,-4.4598,-4.4598,-4.4598,-4.4598,-4.4598,-4.4598,-4.4598,-4.4598,-4.4598,-4.4598,-4.4598,-4.4598,-4.4598,-4.4598,-4.4598,-4.4445,-4.4062,-4.3758,-4.3555,-4.2236,-4.1677,-4.1271,-4.0612,-4.0113,-4.0113,-4.0113,-4.0113,-4.0113,-4.0096,-4.0045,-3.9926,-3.9326,-3.8853,-3.8582,-3.7702,-3.6863,-3.6643,-3.618,-3.5752,-3.5633,-3.5616,-3.5616,-3.5616,-3.5616,-3.5616,-3.5616,-3.5616,-3.5616,-3.5616,-3.5616,-3.5616,-3.5616,-3.5616,-3.5616,-3.5616,-3.5616,-3.5718,-3.5994,-3.64,-3.6829,-3.7049,-3.7669,-3.8396,-3.8954,-3.9174,-3.9428,-3.9774,-4.0011,-4.0011,-4.0113,-4.0113,-4.0113,-4.0113,-4.0113,-4.0113,-4.0113,-4.0113,-4.0028,-4.0045,-4.0028,-4.0079,-4.0113,-4.0113,-4.0113,-4.0113,-4.0113,-4.0113,-4.0113,-4.0062,-3.9842,-3.9732,-3.9312,-3.8826,-3.8315,-3.7174,-3.6072,-3.5487,-3.4592,-3.424,-3.3933,-3.3888,-3.3574,-3.2826,-3.2467,-3.2183,-3.1854,-3.166,-3.1585,-3.1525,-3.1496,-3.1496,-3.1496,-3.1496,-3.1555,-4.4598,-4.4598,-4.4598,-4.4598,-4.4598,-4.4598,-4.4598,-4.4598,-4.4598,-4.4598,-4.4598,-4.4598,-4.4598,-4.4598,-4.4598,-4.4598,-4.453,-4.4299,-4.4282,-4.4028,-4.2828,-4.2134,-4.1897,-4.0815,-4.0231,-4.0113,-4.0113,-4.0113,-4.0113,-4.0113,-4.0113,-3.9943,-3.9436,-3.9073,-3.887,-3.8142,-3.7449,-3.7134,-3.6738,-3.6366,-3.5955,-3.5836,-3.5836,-3.5819,-3.5802,-3.5718,-3.565,-3.5633,-3.5616,-3.5616,-3.5616,-3.565,-3.5769,-3.5769,-3.5735,-3.5616,-3.5701,-3.5938,-3.6417,-3.6761,-3.7523,-3.8261,-3.8734,-3.9106,-3.9631,-3.9859,-3.991,-3.9994,-4.0113,-4.0113,-4.0113,-4.0113,-4.013,-4.0113,-4.018,-4.0231,-4.0231,-4.0214,-4.0299,-4.0417,-4.0299,-4.0113,-4.0113,-4.0113,-4.0113,-4.0113,-4.0113,-4.0113,-4.0113,-4.0113,-4.0028,-3.9986,-3.9961,-3.9432,-3.8917,-3.7511,-3.6367,-3.6045,-3.5427,-3.511,-3.4951,-3.513,-3.4801,-3.3918,-3.3155,-3.2677,-3.2288,-3.1959,-3.1869,-3.1974,-3.1765,-3.157,-3.1809,-3.2034,-3.1839,-4.4598,-4.4598,-4.4598,-4.4598,-4.4598,-4.4598,-4.4598,-4.4598,-4.4598,-4.4598,-4.4598,-4.4598,-4.4598,-4.4598,-4.4598,-4.4598,-4.4598,-4.4598,-4.4598,-4.431,-4.3436,-4.2861,-4.2675,-4.1339,-4.0815,-4.0561,-4.0333,-4.0113,-4.0113,-4.0113,-4.0113,-4.0028,-3.9706,-3.9588,-3.9419,-3.8836,-3.8328,-3.7895,-3.7557,-3.7178,-3.6806,-3.6749,-3.6749,-3.6721,-3.64,-3.6248,-3.6146,-3.5735,-3.5836,-3.6146,-3.6231,-3.6434,-3.6631,-3.6688,-3.6434,-3.587,-3.6011,-3.6349,-3.6965,-3.7405,-3.8352,-3.8877,-3.9317,-3.969,-3.9977,-4.0079,-4.0113,-4.0113,-4.0113,-4.0113,-4.0113,-4.013,-4.0299,-4.0595,-4.0663,-4.0857,-4.1001,-4.0832,-4.0891,-4.0925,-4.0587,-4.0333,-4.0113,-4.0113,-4.0113,-4.0113,-4.0113,-4.0113,-4.0113,-4.0113,-4.0113,-4.002,-3.9901,-3.9193,-3.8674,-3.7671,-3.6584,-3.6244,-3.5911,-3.5604,-3.5489,-3.5459,-3.5325,-3.4831,-3.4113,-3.341,-3.3051,-3.2826,-3.2617,-3.2452,-3.2512,-3.2572,-3.2572,-3.2557,-3.2378,-4.4598,-4.4598,-4.4598,-4.4598,-4.4598,-4.4598,-4.4598,-4.4598,-4.4598,-4.4598,-4.4598,-4.4598,-4.4598,-4.4598,-4.4598,-4.4598,-4.4598,-4.4598,-4.4598,-4.4445,-4.3741,-4.3341,-4.3003,-4.2219,-4.1322,-4.0984,-4.0679,-4.0248,-4.0113,-4.0113,-4.0113,-4.0079,-4.0096,-4.0113,-3.9893,-3.9486,-3.9242,-3.8836,-3.8481,-3.8108,-3.7939,-3.7898,-3.7898,-3.7905,-3.7313,-3.7009,-3.6941,-3.6569,-3.6552,-3.6857,-3.706,-3.7286,-3.777,-3.7882,-3.733,-3.6434,-3.6705,-3.7015,-3.7557,-3.8142,-3.8928,-3.9351,-3.9774,-4.0011,-4.0096,-4.0113,-4.0113,-4.0113,-4.0113,-4.0248,-4.0383,-4.0341,-4.0713,-4.1221,-4.1457,-4.1559,-4.1779,-4.1779,-4.1677,-4.1484,-4.0959,-4.0705,-4.062,-4.0113,-4.0113,-4.0113,-4.0113,-4.0113,-4.0113,-4.0113,-4.007,-3.9952,-3.961,-3.8799,-3.8185,-3.7716,-3.6828,-3.6306,-3.5911,-3.5554,-3.5489,-3.5489,-3.534,-3.5235,-3.5026,-3.4382,-3.4023,-3.3559,-3.3215,-3.3095,-3.338,-3.3395,-3.314,-3.3095,-3.3051,-4.4598,-4.4598,-4.4598,-4.4598,-4.4598,-4.4598,-4.4598,-4.4598,-4.4598,-4.4598,-4.4598,-4.4598,-4.4598,-4.4598,-4.4598,-4.4598,-4.4598,-4.4598,-4.4598,-4.4496,-4.3893,-4.3538,-4.3352,-4.2608,-4.183,-4.1407,-4.1119,-4.0679,-4.0265,-4.0113,-4.0113,-4.0113,-4.0113,-4.0113,-4.0079,-3.991,-3.9656,-3.9106,-3.892,-3.8582,-3.8125,-3.8058,-3.8058,-3.8007,-3.7872,-3.777,-3.7753,-3.7483,-3.755,-3.7702,-3.777,-3.7821,-3.7898,-3.7898,-3.7848,-3.7702,-3.7804,-3.8041,-3.8514,-3.892,-3.9351,-3.9723,-4.0045,-4.0096,-4.0248,-4.0333,-4.035,-4.0113,-4.0197,-4.0536,-4.0967,-4.1068,-4.1474,-4.1863,-4.2185,-4.2236,-4.2388,-4.2489,-4.2405,-4.2337,-4.1941,-4.1559,-4.1339,-4.0671,-4.0113,-4.0113,-4.0113,-4.013,-4.0113,-4.0113,-4.0113,-4.002,-3.9876,-3.9113,-3.8314,-3.7761,-3.7071,-3.6461,-3.591,-3.5504,-3.5489,-3.5489,-3.5489,-3.5385,-3.528,-3.5115,-3.4622,-3.4128,-3.3709,-3.3724,-3.4008,-3.3814,-3.3469,-3.3529,-3.3769,-4.4598,-4.4598,-4.4598,-4.4598,-4.4598,-4.4598,-4.4598,-4.4598,-4.4598,-4.4598,-4.4598,-4.4598,-4.4598,-4.4598,-4.4598,-4.4598,-4.4598,-4.4598,-4.4598,-4.4598,-4.4215,-4.4045,-4.391,-4.3301,-4.2557,-4.1897,-4.1339,-4.073,-4.035,-4.0146,-4.0113,-4.0113,-4.0113,-4.0113,-4.0113,-4.0113,-3.9943,-3.9723,-3.9622,-3.9445,-3.9225,-3.9123,-3.9123,-3.9106,-3.8734,-3.8548,-3.8447,-3.8075,-3.8176,-3.8362,-3.8514,-3.8751,-3.9022,-3.9157,-3.9157,-3.914,-3.914,-3.9106,-3.9022,-3.9377,-3.974,-3.996,-4.0146,-4.0282,-4.0629,-4.1052,-4.1271,-4.1365,-4.1365,-4.1508,-4.1711,-4.1813,-4.2252,-4.2642,-4.2929,-4.32,-4.3234,-4.3014,-4.3014,-4.2963,-4.2895,-4.2489,-4.2066,-4.1457,-4.0781,-4.0417,-4.0383,-4.0333,-4.0231,-4.0113,-4.0113,-4.007,-3.9952,-3.9662,-3.8843,-3.8133,-3.7403,-3.6724,-3.5923,-3.5599,-3.5504,-3.5489,-3.5489,-3.5489,-3.5415,-3.5235,-3.4996,-3.4861,-3.4577,-3.4592,-3.4651,-3.4457,-3.4322,-3.4562,-3.4756,-4.4598,-4.4598,-4.4598,-4.4598,-4.4598,-4.4598,-4.4598,-4.4598,-4.4598,-4.4598,-4.4598,-4.4598,-4.4598,-4.4598,-4.4598,-4.4598,-4.4598,-4.4598,-4.4598,-4.4598,-4.4598,-4.4547,-4.4333,-4.3859,-4.3318,-4.2574,-4.2202,-4.1542,-4.0967,-4.0688,-4.0637,-4.0146,-4.0113,-4.0113,-4.0113,-4.0113,-4.0045,-4.0028,-4.0028,-3.9994,-3.9977,-4.0011,-4.0011,-3.9893,-3.9622,-3.9283,-3.9199,-3.8853,-3.887,-3.9106,-3.9259,-3.9478,-3.9842,-3.9876,-3.9893,-3.9893,-3.9876,-3.974,-3.9622,-3.9757,-4.0045,-4.0163,-4.0417,-4.0747,-4.1407,-4.2033,-4.2286,-4.21,-4.2117,-4.2252,-4.2506,-4.2574,-4.298,-4.3386,-4.3724,-4.4113,-4.4333,-4.3893,-4.369,-4.3758,-4.3623,-4.3301,-4.2828,-4.2286,-4.1627,-4.0925,-4.0671,-4.062,-4.0603,-4.0553,-4.0654,-4.0806,-4.0788,-4.0536,-3.9792,-3.8906,-3.8052,-3.711,-3.6278,-3.5857,-3.5881,-3.5654,-3.5489,-3.5489,-3.5534,-3.5415,-3.525,-3.537,-3.5474,-3.525,-3.51,-3.528,-3.534,-3.5489,-3.5459,-4.4598,-4.4598,-4.4598,-4.4598,-4.4598,-4.4598,-4.4598,-4.4598,-4.4598,-4.4598,-4.4598,-4.4598,-4.4598,-4.4598,-4.4598,-4.4598,-4.4598,-4.4598,-4.4598,-4.4598,-4.4598,-4.4598,-4.4513,-4.4361,-4.4012,-4.3352,-4.2946,-4.2574,-4.2202,-4.1745,-4.1162,-4.0316,-4.0519,-4.0265,-4.0282,-4.0502,-4.0468,-4.0417,-4.0324,-4.0231,-4.0197,-4.0163,-4.0113,-4.0113,-4.0045,-4.0028,-4.0011,-3.9791,-3.9723,-3.9876,-3.9859,-3.9876,-4.0062,-4.0113,-4.0113,-4.0113,-4.0113,-4.0045,-4.0113,-4.0163,-4.0163,-4.0333,-4.0798,-4.1542,-4.2168,-4.2252,-4.2354,-4.2557,-4.2743,-4.2878,-4.3149,-4.3403,-4.3707,-4.3961,-4.4198,-4.4299,-4.453,-4.4496,-4.4361,-4.453,-4.4344,-4.391,-4.3724,-4.3183,-4.2405,-4.1687,-4.1517,-4.1457,-4.161,-4.1627,-4.17,-4.1791,-4.1842,-4.1563,-4.0925,-3.9949,-3.8666,-3.7808,-3.7053,-3.6646,-3.6465,-3.6118,-3.5729,-3.5624,-3.5669,-3.5579,-3.5489,-3.5489,-3.5489,-3.5489,-3.5489,-3.5489,-3.5489,-3.5489,-3.5489,-4.4598,-4.4598,-4.4598,-4.4598,-4.4598,-4.4598,-4.4598,-4.4598,-4.4598,-4.4598,-4.4598,-4.4598,-4.4598,-4.4598,-4.4598,-4.4598,-4.4598,-4.4598,-4.4598,-4.4598,-4.4598,-4.4598,-4.4598,-4.4479,-4.4181,-4.3606,-4.3375,-4.3014,-4.2303,-4.2455,-4.2117,-4.1568,-4.1484,-4.1484,-4.1484,-4.1305,-4.1365,-4.1264,-4.0984,-4.0764,-4.0679,-4.0299,-4.0113,-4.0113,-4.0113,-4.0113,-4.0096,-4.0096,-4.0096,-4.013,-4.0146,-4.0146,-4.0113,-4.0113,-4.013,-4.0163,-4.018,-4.0383,-4.0713,-4.0815,-4.0967,-4.1542,-4.2117,-4.2675,-4.2997,-4.3352,-4.365,-4.3752,-4.3606,-4.3741,-4.3978,-4.413,-4.431,-4.4513,-4.4598,-4.4598,-4.4598,-4.4598,-4.4598,-4.4598,-4.4581,-4.4395,-4.4248,-4.413,-4.3267,-4.2472,-4.2388,-4.2327,-4.2382,-4.2324,-4.2255,-4.2005,-4.1938,-4.1584,-4.0945,-4.0016,-3.9092,-3.8483,-3.7861,-3.7406,-3.7015,-3.6522,-3.6193,-3.6028,-3.5804,-3.5699,-3.5609,-3.5519,-3.5489,-3.5489,-3.5489,-3.5489,-3.5489,-3.5489,-3.5489,-4.4598,-4.4598,-4.4598,-4.4598,-4.4598,-4.4598,-4.4598,-4.4598,-4.4598,-4.4598,-4.4598,-4.4598,-4.4598,-4.4598,-4.4598,-4.4598,-4.4598,-4.4598,-4.4598,-4.4598,-4.4598,-4.4598,-4.4598,-4.453,-4.4333,-4.3826,-4.3724,-4.3453,-4.3176,-4.3014,-4.3014,-4.3014,-4.2929,-4.2794,-4.2202,-4.2303,-4.2303,-4.2134,-4.188,-4.1542,-4.1441,-4.1102,-4.0857,-4.0874,-4.0908,-4.0925,-4.0942,-4.0959,-4.0739,-4.0595,-4.0443,-4.0333,-4.0197,-4.013,-4.0214,-4.0324,-4.0493,-4.0781,-4.1305,-4.1593,-4.188,-4.2489,-4.2929,-4.3358,-4.3842,-4.4265,-4.4344,-4.4445,-4.4513,-4.4598,-4.4598,-4.4513,-4.4479,-4.4598,-4.4598,-4.4598,-4.4598,-4.4598,-4.4598,-4.4598,-4.4581,-4.4564,-4.453,-4.4384,-4.4062,-4.3464,-4.3498,-4.3176,-4.2779,-4.2637,-4.2365,-4.2029,-4.1624,-4.1179,-4.0637,-4.0149,-3.9705,-3.9429,-3.8769,-3.8034,-3.7554,-3.7075,-3.6776,-3.6686,-3.6402,-3.5953,-3.5774,-3.5744,-3.5624,-3.5489,-3.5489,-3.5489,-3.5489,-3.5489,-3.5489,-4.4598,-4.4598,-4.4598,-4.4598,-4.4598,-4.4598,-4.4598,-4.4598,-4.4598,-4.4598,-4.4598,-4.4598,-4.4598,-4.4598,-4.4598,-4.4598,-4.4598,-4.4598,-4.4598,-4.4598,-4.4598,-4.4598,-4.4598,-4.4564,-4.453,-4.4581,-4.4412,-4.4293,-4.4327,-4.4158,-4.4259,-4.4293,-4.4056,-4.3701,-4.2455,-4.2337,-4.2337,-4.2337,-4.2371,-4.2286,-4.2236,-4.2049,-4.1914,-4.188,-4.1847,-4.1813,-4.1796,-4.1796,-4.1559,-4.1255,-4.1187,-4.0933,-4.0553,-4.0451,-4.0671,-4.1119,-4.117,-4.1542,-4.2185,-4.2252,-4.2743,-4.3284,-4.3639,-4.3826,-4.4316,-4.4598,-4.4598,-4.4598,-4.4598,-4.4598,-4.4598,-4.4598,-4.4598,-4.4598,-4.4598,-4.4598,-4.4598,-4.4598,-4.4598,-4.4598,-4.4598,-4.4598,-4.4598,-4.4581,-4.4564,-4.4429,-4.453,-4.4118,-4.3361,-4.3127,-4.2857,-4.1904,-4.142,-4.1087,-4.0684,-4.0602,-4.0337,-4.0124,-3.9631,-3.8757,-3.8182,-3.7764,-3.7524,-3.7375,-3.6971,-3.6507,-3.6207,-3.5983,-3.5789,-3.5609,-3.5519,-3.5489,-3.5489,-3.5489,-3.5489,-4.4598,-4.4598,-4.4598,-4.4598,-4.4598,-4.4598,-4.4598,-4.4598,-4.4598,-4.4598,-4.4598,-4.4598,-4.4598,-4.4598,-4.4598,-4.4598,-4.4598,-4.4598,-4.4598,-4.4598,-4.4598,-4.4598,-4.4598,-4.4598,-4.4598,-4.4598,-4.4598,-4.4598,-4.453,-4.4598,-4.4598,-4.4598,-4.4564,-4.4344,-4.3972,-4.3819,-4.3853,-4.3752,-4.3403,-4.3031,-4.298,-4.2625,-4.2388,-4.2405,-4.2422,-4.2439,-4.2455,-4.2506,-4.2286,-4.1982,-4.1931,-4.1728,-4.1467,-4.1407,-4.1593,-4.1897,-4.1948,-4.2286,-4.298,-4.342,-4.3876,-4.4096,-4.4147,-4.4231,-4.4581,-4.4598,-4.4598,-4.4598,-4.4598,-4.4598,-4.4598,-4.4598,-4.4598,-4.4598,-4.4598,-4.4598,-4.4598,-4.4598,-4.4598,-4.4598,-4.4598,-4.4598,-4.4598,-4.4598,-4.4598,-4.4598,-4.4598,-4.4121,-4.3413,-4.3635,-4.3552,-4.2043,-4.1223,-4.0953,-4.0672,-4.0309,-4.008,-3.9798,-3.9592,-3.9298,-3.8796,-3.8392,-3.8212,-3.8048,-3.7554,-3.7075,-3.6791,-3.6477,-3.5983,-3.5729,-3.5699,-3.5579,-3.5489,-3.5489,-3.5489,-4.4598,-4.4598,-4.4598,-4.4598,-4.4598,-4.4598,-4.4598,-4.4598,-4.4598,-4.4598,-4.4598,-4.4598,-4.4598,-4.4598,-4.4598,-4.4598,-4.4598,-4.4598,-4.4598,-4.4598,-4.4598,-4.4598,-4.4598,-4.4598,-4.4598,-4.4598,-4.4598,-4.4598,-4.4598,-4.4598,-4.4598,-4.4598,-4.4598,-4.453,-4.4479,-4.4462,-4.4479,-4.4327,-4.3978,-4.3826,-4.3707,-4.3453,-4.3193,-4.321,-4.321,-4.3193,-4.3132,-4.3047,-4.2956,-4.2777,-4.2658,-4.254,-4.2439,-4.232,-4.2422,-4.2574,-4.3031,-4.3318,-4.3859,-4.413,-4.4401,-4.4513,-4.4598,-4.4598,-4.4598,-4.4598,-4.4598,-4.4598,-4.4598,-4.4598,-4.4598,-4.4598,-4.4598,-4.4598,-4.4598,-4.4598,-4.4598,-4.4598,-4.4598,-4.4598,-4.4598,-4.4598,-4.4598,-4.4598,-4.4598,-4.4598,-4.457,-4.4006,-4.3443,-4.3562,-4.338,-4.1885,-4.0758,-4.0378,-4.006,-3.9737,-3.9553,-3.9424,-3.9388,-3.9409,-3.932,-3.8916,-3.8811,-3.8661,-3.8167,-3.7719,-3.7375,-3.7,-3.6567,-3.6207,-3.5998,-3.5818,-3.5564,-3.5489,-3.5489,-4.4598,-4.4598,-4.4598,-4.4598,-4.4598,-4.4598,-4.4598,-4.4598,-4.4598,-4.4598,-4.4598,-4.4598,-4.4598,-4.4598,-4.4598,-4.4598,-4.4598,-4.4598,-4.4598,-4.4598,-4.4598,-4.4598,-4.4598,-4.4598,-4.4598,-4.4598,-4.4598,-4.4598,-4.4598,-4.4598,-4.4598,-4.4598,-4.4598,-4.4598,-4.4598,-4.4598,-4.4598,-4.453,-4.4479,-4.4333,-4.4231,-4.4361,-4.4192,-4.4175,-4.4192,-4.4192,-4.4209,-4.4225,-4.3927,-4.369,-4.3453,-4.3031,-4.2675,-4.2388,-4.2844,-4.3386,-4.4113,-4.4327,-4.4445,-4.4564,-4.4581,-4.4598,-4.4598,-4.4598,-4.4598,-4.4598,-4.4598,-4.4598,-4.4598,-4.4598,-4.4598,-4.4598,-4.4598,-4.4598,-4.4598,-4.4598,-4.4598,-4.4598,-4.4598,-4.4598,-4.4598,-4.4598,-4.4598,-4.4598,-4.457,-4.4468,-4.4384,-4.3902,-4.3366,-4.2925,-4.2489,-4.1113,-4.0185,-3.9737,-3.9481,-3.9424,-3.9388,-3.9388,-3.9388,-3.9388,-3.9343,-3.9328,-3.92,-3.8975,-3.8706,-3.8332,-3.7868,-3.7524,-3.7225,-3.6881,-3.6537,-3.6013,-3.5729,-3.5534,-3.5489,-4.4598,-4.4598,-4.4598,-4.4598,-4.4598,-4.4598,-4.4598,-4.4598,-4.4598,-4.4598,-4.4598,-4.4598,-4.4598,-4.4598,-4.4598,-4.4598,-4.4598,-4.4598,-4.4598,-4.4598,-4.4598,-4.4598,-4.4598,-4.4598,-4.4598,-4.4598,-4.4598,-4.4598,-4.4598,-4.4598,-4.4598,-4.4598,-4.4598,-4.4598,-4.4598,-4.4598,-4.4598,-4.4598,-4.4598,-4.4598,-4.4598,-4.4598,-4.4598,-4.4598,-4.4598,-4.4598,-4.4598,-4.4598,-4.4333,-4.4265,-4.4215,-4.4039,-4.4039,-4.3955,-4.4147,-4.4209,-4.4479,-4.4581,-4.4598,-4.4598,-4.4598,-4.4598,-4.4598,-4.4598,-4.4598,-4.4598,-4.4598,-4.4598,-4.4598,-4.4598,-4.4598,-4.4598,-4.4598,-4.4598,-4.4598,-4.4598,-4.4598,-4.4598,-4.4598,-4.4598,-4.4598,-4.4598,-4.4598,-4.4598,-4.457,-4.4412,-4.4167,-4.3785,-4.3199,-4.2693,-4.1933,-4.0603,-3.999,-3.9666,-3.9481,-3.9388,-3.9388,-3.9388,-3.9388,-3.9388,-3.9373,-3.9373,-3.9388,-3.9254,-3.9035,-3.8676,-3.8257,-3.8018,-3.7913,-3.7464,-3.7075,-3.6447,-3.5923,-3.5789,-3.5729,-4.4598,-4.4598,-4.4598,-4.4598,-4.4598,-4.4598,-4.4598,-4.4598,-4.4598,-4.4598,-4.4598,-4.4598,-4.4598,-4.4598,-4.4598,-4.4598,-4.4598,-4.4598,-4.4598,-4.4598,-4.4598,-4.4598,-4.4598,-4.4598,-4.4598,-4.4598,-4.4598,-4.4598,-4.4598,-4.4598,-4.4598,-4.4598,-4.4598,-4.4598,-4.4598,-4.4598,-4.4598,-4.4598,-4.4598,-4.4598,-4.4598,-4.4598,-4.4598,-4.4598,-4.4598,-4.4598,-4.4598,-4.4598,-4.4598,-4.4598,-4.4598,-4.4598,-4.4581,-4.4564,-4.4564,-4.4547,-4.4564,-4.4598,-4.4598,-4.4598,-4.4598,-4.4598,-4.4598,-4.4598,-4.4598,-4.4598,-4.4598,-4.4598,-4.4598,-4.4598,-4.4598,-4.4598,-4.4598,-4.4598,-4.4598,-4.4598,-4.4598,-4.4598,-4.4598,-4.4598,-4.4598,-4.4598,-4.4598,-4.4598,-4.457,-4.4514,-4.4281,-4.3919,-4.3108,-4.2205,-4.1543,-4.0554,-4.0115,-3.9758,-3.9574,-3.9388,-3.9388,-3.9388,-3.9388,-3.9388,-3.9388,-3.9388,-3.9388,-3.9388,-3.9358,-3.9035,-3.8706,-3.8751,-3.8631,-3.8167,-3.7734,-3.73,-3.6746,-3.6267,-3.6222,-4.4598,-4.4598,-4.4598,-4.4598,-4.4598,-4.4598,-4.4598,-4.4598,-4.4598,-4.4598,-4.4598,-4.4598,-4.4598,-4.4598,-4.4598,-4.4598,-4.4598,-4.4598,-4.4598,-4.4598,-4.4598,-4.4598,-4.4598,-4.4598,-4.4598,-4.4598,-4.4598,-4.4598,-4.4598,-4.4598,-4.4598,-4.4598,-4.4598,-4.4598,-4.4598,-4.4598,-4.4598,-4.4598,-4.4598,-4.4598,-4.4598,-4.4598,-4.4598,-4.4598,-4.4598,-4.4598,-4.4598,-4.4598,-4.4598,-4.4598,-4.4598,-4.4598,-4.4598,-4.4598,-4.4598,-4.4598,-4.4598,-4.4598,-4.4598,-4.4598,-4.4598,-4.4598,-4.4598,-4.4598,-4.4598,-4.4598,-4.4598,-4.4598,-4.4598,-4.4598,-4.4598,-4.4598,-4.4598,-4.4598,-4.4598,-4.4598,-4.4598,-4.4598,-4.4598,-4.4598,-4.4598,-4.4598,-4.4598,-4.4598,-4.4598,-4.457,-4.4224,-4.3844,-4.3,-4.1901,-4.1247,-4.0588,-4.0328,-3.999,-3.9553,-3.9388,-3.9388,-3.9388,-3.9388,-3.9388,-3.9388,-3.9388,-3.9388,-3.9388,-3.9388,-3.9388,-3.9224,-3.92,-3.905,-3.8751,-3.8392,-3.8167,-3.7689,-3.7105,-3.6791,-4.4598,-4.4598,-4.4598,-4.4598,-4.4598,-4.4598,-4.4598,-4.4598,-4.4598,-4.4598,-4.4598,-4.4598,-4.4598,-4.4598,-4.4598,-4.4598,-4.4598,-4.4598,-4.4598,-4.4598,-4.4598,-4.4598,-4.4598,-4.4598,-4.4598,-4.4598,-4.4598,-4.4598,-4.4598,-4.4598,-4.4598,-4.4598,-4.4598,-4.4598,-4.4598,-4.4598,-4.4598,-4.4598,-4.4598,-4.4598,-4.4598,-4.4598,-4.4598,-4.4598,-4.4598,-4.4598,-4.4598,-4.4598,-4.4598,-4.4598,-4.4598,-4.4598,-4.4598,-4.4598,-4.4598,-4.4598,-4.4598,-4.4598,-4.4598,-4.4598,-4.4598,-4.4598,-4.4598,-4.4598,-4.4598,-4.4598,-4.4598,-4.4598,-4.4598,-4.4598,-4.4598,-4.4598,-4.4598,-4.4598,-4.4598,-4.4598,-4.4598,-4.4598,-4.4598,-4.4598,-4.4598,-4.4598,-4.4598,-4.4598,-4.4598,-4.4281,-4.3785,-4.3276,-4.2552,-4.1642,-4.1213,-4.069,-4.0622,-4.0274,-3.9702,-3.9388,-3.9388,-3.9388,-3.9388,-3.9388,-3.9388,-3.9388,-3.9388,-3.9388,-3.9388,-3.9388,-3.9388,-3.9358,-3.923,-3.905,-3.899,-3.8751,-3.8661,-3.8212,-3.7778,-4.4598,-4.4598,-4.4598,-4.4598,-4.4598,-4.4598,-4.4598,-4.4598,-4.4598,-4.4598,-4.4598,-4.4598,-4.4598,-4.4598,-4.4598,-4.4598,-4.4598,-4.4598,-4.4598,-4.4598,-4.4598,-4.4598,-4.4598,-4.4598,-4.4598,-4.4598,-4.4598,-4.4598,-4.4598,-4.4598,-4.4598,-4.4598,-4.4598,-4.4598,-4.4598,-4.4598,-4.4598,-4.4598,-4.4598,-4.4598,-4.4598,-4.4598,-4.4598,-4.4598,-4.4598,-4.4598,-4.4598,-4.4598,-4.4598,-4.4598,-4.4598,-4.4598,-4.4598,-4.4598,-4.4598,-4.4598,-4.4598,-4.4598,-4.4598,-4.4598,-4.4598,-4.4598,-4.4598,-4.4598,-4.4598,-4.4598,-4.4598,-4.4598,-4.4598,-4.4598,-4.4598,-4.4598,-4.4598,-4.4598,-4.4598,-4.4598,-4.4598,-4.4598,-4.4598,-4.4598,-4.4598,-4.4598,-4.4598,-4.4598,-4.457,-4.4412,-4.3844,-4.3306,-4.2489,-4.1478,-4.1046,-4.0672,-4.0466,-4.0185,-3.961,-3.9388,-3.9388,-3.9388,-3.9388,-3.9388,-3.9388,-3.9388,-3.9388,-3.9388,-3.9388,-3.9388,-3.9388,-3.9388,-3.9388,-3.9254,-3.9269,-3.9284,-3.9209,-3.911,-3.8706,-4.4598,-4.4598,-4.4598,-4.4598,-4.4598,-4.4598,-4.4598,-4.4598,-4.4598,-4.4598,-4.4598,-4.4598,-4.4598,-4.4598,-4.4598,-4.4598,-4.4598,-4.4598,-4.4598,-4.4598,-4.4598,-4.4598,-4.4598,-4.4598,-4.4598,-4.4598,-4.4598,-4.4598,-4.4598,-4.4598,-4.4598,-4.4598,-4.4598,-4.4598,-4.4598,-4.4598,-4.4598,-4.4598,-4.4598,-4.4598,-4.4598,-4.4598,-4.4598,-4.4598,-4.4598,-4.4598,-4.4598,-4.4598,-4.4598,-4.4598,-4.4598,-4.4598,-4.4598,-4.4598,-4.4598,-4.4598,-4.4598,-4.4598,-4.4598,-4.4598,-4.4598,-4.4598,-4.4598,-4.4598,-4.4598,-4.4598,-4.4598,-4.4598,-4.4598,-4.4598,-4.4598,-4.4598,-4.4598,-4.4598,-4.4598,-4.4598,-4.4598,-4.4598,-4.4598,-4.4598,-4.4598,-4.4598,-4.4598,-4.4598,-4.4514,-4.4384,-4.4006,-4.3502,-4.2816,-4.1707,-4.0894,-4.0378,-3.9955,-3.9646,-3.9424,-3.9388,-3.9388,-3.9388,-3.9388,-3.9388,-3.9388,-3.9388,-3.9388,-3.9388,-3.9388,-3.9388,-3.9388,-3.9388,-3.9388,-3.9388,-3.9388,-3.9388,-3.9358,-3.9254,-3.9313,-4.4598,-4.4598,-4.4598,-4.4598,-4.4598,-4.4598,-4.4598,-4.4598,-4.4598,-4.4598,-4.4598,-4.4598,-4.4598,-4.4598,-4.4598,-4.4598,-4.4598,-4.4598,-4.4598,-4.4598,-4.4598,-4.4598,-4.4598,-4.4598,-4.4598,-4.4598,-4.4598,-4.4598,-4.4598,-4.4598,-4.4598,-4.4598,-4.4598,-4.4598,-4.4598,-4.4598,-4.4598,-4.4598,-4.4598,-4.4598,-4.4598,-4.4598,-4.4598,-4.4598,-4.4598,-4.4598,-4.4598,-4.4598,-4.4598,-4.4598,-4.4598,-4.4598,-4.4598,-4.4598,-4.4598,-4.4598,-4.4598,-4.4598,-4.4598,-4.4598,-4.4598,-4.4598,-4.4598,-4.4598,-4.4598,-4.4598,-4.4598,-4.4598,-4.4598,-4.4598,-4.4598,-4.4598,-4.4598,-4.4598,-4.4598,-4.4598,-4.4598,-4.4598,-4.4598,-4.4598,-4.4598,-4.4598,-4.4598,-4.4598,-4.4598,-4.4281,-4.368,-4.3169,-4.2426,-4.1576,-4.0656,-4.015,-3.9574,-3.9481,-3.9388,-3.9388,-3.9388,-3.9388,-3.9388,-3.9388,-3.9388,-3.9388,-3.9388,-3.9388,-3.9388,-3.9388,-3.9388,-3.9388,-3.9388,-3.9388,-3.9388,-3.9388,-3.9388,-3.9388,-3.9388]},{"header":{"parameterUnit":"m.s-1","parameterCategory":1,"la1":31.0,"la2":29.5877,"lo1":-88.7671,"lo2":-86.6584,"dy":0.0162,"dx":0.0185,"nx":115,"ny":88,"refTime":"2026-04-13T12:00:00:Z","depth":0,"parameterNumber":3,"parameterNumberName":"V-component_of_WINDS"},"data":[0.0,0.0,0.0,0.0,0.0,0.0,0.0,0.0,0.0,0.0,0.0,0.0,0.0,0.0,0.0,0.0,0.0,0.0,0.0,0.0,0.0,0.0,0.0,0.0,0.0,0.0,0.0,0.0,0.0,0.0,0.0,0.0,0.0,0.0,0.0,0.0,0.0,0.0,0.0,0.0,0.0,0.0,0.0,0.0,0.0,0.0,0.0,0.0,0.0,0.0,0.0,0.0,0.0,0.0,0.0,0.0,0.0,0.0,0.0,0.0,0.0,0.0,0.0,0.0,0.0,0.0,0.0,0.0,0.0,0.0,0.0,0.0,0.0,0.0,0.0,0.0,0.0,0.0,0.0,0.0,0.0,0.0,0.0,0.0,0.0,0.0,0.0,0.0,0.0,0.0,0.0,0.0,0.0,0.0,0.0,0.0,0.0,0.0,0.0,0.0,0.0,0.0,0.0,0.0,0.0,0.0,0.0,0.0,0.0,0.0,0.0,0.0,0.0,0.0,0.0,0.0,0.0,0.0,0.0,0.0,0.0,0.0,0.0,0.0,0.0,0.0,0.0,0.0,0.0,0.0,0.0,0.0,0.0,0.0,0.0,0.0,0.0,0.0,0.0,0.0,0.0,0.0,0.0,0.0,0.0,0.0,0.0,0.0,0.0,0.0,0.0,0.0,0.0,0.0,0.0,0.0,0.0,0.0,0.0,0.0,0.0,0.0,0.0,0.0,0.0,0.0,0.0,0.0,0.0,0.0,0.0,0.0,0.0,0.0,0.0,0.0,0.0,0.0,0.0,0.0,0.0,0.0,0.0,0.0,0.0,0.0,0.0,0.0,0.0,0.0,0.0,0.0,0.0,0.0,0.0,0.0,0.0,0.0,0.0,0.0,0.0,0.0,0.0,0.0,0.0,0.0,0.0,0.0,0.0,0.0,0.0,0.0,0.0,0.0,0.0,0.0,0.0,0.0,0.0,0.0,0.0,0.0,0.0,0.0,0.0,0.0,0.0,0.0,0.0,0.0,0.0,0.0,0.0,0.0,0.0,0.0,0.0,0.0,0.0,0.0,0.0,0.0,0.0,0.0,0.0,0.0,0.0,0.0,0.0,0.0,0.0,0.0,0.0,0.0,0.0,0.0,0.0,0.0,0.0,0.0,0.0,0.0,0.0,0.0,0.0,0.0,0.0,0.0,0.0,0.0,0.0,0.0,0.0,0.0,0.0,0.0,0.0,0.0,0.0,0.0,0.0,0.0,0.0,0.0,0.0,0.0,0.0,0.0,0.0,0.0,0.0,0.0,0.0,0.0,0.0,0.0,0.0,0.0,0.0,0.0,0.0,0.0,0.0,0.0,0.0,0.0,0.0,0.0,0.0,0.0,0.0,0.0,0.0,0.0,0.0,0.0,0.0,0.0,0.0,0.0,0.0,0.0,0.0,0.0,0.0,0.0,0.0,0.0,0.0,0.0,0.0,0.0,0.0,0.0,0.0,0.0,0.0,0.0,0.0,0.0,0.0,0.0,0.0,0.0,0.0,0.0,0.0,0.0,0.0,0.0,0.0,0.0,0.0,0.0,0.0,0.0,0.0,0.0,0.0,0.0,0.0,0.0,0.0,0.0,0.0,0.0,0.0,0.0,0.0,0.0,0.0,0.0,0.0,0.0,0.0,0.0,0.0,0.0,0.0,0.0,0.0,0.0,0.0,0.0,0.0,0.0,0.0,0.0,0.0,0.0,0.0,0.0,0.0,0.0,0.0,0.0,0.0,0.0,0.0,0.0,0.0,0.0,0.0,0.0,0.0,0.0,0.0,0.0,0.0,0.0,0.0,0.0,0.0,0.0,0.0,0.0,0.0,0.0,0.0,0.0,0.0,0.0,0.0,0.0,0.0,0.0,0.0,0.0,0.0,0.0,0.0,0.0,0.0,0.0,0.0,0.0,0.0,0.0,0.0,0.0,0.0,0.0,0.0,0.0,0.0,0.0,0.0,0.0,0.0,0.0,0.0,0.0,0.0,0.0,0.0,0.0,0.0,0.0,0.0,0.0,0.0,0.0,0.0,0.0,0.0,0.0,0.0,0.0,0.0,0.0,0.0,0.0,0.0,0.0,0.0,0.0,0.0,0.0,0.0,0.0,0.0,0.0,0.0,0.0,0.0,0.0,0.0,0.0,0.0,0.0,0.0,0.0,0.0,0.0,0.0,0.0,0.0,0.0,0.0,0.0,0.0,0.0,0.0,0.0,0.0,0.0,0.0,0.0,0.0,0.0,0.0,0.0,0.0,0.0,0.0,0.0,0.0,0.0,0.0,0.0,0.0,0.0,0.0,0.0,0.0,0.0,0.0,0.0,0.0,0.0,0.0,0.0,0.0,0.0,0.0,0.0,0.0,0.0,0.0,0.0,0.0,0.0,0.0,0.0,0.0,0.0,0.0,0.0,0.0,0.0,0.0,0.0,0.0,0.0,0.0,0.0,0.0,0.0,0.0,0.0,0.0,0.0,0.0,0.0,0.0,0.0,0.0,0.0,0.0,0.0,0.0,0.0,0.0,0.0,0.0,0.0,0.0,0.0,0.0,0.0,0.0,0.0,0.0,0.0,0.0,0.0,0.0,0.0,0.0,0.0,0.0,0.0,0.0,0.0,0.0,0.0,0.0,0.0,0.0,0.0,0.0,0.0,0.0,0.0,0.0,0.0,0.0,0.0,0.0,0.0,0.0,0.0,0.0,0.0,0.0,0.0,0.0,0.0,0.0,0.0,0.0,0.0,0.0,0.0,0.0,0.0,0.0,0.0,0.0,0.0,0.0,0.0,0.0,0.0,0.0,0.0,0.0,0.0,0.0,0.0,0.0,0.0,0.0,0.0,0.0,0.0,0.0,0.0,0.0,0.0,0.0,0.0,0.0,0.0,0.0,0.0,0.0,0.0,0.0,0.0,0.0,0.0,0.0,0.0,0.0,0.0,0.0,0.0,0.0,0.0,0.0,0.0,0.0,0.0,0.0,0.0,0.0,0.0,0.0,0.0,0.0,0.0,0.0,0.0,0.0,0.0,0.0,0.0,0.0,0.0,0.0,0.0,0.0,0.0,0.0,0.0,0.0,0.0,0.0,0.0,0.0,0.0,0.0,0.0,0.0,0.0,0.0,0.0,0.0,0.0,0.0,0.0,0.0,0.0,0.0,0.0,0.0,0.0,0.0,0.0,0.0,0.0,0.0,0.0,0.0,0.0,0.0,0.0,0.0,0.0,0.0,0.0,0.0,0.0,0.0,0.0,0.0,0.0,0.0,0.0,0.0,0.0,0.0,0.0,0.0,0.0,0.0,0.0,0.0,0.0,0.0,0.0,0.0,0.0,0.0,0.0,0.0,0.0,0.0,0.0,0.0,0.0,0.0,0.0,0.0,0.0,0.0,0.0,0.0,0.0,0.0,0.0,0.0,0.0,0.0,0.0,0.0,0.0,0.0,0.0,0.0,0.0,0.0,0.0,0.0,0.0,0.0,0.0,0.0,0.0,0.0,0.0,0.0,0.0,0.0,0.0,0.0,0.0,0.0,0.0,0.0,0.0,0.0,0.0,0.0,0.0,0.0,0.0,0.0,0.0,0.0,0.0,0.0,0.0,0.0,0.0,0.0,0.0,0.0,0.0,0.0,0.0,0.0,0.0,0.0,0.0,0.0,0.0,0.0,0.0,0.0,0.0,0.0,0.0,0.0,0.0,0.0,0.0,0.0,0.0,0.0,0.0,0.0,0.0,0.0,0.0,0.0,0.0,0.0,0.0,0.0,0.0,0.0,0.0,0.0,0.0,0.0,0.0,0.0,0.0,0.0,0.0,0.0,0.0,0.0,0.0,0.0,0.0,0.0,0.0,0.0,0.0,0.0,0.0,0.0,0.0,0.0,0.0,0.0,0.0,0.0,0.0,0.0,0.0,0.0,0.0,0.0,0.0,0.0,0.0,0.0,0.0,0.0,0.0,0.0,0.0,0.0,0.0,0.0,0.0,0.0,0.0,0.0,0.0,0.0,0.0,0.0,0.0,0.0,0.0,0.0,0.0,0.0,0.0,0.0,0.0,0.0,0.0,0.0,0.0,0.0,0.0,0.0,0.0,0.0,0.0,0.0,0.0,0.0,0.0,0.0,0.0,0.0,0.0,0.0,0.0,0.0,0.0,0.0,0.0,0.0,0.0,0.0,0.0,0.0,0.0,0.0,0.0,0.0,0.0,0.0,0.0,0.0,0.0,0.0,0.0,0.0,0.0,0.0,0.0,0.0,0.0,0.0,0.0,0.0,0.0,0.4494,0.0,0.0,0.0,0.0,0.0,0.0,0.0,0.0,0.0,0.0,0.0,0.0,0.0,0.0,0.0,0.0,0.0,0.0,0.0,0.0,0.0,0.0,0.0,0.0,0.0,0.0,0.0,0.0,0.0,0.0,0.0,0.0,0.0,0.0,0.0,0.0,0.0,0.0,0.0,0.0,0.0,0.0,0.0,0.0,0.0,0.0,0.0,0.0,0.0,0.0,0.0,0.0,0.0,0.0,0.0,0.0,0.0,0.0,0.0,0.0,0.0,0.0,0.0,0.0,0.0,0.0,0.0,0.0,0.0,0.0,0.0,0.0,0.0,0.0,0.0,0.0,0.0,0.0,0.0,0.0,0.0,0.0,0.0,0.0,0.0,0.0,0.0,0.0,0.0,0.0,0.0,0.0,0.0,0.0,0.0,0.0,0.0,0.0,0.0,0.0,0.0,0.0,0.0,0.0,0.0,0.0,0.0,0.0,0.0,0.0,0.4816,0.4627,0.4682,0.4619,0.4501,0.0,0.0,0.0,0.0,0.0,0.0,0.0,0.0,0.0,0.0,0.0,0.0,0.0,0.0,0.0,0.0,0.0,0.0,0.0,0.0,0.0,0.0,0.0,0.0,0.0,0.0,0.0,0.0,0.0,0.0,0.0,0.0,0.0,0.0,0.0,0.0,0.0,0.0,0.0,0.0,0.0,0.0,0.0,0.0,0.0,0.0,0.0,0.0,0.0,0.0,0.0,0.0,0.0,0.0,0.0,0.0,0.0,0.0,0.0,0.0,0.0,0.0,0.0,0.0,0.0,0.0,0.0,0.0,0.0,0.0,0.0,0.0,0.0,0.0,0.0,0.0,0.0,0.0,0.0,0.0,0.0,0.0,0.0,0.0,0.0,0.0,0.0,0.0,0.0,0.0,0.0,0.0,0.0,0.0,0.0,0.0,0.0,0.0,0.0,0.0,0.0,0.0,0.0,0.0,0.0,0.0,0.0,0.0,0.0,0.0,0.0,0.0,0.4754,0.4699,0.4552,0.0,0.0,0.0,0.0,0.0,0.0,0.0,0.0,0.0,0.0,0.0,0.0,0.0,0.0,0.0,0.0,0.0,0.0,0.0,0.0,0.0,0.0,0.0,0.0,0.0,0.0,0.0,0.0,0.0,0.0,0.0,0.0,0.0,0.0,0.0,0.0,0.0,0.0,0.0,0.0,0.0,0.0,0.0,0.0,0.0,0.0,0.0,0.0,0.0,0.0,0.0,0.0,0.0,0.0,0.0,0.0,0.0,0.0,0.0,0.0,0.0,0.0,0.0,0.0,0.0,0.0,0.0,0.0,0.0,0.0,0.0,0.0,0.0,0.0,0.0,0.0,0.0,0.0,0.0,0.0,0.0,0.0,0.0,0.0,0.0,0.0,0.0,0.0,0.0,0.0,0.0,0.0,0.0,0.0,0.0,0.0,0.0,0.0,0.0,0.0,0.0,0.0,0.0,0.0,0.0,0.0,0.0,0.0,0.0,0.0,0.4704,0.4694,0.4823,0.0,0.4684,0.0,0.0,0.0,0.0,0.0,0.0,0.0,0.0,0.0,0.0,0.0,0.0,0.0,0.0,0.0,0.0,0.0,0.0,0.0,0.0,0.0,0.0,0.0,0.0,0.0,0.0,0.0,0.0,0.0,0.0,0.0,0.0,0.0,0.0,0.0,0.0,0.0,0.0,0.0,0.0,0.0,0.0,0.0,0.0,0.0,0.0,0.0,0.0,0.0,0.0,0.0,0.0,0.0,0.0,0.0,0.0,0.0,0.0,0.0,0.0,0.0,0.0,0.0,0.0,0.0,0.0,0.0,0.0,0.0,0.0,0.0,0.0,0.0,0.0,0.0,0.0,0.0,0.0,0.0,0.0,0.0,0.0,0.0,0.0,0.0,0.0,0.0,0.0,0.0,0.0,0.0,0.0,0.0,0.0,0.0,0.0,0.0,0.0,0.0,0.0,0.0,0.0,0.0,0.0,0.0,0.0,0.0,0.0,0.0,0.0,0.542,0.5349,0.4983,0.4755,0.0,0.0,0.0,0.0,0.0,0.0,0.0,0.0,0.0,0.0,0.0,0.0,0.0,0.0,0.0,0.0,0.0,0.0,0.0,0.0,0.0,0.0,0.0,0.0,0.0,0.0,0.0,0.0,0.0,0.0,0.0,0.0,0.0,0.0,0.0,0.0,0.0,0.0,0.0,0.0,0.0,0.0,0.0,0.0,0.0,0.0,0.0,0.0,0.0,0.0,0.0,0.0,0.0,0.0,0.0,0.0,0.0,0.0,0.0,0.0,0.0,0.0,0.0,0.0,0.0,0.0,0.0,0.0,0.0,0.0,0.0,0.0,0.0,0.0,0.0,0.0,0.0,0.0,0.0,0.0,0.0,0.0,0.0,0.0,0.0,0.0,0.0,0.0,0.0,0.0,0.0,0.0,0.0,0.0,0.0,0.0,0.0,0.0,0.0,0.0,0.0,0.0,0.0,0.0,0.0,0.0,0.0,0.0,0.0,0.0,0.6544,0.6167,0.5914,0.5155,0.4735,0.4694,0.0,0.0,0.0,0.0,0.0,0.0,0.0,0.0,0.0,0.0,0.0,0.0,0.0,0.0,0.0,0.0,0.0,0.0,0.0,0.0,0.0,0.0,0.0,0.0,0.0,0.0,0.0,0.0,0.0,0.0,0.0,0.0,0.0,0.0,0.0,0.0,0.0,0.0,0.0,0.0,0.0,0.0,0.0,0.0,0.0,0.0,0.0,0.0,0.0,0.0,0.0,0.0,0.0,0.0,0.0,0.0,0.0,0.0,0.0,0.0,0.0,0.0,0.0,0.0,0.0,0.0,0.0,0.0,0.0,0.0,0.0,0.0,0.0,0.0,0.0,0.0,0.0,0.0,0.0,0.0,0.0,0.0,0.0,0.0,0.0,0.0,0.0,0.0,0.0,0.0,0.0,0.0,0.0,0.0,0.0,0.0,0.0,0.0,0.0,0.0,0.0,0.0,0.0,0.0,0.0,0.0,0.0,0.0,0.0,0.7145,0.6764,0.6233,0.5355,0.484,0.0,0.0,0.0,0.0,0.0,0.0,0.0,0.0,0.0,0.0,0.0,0.0,0.0,0.0,0.0,0.0,0.0,0.0,0.0,0.0,0.0,0.0,0.0,0.0,0.0,0.0,0.0,0.0,0.0,0.0,0.0,0.0,0.0,0.0,0.0,0.0,0.0,0.0,0.0,0.0,0.0,0.0,0.0,0.0,0.0,0.0,0.0,0.0,0.0,0.0,0.0,0.0,0.0,0.0,0.0,0.0,0.0,0.0,0.0,0.0,0.0,0.0,0.0,0.0,0.0,0.0,0.0,0.0,0.0,0.0,0.0,0.0,0.0,0.0,0.0,0.0,0.0,0.0,0.0,0.0,0.0,0.0,0.0,0.0,0.0,0.0,0.0,0.0,0.0,0.0,0.0,0.0,0.0,0.0,0.0,0.0,0.0,0.0,0.0,0.0,0.0,0.0,0.0,0.0,0.0,0.0,0.0,0.0,0.0,0.8236,0.7829,0.7428,0.7024,0.6028,0.552,0.0,0.0,0.0,0.0,0.0,0.0,0.0,0.0,0.0,0.0,0.0,0.0,0.0,0.0,0.0,0.0,0.0,0.0,0.0,0.0,0.0,0.0,0.0,0.0,0.0,0.0,0.0,0.0,0.0,0.0,0.0,0.0,0.0,0.0,0.0,0.0,0.0,0.0,0.0,0.0,0.0,0.0,0.0,0.0,0.0,0.0,0.0,0.0,0.0,0.0,0.0,0.0,0.0,0.0,0.0,0.0,0.0,0.0,0.0,0.0,0.0,0.0,0.0,0.0,0.0,0.0,0.0,0.0,0.0,0.0,0.0,0.0,0.0,0.0,0.0,0.0,0.0,0.0,0.0,0.0,0.0,0.0,0.0,0.0,0.0,0.0,0.0,0.0,0.0,0.0,0.0,0.0,0.0,0.0,0.0,0.0,0.0,0.0,0.0,0.0,0.0,0.0,0.0,0.0,0.0,0.0,0.0,0.0,0.0,0.9064,0.0,0.8146,0.0,0.6579,0.5952,0.0,0.0,0.0,0.0,0.0,0.0,0.0,0.0,0.0,0.0,0.0,0.0,0.0,0.0,0.0,0.0,0.0,0.0,0.0,0.0,0.0,0.0,0.0,0.0,0.0,0.0,0.0,0.0,0.0,0.0,0.0,0.0,0.0,0.0,0.0,0.0,0.0,0.0,0.0,0.0,0.0,0.0,0.0,0.0,0.0,0.0,0.0,0.0,0.0,0.0,0.0,0.0,0.0,0.0,0.0,0.0,0.0,0.0,0.0,0.0,0.0,0.0,0.0,0.0,0.0,0.0,0.0,0.0,0.0,0.0,0.0,0.0,0.0,0.0,0.0,0.0,0.0,0.0,0.0,0.0,0.0,0.0,0.0,0.0,0.0,0.0,0.0,0.0,0.0,0.0,0.0,0.0,0.0,0.0,0.0,0.0,0.0,0.0,0.0,0.0,0.0,0.0,0.0,0.0,0.0,0.0,0.0,0.0,0.9098,0.9653,0.9221,0.886,0.8598,0.7072,0.6035,0.0,0.0,0.0,0.0,0.0,0.0,0.0,0.0,0.0,0.0,0.0,0.0,0.0,0.0,0.0,0.0,0.0,0.0,0.0,0.0,0.0,0.0,0.0,0.0,0.0,0.0,0.0,0.0,0.0,0.0,0.0,0.0,0.0,0.0,0.0,0.0,0.0,0.0,0.0,0.0,0.0,0.0,0.0,0.0,0.0,0.0,0.0,0.0,0.0,0.0,0.0,0.0,0.0,0.0,0.0,0.0,0.0,0.0,0.0,0.0,0.0,0.0,0.0,0.0,0.0,0.0,0.0,0.0,0.0,0.0,0.0,0.0,0.0,0.0,0.0,0.0,0.0,0.0,0.0,0.0,0.0,0.0,0.0,0.0,0.0,0.0,0.0,0.0,0.0,0.0,0.0,0.0,0.0,0.0,0.0,0.0,0.0,0.0,0.0,0.0,0.0,0.0,0.0,0.0,0.0,0.0,0.0,0.0,0.0,0.9351,0.9238,0.9276,0.9582,0.8057,0.7117,0.0,0.0,0.0,0.0,0.0,0.0,0.0,0.0,0.0,0.0,0.0,0.0,0.0,0.0,0.0,0.0,0.0,0.0,0.0,0.0,0.0,0.0,0.0,0.0,0.0,0.0,0.0,0.0,0.0,0.0,0.0,0.0,0.0,0.0,0.0,0.0,0.0,0.0,0.0,0.0,0.0,0.0,0.0,0.0,0.0,0.0,0.0,0.0,0.0,0.0,0.0,0.0,0.0,0.0,0.0,0.0,0.0,0.0,0.0,0.0,0.0,0.0,0.0,0.0,0.0,0.0,0.0,0.0,0.0,0.0,0.0,0.0,0.0,0.0,0.0,0.0,0.0,0.0,0.0,0.0,0.0,0.0,0.0,0.0,0.0,0.0,0.0,0.0,0.0,0.0,0.0,0.0,0.0,0.0,0.0,0.0,0.0,0.0,0.0,0.0,0.0,0.0,0.0,0.0,0.0,0.0,0.0,0.0,0.0,0.987,0.9864,0.996,1.0083,0.8608,0.7597,0.7161,0.0,0.0,0.0,0.0,0.0,0.0,0.0,0.0,0.0,0.0,0.0,0.0,0.0,0.0,0.0,0.0,0.0,0.0,0.0,0.0,0.0,0.0,0.0,0.0,0.0,0.0,0.0,0.0,0.0,0.0,0.0,0.0,0.0,0.0,0.0,0.0,0.0,0.0,0.0,0.0,0.0,0.0,0.0,0.0,0.0,0.0,0.0,0.0,0.0,0.0,0.0,0.0,0.0,0.0,0.0,0.0,0.0,0.0,0.0,0.0,0.0,0.0,0.0,0.0,0.0,0.0,0.0,0.0,0.0,0.0,0.0,0.0,0.0,0.0,0.0,0.0,0.0,0.0,0.0,0.0,0.0,0.0,0.0,0.0,0.0,0.0,0.0,0.0,0.0,0.0,0.0,0.0,0.0,0.0,0.0,0.0,0.0,0.0,0.0,0.0,0.0,0.0,0.0,0.0,0.0,0.0,0.0,0.0,1.1042,1.1062,1.0815,1.0223,0.883,0.7598,0.0,0.0,0.0,0.0,0.0,0.0,0.0,0.0,0.0,0.0,0.0,0.0,0.0,0.0,0.0,0.0,0.0,0.0,0.0,0.0,0.0,0.0,0.0,0.0,0.0,0.0,0.0,0.0,0.0,0.0,0.0,0.0,0.0,0.0,0.0,0.0,0.0,0.0,0.0,0.0,0.0,0.0,0.0,0.0,0.0,0.0,0.0,0.0,0.0,0.0,0.0,0.0,0.0,0.0,0.0,0.0,0.0,0.0,0.0,0.0,0.0,0.0,0.0,0.0,0.0,0.0,0.0,0.0,0.0,0.0,0.0,0.0,0.0,0.0,0.0,0.0,0.0,0.0,0.0,0.0,0.0,0.0,0.0,0.0,0.0,0.0,0.0,0.0,0.0,0.0,0.0,0.0,0.0,0.0,0.0,0.0,0.0,0.0,0.0,0.0,0.0,0.0,0.0,0.0,0.0,0.0,0.0,0.0,0.0,1.1309,1.198,1.204,1.141,0.95,0.817,0.0,0.0,0.0,0.0,0.0,0.0,0.0,0.0,0.0,0.0,0.0,0.0,0.0,0.0,0.0,0.0,0.0,0.0,0.0,0.0,0.0,0.0,0.0,0.0,0.0,0.0,0.0,0.0,0.0,0.0,0.0,0.0,0.0,0.0,0.0,0.0,0.0,0.0,0.0,0.0,0.0,0.0,0.0,0.0,0.0,0.0,0.0,0.0,0.0,0.0,0.0,0.0,0.0,0.0,0.0,0.0,0.0,0.0,0.0,0.0,0.0,0.0,0.0,0.0,0.0,0.0,0.0,0.0,0.0,0.0,0.0,0.0,0.0,0.0,0.0,0.0,0.0,0.0,0.0,0.0,0.0,0.0,0.0,0.0,0.0,0.0,0.0,0.0,0.0,0.0,0.0,0.0,0.0,0.0,0.0,0.0,0.0,0.0,0.0,0.0,0.0,0.0,0.0,0.0,0.0,0.0,0.0,0.0,1.1209,1.179,1.2665,1.2959,1.2619,1.061,0.8946,0.0,0.0,0.0,0.0,0.0,0.0,0.0,0.0,0.0,0.0,0.0,0.0,0.0,0.0,0.0,0.0,0.0,0.0,0.0,0.0,0.0,0.0,0.0,0.0,0.0,0.0,0.0,0.0,0.0,0.0,0.0,0.0,0.0,0.0,0.0,0.0,0.0,0.0,0.0,0.0,0.0,0.0,0.0,0.0,0.0,0.0,0.0,0.0,0.0,0.0,0.0,0.0,0.0,0.0,0.0,0.0,0.0,0.0,0.0,0.0,0.0,0.0,0.0,0.0,0.0,0.0,0.0,0.0,0.0,0.0,0.0,0.0,0.0,0.0,0.0,0.0,0.0,0.0,0.0,0.0,0.0,0.0,0.0,0.0,0.0,0.0,0.0,0.0,0.0,0.0,0.0,0.0,0.0,0.0,0.0,0.0,0.0,0.0,0.0,0.0,0.0,0.0,0.0,0.0,0.0,0.0,0.0,0.0,1.1777,1.2392,1.32,1.3633,1.3573,1.1771,0.9786,0.0,0.0,0.0,0.0,0.0,0.0,0.0,0.0,0.0,0.0,0.0,0.0,0.0,0.0,0.0,0.0,0.0,0.0,0.0,0.0,0.0,0.0,0.0,0.0,0.0,0.0,0.0,0.0,0.0,0.0,0.0,0.0,0.0,0.0,0.0,0.0,0.0,0.0,0.0,0.0,0.0,0.0,0.0,0.0,0.0,0.0,0.0,0.0,0.0,0.0,0.0,0.0,0.0,0.0,0.0,0.0,0.0,0.0,0.0,0.0,0.0,0.0,0.0,0.0,0.0,0.0,0.0,0.0,0.0,0.0,0.0,0.0,0.0,0.0,0.0,0.0,0.0,0.0,0.0,0.0,0.0,0.0,0.0,0.0,0.0,0.0,0.0,0.0,0.0,0.0,0.0,0.0,0.0,0.0,0.0,0.0,0.0,0.0,0.0,0.0,0.0,0.0,0.0,0.0,0.0,0.0,0.0,0.0,1.2178,1.2999,1.3654,1.3881,1.36,1.1588,0.9844,0.0,0.0,0.0,0.0,0.0,0.0,0.0,0.0,0.0,0.0,0.0,0.0,0.0,0.0,0.0,0.0,0.0,0.0,0.0,0.0,0.0,0.0,0.0,0.0,0.0,0.0,0.0,0.0,0.0,0.0,0.0,0.0,0.0,0.0,0.0,0.0,0.0,0.0,0.0,0.0,0.0,0.0,0.0,0.0,0.0,0.0,0.0,0.0,0.6081,0.0,0.0,0.0,0.0,0.0,0.0,0.0,0.0,0.0,0.0,0.0,0.0,0.0,0.0,0.0,0.0,0.0,0.0,0.0,0.0,0.0,0.0,0.0,0.0,0.0,0.0,0.0,0.0,0.0,0.0,0.0,0.0,0.0,0.0,0.0,0.0,0.0,0.0,0.0,0.0,0.0,0.0,0.0,0.0,0.0,0.0,0.0,0.0,0.0,0.0,0.0,0.0,0.0,0.0,0.0,0.0,0.0,0.0,0.0,1.2438,1.3193,1.3788,1.4008,1.3773,1.233,1.0852,0.0,0.0,0.0,0.0,0.0,0.0,0.0,0.0,0.0,0.0,0.0,0.0,0.0,0.0,0.0,0.0,0.0,0.0,0.0,0.0,0.0,0.0,0.0,0.0,0.0,0.0,0.0,0.0,0.0,0.0,0.0,0.0,0.0,0.0,0.0,0.0,0.0,0.0,0.0,0.0,0.0,0.0,0.0,0.0,0.0,0.0,0.0,0.0,0.0,0.0,0.0,0.0,0.0,0.0,0.0,0.0,0.0,0.0,0.0,0.0,0.0,0.0,0.0,0.0,0.0,0.0,0.0,0.0,0.0,0.0,0.0,0.0,0.0,0.0,0.0,0.0,0.0,0.0,0.0,0.0,0.0,0.0,0.0,0.0,0.0,0.0,0.0,0.0,0.0,0.0,0.0,0.0,0.0,0.0,0.0,0.0,0.0,0.0,0.0,0.0,0.0,0.0,0.0,0.0,0.0,0.0,0.0,1.1757,1.2599,1.3327,1.3834,1.4088,1.4075,1.3259,1.1948,1.0181,0.0,0.0,0.0,0.0,0.0,0.0,0.0,0.0,0.0,0.0,0.0,0.0,0.0,0.0,0.0,0.0,0.0,0.0,0.0,0.0,0.0,0.0,0.0,0.0,0.0,0.0,0.0,0.0,0.0,0.0,0.0,0.0,0.0,0.0,0.0,0.0,0.0,0.0,0.6814,0.6892,0.0,0.0,0.0,0.0,0.0,0.0,0.0,0.0,0.7594,0.0,0.0,0.0,0.0,0.0,0.0,0.0,0.0,0.0,0.0,0.0,0.0,0.0,0.0,0.0,0.0,0.0,0.0,0.0,0.0,0.0,0.0,0.0,0.0,0.0,0.0,0.0,0.0,0.0,0.0,0.0,0.0,0.0,0.0,0.0,0.0,0.0,0.0,0.0,0.0,0.0,0.0,0.0,0.0,0.0,0.0,0.0,0.0,0.0,0.0,0.0,0.0,0.0,0.0,0.0,0.0,1.1984,1.1964,1.2623,1.3908,1.4041,1.4088,1.4062,1.3253,1.2268,1.1178,0.0,0.0,0.0,0.0,0.0,0.0,0.0,0.0,0.0,0.0,0.0,0.0,0.0,0.0,0.0,0.0,0.0,0.0,0.0,0.0,0.0,0.0,0.0,0.0,0.0,0.0,0.0,0.0,0.0,0.0,0.0,0.0,0.0,0.0,0.0,0.0,0.0,0.0,0.0,0.857,0.8336,0.0,0.0,0.0,0.0,0.0,0.0,0.0,0.0,0.7993,0.0,0.0,0.0,0.0,0.0,0.0,0.0,0.0,0.0,0.0,0.0,0.0,0.0,0.0,0.0,0.0,0.0,0.0,0.0,0.0,0.0,0.0,0.0,0.0,0.0,0.0,0.0,0.0,0.0,0.0,0.0,0.0,0.0,0.0,0.0,0.0,0.0,0.0,0.0,0.0,0.0,0.0,0.0,0.0,0.0,0.0,0.0,0.0,0.0,0.0,0.0,0.0,0.0,0.0,0.0,1.1775,1.2465,1.3213,1.4055,1.4088,1.4088,1.4062,1.3105,1.2178,0.0,0.0,0.0,0.0,0.0,0.0,0.0,0.0,0.0,0.0,0.0,0.0,0.0,0.0,0.0,0.0,0.0,0.0,0.0,0.0,0.0,0.0,0.0,0.0,0.0,0.0,0.0,0.0,0.0,0.0,0.0,0.0,0.0,0.0,0.0,0.0,0.0,0.0,0.0,0.0,0.9091,0.9001,0.8966,0.0,0.0,0.0,0.0,0.0,0.0,0.8631,0.8505,0.0,0.0,0.0,0.0,0.0,0.0,0.0,0.0,0.0,0.0,0.0,0.0,0.0,0.0,0.0,0.0,0.0,0.0,0.0,0.0,0.0,0.0,0.0,0.0,0.0,0.0,0.0,0.0,0.0,0.0,0.0,0.0,0.0,0.0,0.0,0.0,0.0,0.0,0.0,0.0,0.0,0.0,0.0,0.0,0.0,0.0,0.0,0.0,0.0,0.0,0.0,0.0,0.0,0.0,0.0,1.1415,1.2772,1.3667,1.4062,1.4088,1.4062,1.3981,1.2893,1.1997,0.0,0.0,0.0,0.0,0.0,0.0,0.0,0.0,0.0,0.0,0.0,0.0,0.0,0.0,0.0,0.0,0.0,0.0,0.0,0.0,0.0,0.0,0.0,0.0,0.0,0.0,0.0,0.0,0.0,0.0,0.0,0.0,0.0,0.0,0.0,0.0,0.0,0.0,0.0,0.0,0.0,0.9457,0.9688,0.9285,0.0,0.0,0.0,0.0,0.8991,0.8985,0.0,0.0,0.0,0.0,0.0,0.0,0.0,0.0,0.0,0.0,0.0,0.0,0.0,0.0,0.0,0.0,0.0,0.0,0.0,0.0,0.0,0.0,0.0,0.0,0.0,0.0,0.0,0.0,0.0,0.0,0.0,0.0,0.0,0.0,0.0,0.0,0.0,0.0,0.0,0.0,0.0,0.0,0.0,0.0,0.0,0.0,0.0,0.0,0.0,0.0,0.0,0.0,0.0,0.0,0.0,0.0,1.1395,1.2365,1.3293,1.4041,1.4088,1.3961,1.3646,1.2792,1.1904,0.0,0.0,0.0,0.0,0.0,0.0,0.0,0.0,0.0,0.0,0.0,0.0,0.0,0.0,0.0,0.0,0.0,0.0,0.0,0.0,0.0,0.0,0.0,0.0,0.0,0.0,0.0,0.0,0.0,0.0,0.0,0.0,0.0,0.0,0.0,0.0,0.0,0.0,0.0,0.0,0.0,0.9933,0.9742,0.9626,0.9492,0.0,0.0,0.9586,0.9579,0.9608,0.0,0.0,0.0,0.0,0.0,0.0,0.0,0.0,0.0,0.0,0.0,0.0,0.0,0.0,0.0,0.0,0.0,0.0,0.0,0.0,0.0,0.0,0.0,0.0,0.0,0.0,0.0,0.0,0.0,0.0,0.0,0.0,0.0,0.0,0.0,0.0,0.0,0.0,0.0,0.0,0.0,0.0,0.0,0.0,0.0,0.0,0.0,0.0,0.0,0.0,0.0,0.0,0.0,0.0,0.0,1.1009,1.1429,1.2799,1.3694,1.4068,1.4088,1.3948,1.3613,1.2612,1.1724,0.0,0.0,0.0,0.0,0.0,0.0,0.0,0.0,0.0,0.0,0.0,0.0,0.0,0.0,0.0,0.0,0.0,0.0,0.0,0.0,0.0,0.0,0.0,0.0,0.0,0.0,0.0,0.0,0.0,0.0,0.0,0.0,0.0,0.0,0.0,0.0,0.0,0.0,0.0,0.0,0.0,0.0,0.9719,0.982,0.0,0.0,0.0,0.9873,0.9735,0.0,0.0,0.0,0.0,0.0,0.0,0.0,0.0,0.0,0.0,0.0,0.0,0.0,0.0,0.0,0.0,0.0,0.0,0.0,0.0,0.0,0.0,0.0,0.0,0.0,0.0,0.0,0.0,0.0,0.0,0.0,0.0,0.0,0.0,0.0,0.0,0.0,0.0,0.0,0.0,0.0,0.0,0.0,0.0,0.0,0.0,0.0,0.0,0.0,0.0,0.0,0.0,0.0,0.0,0.0,0.0,0.0,1.1463,1.3186,1.4088,1.4088,1.4088,1.3908,1.3493,1.2592,0.0,0.0,0.0,0.0,0.0,0.0,0.0,0.0,0.0,0.0,0.0,0.0,0.0,0.0,0.0,0.0,0.0,0.0,0.0,0.0,0.0,0.0,0.0,0.0,0.0,0.0,0.0,0.7348,0.0,0.0,0.0,0.0,0.0,0.0,0.0,0.0,0.0,0.0,0.0,0.0,0.0,0.0,1.0207,0.984,1.01,1.0341,0.0,0.0,1.0154,0.997,1.0365,1.0405,0.0,0.0,0.0,0.0,0.0,0.0,0.0,0.0,0.0,0.0,0.0,0.0,0.0,0.0,0.0,0.0,0.0,0.0,0.0,0.0,0.0,0.0,0.0,0.0,0.0,0.0,0.0,0.0,0.0,0.0,0.0,0.0,0.0,0.0,0.0,0.0,0.0,0.0,0.0,0.0,0.0,0.0,0.0,0.0,0.0,0.0,0.0,0.0,0.0,0.0,0.0,0.0,0.0,0.0,0.0,1.1449,1.3186,1.4088,1.4088,1.4088,1.3814,1.3253,1.2918,1.206,0.0,0.0,0.0,0.0,0.0,0.0,0.0,0.0,0.0,0.0,0.0,0.0,0.0,0.0,0.0,0.0,0.0,0.0,0.0,0.0,0.0,0.0,0.0,0.0,0.0,0.0,0.0,0.0,0.0,0.0,0.0,0.0,0.0,0.0,0.0,0.0,0.0,0.0,0.0,0.0,0.0,1.0728,1.0167,1.0575,1.0935,0.0,0.0,1.0553,1.0533,1.0787,1.07,0.9822,0.0,0.0,0.0,0.0,0.0,0.0,0.0,0.0,0.0,0.0,0.0,0.0,0.0,0.0,0.0,0.0,0.0,0.0,0.0,0.0,0.0,0.0,0.0,0.0,0.0,0.0,0.0,0.0,0.0,0.0,0.0,0.0,0.0,0.0,0.0,0.0,0.0,0.0,0.0,0.0,0.0,0.0,0.0,0.0,0.0,0.0,0.0,0.0,0.0,0.0,0.0,0.0,0.0,1.143,1.1415,1.3186,1.4088,1.4082,1.3908,1.3621,1.322,1.2739,1.1906,0.0,0.0,0.0,0.0,0.0,0.0,0.0,0.0,0.0,0.0,0.0,0.0,0.0,0.0,0.0,0.0,0.0,0.0,0.0,0.0,0.0,0.0,0.0,0.0,0.0,0.0,0.0,0.0,0.8605,0.8577,0.8637,0.0,0.0,0.0,0.0,0.0,0.0,0.0,0.0,0.0,0.0,1.1604,1.1515,1.237,0.0,0.0,1.295,1.2685,1.2158,1.231,1.2088,1.0877,1.0493,0.0,0.0,0.0,0.0,0.0,0.0,0.0,0.0,0.0,0.0,0.0,0.0,0.0,0.0,0.0,0.0,0.0,0.0,0.0,0.0,0.0,0.0,0.0,0.0,0.0,0.0,0.0,0.0,0.0,0.0,0.0,0.0,0.0,0.0,0.0,0.0,0.0,0.0,0.0,0.0,0.0,0.0,0.0,0.0,0.0,0.0,0.0,0.0,0.0,0.0,0.0,0.0,1.143,1.1436,1.318,1.4088,1.4082,1.376,1.346,1.3213,1.2705,1.1926,0.0,0.0,0.0,0.0,0.0,0.0,0.0,0.0,0.0,0.0,0.0,0.0,0.0,0.0,0.0,0.0,0.0,0.0,0.0,0.0,0.0,0.0,0.0,0.0,0.0,0.0,0.0,0.0,0.9004,0.8878,0.8697,0.0,0.0,0.0,0.0,0.0,0.0,0.0,0.0,0.0,0.0,1.2712,1.2741,1.3615,1.4205,1.418,1.3998,1.3618,1.3022,1.3099,1.2807,1.1674,0.0,0.0,0.0,0.0,0.0,0.0,0.0,0.0,0.0,0.0,0.0,0.0,0.0,0.0,0.0,0.0,0.0,0.0,0.0,0.0,0.0,0.0,0.0,0.0,0.0,0.0,0.0,1.011,0.0,0.0,0.9791,0.0,0.0,0.0,0.0,0.0,0.0,0.0,0.0,0.0,0.0,0.0,0.0,0.0,0.0,0.0,0.0,0.0,0.0,0.0,0.0,0.0,0.0,1.1423,1.1409,1.3213,1.4117,1.411,1.3753,1.3453,1.32,1.2931,1.2214,1.1042,0.0,0.0,0.0,0.0,0.0,0.0,0.0,0.0,0.0,0.0,0.0,0.0,0.0,0.0,0.0,0.0,0.0,0.0,0.0,0.0,0.0,0.0,0.0,0.0,0.0,0.0,0.8798,0.8564,0.8429,0.0,0.0,0.0,0.0,0.0,0.0,0.0,0.0,0.0,0.0,1.3319,1.4079,1.365,1.3883,1.4156,1.4032,1.3386,1.2897,1.2911,1.2864,1.262,0.0,0.0,0.0,0.0,0.0,0.0,0.0,0.0,0.0,0.0,0.0,0.0,0.0,0.0,0.0,0.0,0.0,0.0,0.0,0.0,0.0,0.0,0.0,0.0,0.0,0.0,0.0,1.3097,1.2147,0.0,0.0,0.0,0.0,0.0,0.0,0.0,0.0,0.0,0.0,0.0,1.4042,1.3497,0.0,0.0,0.0,0.0,0.0,0.0,0.0,0.0,0.0,0.0,0.0,0.0,1.1838,1.1517,1.3624,1.4433,1.3788,1.3467,1.3483,1.3854,1.3575,1.2833,1.1697,0.0,0.0,0.0,0.0,0.0,0.0,0.0,0.0,0.0,0.0,0.0,0.0,0.0,0.0,0.0,0.0,0.0,0.0,0.0,0.0,0.0,0.0,0.0,0.0,0.0,0.8991,0.0,0.0,0.0,0.0,0.0,0.0,0.0,0.0,0.0,0.0,0.0,1.2098,1.2992,1.3821,1.4466,1.4679,1.5387,1.5933,0.0,0.0,0.0,0.0,0.0,0.0,0.0,0.0,0.0,0.0,0.0,0.0,0.0,0.0,1.4683,1.2546,1.2812,1.3471,1.3687,0.0,0.0,0.0,0.0,0.0,0.0,0.0,0.0,0.0,0.0,0.0,0.0,0.0,0.0,1.5276,0.0,1.4395,0.0,0.0,0.0,0.0,0.0,0.0,0.0,0.0,1.5213,1.6075,1.6488,1.5794,1.5215,0.0,1.3406,1.2137,0.0,0.0,0.0,0.0,0.0,0.0,0.0,0.0,1.2442,1.2626,1.4426,1.5178,1.4681,1.4252,1.4234,1.468,1.4268,1.3598,1.2594,1.1133,0.9973,0.0,0.0,0.0,0.0,0.0,0.0,0.0,0.0,0.0,0.0,0.0,0.0,0.0,0.0,0.0,0.0,0.0,0.0,0.0,0.0,0.0,0.0,0.0,0.9894,0.0,0.0,0.0,0.0,0.0,0.0,0.0,0.0,0.0,1.1847,1.2592,1.3464,1.4343,1.5034,1.5495,1.5562,0.0,0.0,0.0,0.0,0.0,0.0,0.0,1.4902,1.4601,1.4582,1.4756,1.5185,1.5332,1.5615,1.6177,0.0,0.0,1.4596,1.4957,1.5687,1.6045,1.6763,1.7363,1.7451,1.8105,1.863,0.0,0.0,0.0,0.0,0.0,0.0,0.0,0.0,1.7478,1.7372,0.0,1.6328,0.0,0.0,0.0,0.0,0.0,1.5468,0.0,0.0,1.8221,1.8824,1.8271,1.7538,1.7201,1.715,1.6325,1.5455,1.4478,1.2507,0.0,0.0,0.0,0.0,0.0,0.0,1.3237,1.4635,1.5581,1.6278,1.6589,1.595,1.5581,1.5613,1.506,1.4413,1.3713,1.3297,1.2225,1.0194,1.0053,0.0,0.0,0.0,0.0,0.0,0.0,0.0,0.0,0.0,0.0,0.0,0.0,0.0,0.0,0.0,0.0,0.0,0.0,0.0,0.0,1.1091,0.0,0.0,0.0,0.0,0.0,0.0,0.0,0.0,0.0,0.0,1.3213,1.4275,1.5355,1.5994,0.0,0.0,0.0,0.0,1.6404,1.5615,1.5137,1.4921,1.4912,1.5195,1.5439,1.5449,0.0,0.0,1.6233,1.5861,1.5936,1.669,1.7355,1.7669,1.8023,1.8306,1.8578,1.864,1.8846,1.9006,1.9071,1.9617,1.9972,2.0174,0.0,0.0,0.0,0.0,1.9276,1.9459,1.9504,2.0555,2.0338,1.9195,1.9206,0.0,0.0,0.0,0.0,0.0,0.0,1.757,1.8497,1.9558,2.031,2.0795,1.9774,1.9185,1.8802,1.7363,1.6493,1.6196,1.5745,1.4132,1.1483,0.0,0.0,0.0,0.0,1.4911,1.5252,1.6532,1.6939,1.6338,1.5856,1.583,1.6307,1.5892,1.5464,1.4967,1.3827,1.2784,1.1886,1.1137,0.0,0.0,0.0,0.0,0.0,0.0,0.0,0.0,0.0,0.0,0.0,0.0,0.0,0.0,0.0,0.0,0.0,0.0,0.0,1.0688,1.1104,1.1186,0.0,0.0,0.0,0.0,0.0,0.0,0.0,0.0,0.0,1.5195,1.5272,1.5505,0.0,0.0,1.6388,1.6124,1.6445,1.6726,1.6816,1.6455,0.0,1.6592,1.6242,1.5986,1.6268,1.7302,1.8028,1.7925,1.8564,1.9193,1.945,2.0109,2.0638,2.0707,2.0251,2.0063,2.0381,2.0916,2.1448,2.1824,2.2056,2.213,2.3119,2.1635,2.1119,2.1021,2.1211,2.1606,2.1828,2.2003,2.2878,2.2798,2.2019,2.1903,2.1221,2.0061,1.8917,0.0,0.0,0.0,1.9653,2.0658,2.1217,2.1783,2.2269,2.1375,2.074,2.0428,1.9045,1.8294,1.8086,1.8055,1.6834,1.4471,0.0,0.0,1.3593,1.5328,1.6382,1.6687,1.7587,1.7752,1.7174,1.6766,1.674,1.7148,1.6964,1.6571,1.5968,1.5078,1.4125,1.3108,1.2442,1.1765,0.0,0.0,0.0,0.0,0.0,0.0,0.0,0.0,0.0,0.0,0.0,0.9414,0.897,0.0,0.0,0.0,1.088,1.1256,1.1609,1.2095,0.0,0.0,0.0,0.0,0.0,0.0,0.0,1.3651,1.485,1.5762,1.6065,1.6163,1.6348,1.6809,1.6982,1.7031,1.6897,0.0,1.7486,1.7617,1.7538,1.7532,1.7815,1.7718,1.775,1.8186,1.885,1.9372,1.9436,2.0081,2.0707,2.1069,2.1553,2.2002,2.2322,2.1867,2.1555,2.1884,2.2298,2.2732,2.3058,2.3095,2.3185,2.5684,2.5635,2.4443,2.3945,2.3945,2.3935,2.417,2.4512,2.4475,2.4727,2.5057,2.4238,2.3418,2.2519,2.0947,0.0,2.085,2.1611,2.2178,2.2535,2.2916,2.3101,2.3052,2.2275,2.1936,2.1865,2.1026,2.039,1.9923,1.958,1.8955,1.8091,1.71,1.6317,1.5901,1.6692,1.7609,1.8588,1.8598,1.8578,1.8549,1.8178,1.8008,1.8008,1.7978,1.7535,1.6736,1.6658,1.5789,1.4041,1.3911,1.3094,1.1422,0.0,0.0,0.0,0.0,0.0,0.0,0.0,0.0,0.0,0.0,0.0,0.0,0.0,0.0,0.0,1.2049,0.0,1.2968,1.3711,0.0,0.0,0.0,1.4834,1.4824,1.5215,1.5459,1.5469,0.0,0.0,1.6202,1.6936,1.7598,1.8047,1.8373,1.8461,1.8081,1.8354,1.851,1.8091,1.8415,1.8679,1.8657,1.9271,1.9872,2.0284,2.0655,2.0653,2.0696,2.0835,2.1164,2.1846,2.2013,2.2218,2.2987,2.2985,2.3095,2.304,2.3083,2.3095,2.3095,2.3095,2.3335,2.5684,2.5664,2.5352,2.5226,2.5226,2.5226,2.5332,2.5372,2.5382,2.5293,2.5106,2.49,2.4343,2.3467,2.3057,2.2744,2.2539,2.2744,2.2847,2.2945,2.3042,2.3101,2.3052,2.2285,2.1936,2.1826,2.1026,2.0546,2.04,2.0351,1.9862,1.9033,1.9044,1.8383,1.7075,1.7817,1.836,1.8598,1.8598,1.8442,1.8164,1.8057,1.8008,1.8008,1.7695,1.7275,1.6716,1.6396,1.5867,1.5061,1.4725,1.4352,1.3899,1.2559,0.0,0.0,0.0,0.0,0.0,0.0,0.0,0.0,0.0,1.1187,1.0121,0.0,1.2541,0.0,1.3227,1.3751,1.3821,1.4316,0.0,0.0,1.4951,1.5264,1.5273,1.5644,1.5938,1.5938,1.6299,1.6699,1.7054,1.7529,1.8144,1.8867,1.8789,1.8568,1.8481,1.8848,1.8984,1.8644,1.9107,1.9463,1.9314,1.9867,2.0508,2.0568,2.1164,2.1585,2.1585,2.2094,2.2567,2.2793,2.2823,2.2884,2.3078,2.3095,2.3095,2.3095,2.3095,2.3095,2.3095,2.3095,2.3365,2.5684,2.5684,2.5684,2.5615,2.5449,2.5644,2.5684,2.5684,2.5684,2.5596,2.5352,2.5194,2.4851,2.4336,2.3965,2.3652,2.3418,2.3188,2.3101,2.3101,2.3101,2.3101,2.3062,2.2428,2.206,2.1865,2.1191,2.0762,2.0615,2.0615,2.0322,1.9901,2.0088,1.9639,1.8564,1.8789,1.874,1.8325,1.8174,1.8057,1.8018,1.8008,1.7832,1.7428,1.7184,1.6709,1.5868,1.5625,1.5293,1.4863,1.4591,1.4404,1.4209,1.3145,1.2418,0.0,0.0,0.0,0.0,0.0,0.0,0.0,0.0,0.0,0.0,0.0,1.3541,1.3737,1.4326,1.4669,1.4679,1.5098,1.5381,1.539,1.5908,1.6289,1.6279,1.667,1.6956,1.6934,1.7139,1.7461,1.7881,1.8311,1.8818,1.9482,1.9531,1.9492,1.9492,1.9551,1.9583,1.9761,2.0163,2.0643,2.0914,2.1373,2.1698,2.1772,2.2113,2.2445,2.2445,2.2781,2.3095,2.3095,2.3095,2.3095,2.3095,2.3095,2.3095,2.3095,2.3095,2.3095,2.3095,2.3395,2.3842,2.5684,2.5684,2.5684,2.5518,2.5185,2.5566,2.5625,2.5518,2.5518,2.5547,2.5586,2.5303,2.5174,2.5067,2.4274,2.3838,2.376,2.3296,2.3101,2.3101,2.3101,2.3101,2.3071,2.2705,2.2295,2.1875,2.1405,2.1016,2.0615,2.0615,2.0576,2.0517,2.0517,2.0264,1.9834,1.9414,1.8809,1.8027,1.7598,1.7559,1.792,1.7871,1.7461,1.6668,1.656,1.6006,1.4872,1.4754,1.4531,1.4133,1.4114,1.3968,1.3682,1.3223,1.2812,0.0,1.2025,0.0,0.0,0.0,0.0,0.0,0.0,0.0,0.0,1.4046,1.4513,1.495,1.5322,1.5547,1.5586,1.5967,1.6261,1.629,1.7005,1.7504,1.748,1.7793,1.8008,1.8008,1.8057,1.8208,1.8529,1.9023,1.9443,1.9824,2.0137,2.0418,2.0593,2.0211,2.0123,2.0964,2.125,2.1807,2.2885,2.3261,2.3292,2.3285,2.3235,2.3221,2.3215,2.3128,2.3095,2.3095,2.3095,2.3095,2.3095,2.3095,2.3095,2.3095,2.3095,2.3155,2.3335,2.3767,2.4538,2.5684,2.5684,2.5684,2.5645,2.5577,2.5654,2.5284,2.4668,2.4668,2.4863,2.5205,2.5488,2.541,2.5029,2.4531,2.4102,2.3769,2.3296,2.3101,2.3101,2.3101,2.3101,2.3071,2.2662,2.2295,2.1885,2.1445,2.0996,2.0615,2.0615,2.0419,2.0049,2.0039,1.9824,1.9404,0.0,0.0,0.0,1.7598,1.7422,1.749,1.7148,1.6719,1.6232,1.585,0.0,1.4805,1.4426,1.4202,1.4124,1.4114,0.0,0.0,0.0,0.0,0.0,0.0,0.0,0.0,0.0,0.0,0.0,1.498,1.4678,1.4085,1.5039,1.5762,1.585,1.6221,1.6453,1.6453,1.6875,1.7171,1.7158,1.7578,1.7891,1.7891,1.7969,1.8008,1.8018,1.8301,1.851,1.8646,1.9023,1.9453,1.9844,1.999,2.0321,2.0937,2.0382,2.0008,2.0215,2.1486,2.2902,2.4252,2.4424,2.4362,2.4424,2.4104,2.3853,2.3778,2.3371,2.3108,2.3095,2.3095,2.3095,2.3095,2.3095,2.3095,2.3095,2.3095,2.3305,2.3943,2.4176,2.4709,2.5684,0.0,2.5684,2.5557,0.0,2.541,2.5029,2.4443,2.4883,2.5195,2.541,2.5586,2.5605,2.5352,2.4492,2.3994,2.375,2.29,2.2637,2.2822,2.2832,2.2939,2.3091,2.2886,2.25,2.1885,2.167,2.1211,2.0625,2.0615,2.0488,2.0234,2.0234,2.0165,1.9902,1.9277,1.8652,1.8018,1.7598,1.7513,1.7676,1.7471,1.7061,1.6416,1.5967,0.0,0.0,0.0,0.0,0.0,0.0,0.0,0.0,0.0,0.0,1.4406,1.4258,1.4414,1.5019,1.5088,1.5371,1.5976,1.626,1.6025,1.5156,1.6094,1.675,1.676,1.7109,1.733,1.7363,1.7559,1.7695,1.7705,1.7881,1.8008,1.8008,1.8008,1.8061,1.8266,1.8471,1.8744,1.9182,1.9434,1.9668,1.9873,1.9902,2.0021,2.0209,2.0279,2.0426,2.1185,2.2639,2.3956,2.4616,2.48,2.48,2.4757,2.4356,2.4042,2.3991,2.3514,2.3095,2.3095,2.3095,2.3095,2.3095,2.3095,2.3095,2.3095,2.3095,2.3531,2.4525,2.4851,2.5147,2.5684,2.5684,2.5684,2.5527,2.5233,2.5233,2.498,2.4697,0.0,0.0,0.0,2.5654,2.5684,2.5606,2.4453,2.3896,2.3828,2.2656,2.2285,2.2617,2.2627,2.2803,2.3091,2.3101,2.2705,2.1914,2.1936,2.1435,2.0635,2.0615,2.0615,2.0615,2.0615,2.0566,2.04,1.9715,1.8906,1.8135,1.7637,1.7549,1.7881,1.7822,1.7412,1.6631,1.626,1.5723,1.4932,1.4523,1.4338,1.4328,1.4338,1.4367,1.4455,1.4814,1.5039,1.5137,1.542,1.583,1.629,1.632,1.6515,1.6892,1.7295,1.7191,1.6388,1.7031,1.7533,1.75,1.7812,1.8008,1.8008,1.8008,1.8008,1.8008,1.8076,1.8091,1.8125,1.8203,1.8408,1.8646,1.8802,1.9075,1.9738,1.9961,2.0029,2.0029,2.0059,2.0088,2.0022,2.0554,2.1381,2.2706,2.3904,2.4788,2.4946,2.4963,2.4926,2.4951,2.4531,2.4167,2.4054,2.359,2.3158,2.3095,2.3095,2.3095,2.3095,2.3095,2.3155,2.3275,2.3305,2.3754,2.5175,2.5591,2.5837,2.5684,2.5684,2.5684,2.5654,2.5596,2.5644,2.5605,2.5479,2.5283,2.5204,2.5185,2.5566,2.5684,2.5635,2.4746,2.4326,2.4268,2.3335,2.2955,2.3003,2.3013,2.3033,2.3101,2.3101,2.2662,2.1934,2.1936,2.1466,2.0693,2.0615,2.0615,2.0615,2.0615,2.0419,1.999,1.9531,1.9053,1.851,1.7773,1.7412,1.7504,1.7077,1.668,1.6222,1.6144,1.586,1.5352,1.5264,1.5206,1.5196,1.5225,1.54,1.5801,1.587,1.6055,1.6385,1.6492,1.6707,1.7191,1.723,1.7383,1.7783,1.7891,1.7715,1.7298,1.7637,1.792,1.792,1.7969,1.8008,1.8008,1.8018,1.8037,1.8066,1.8315,1.851,1.852,1.8857,1.9092,1.918,1.9531,1.9689,1.9922,2.0234,2.0458,2.0488,2.0342,2.0787,2.1645,2.1967,2.2468,2.3702,2.4451,2.4948,2.5385,2.5485,2.5435,2.5473,2.4996,2.4569,2.4556,2.3747,2.3145,2.3095,2.3095,2.3095,2.3095,2.3095,2.3335,2.3796,2.3956,2.4467,2.5837,2.6244,2.6549,2.5684,2.5684,2.5684,2.5684,2.5684,2.5684,2.5684,2.5674,2.5527,2.543,2.5449,2.5606,2.5684,2.5586,2.457,2.4082,2.4033,2.2949,2.2588,2.275,2.275,2.2877,2.3081,2.3101,2.2662,2.1924,2.1936,2.1466,2.0674,2.0615,2.0615,2.0615,2.0615,2.039,1.9932,1.9727,1.9297,1.8607,1.8037,1.7715,1.7715,1.7529,1.7291,1.7129,1.6946,1.6721,1.6484,1.625,1.6093,1.6093,1.6102,1.6221,1.6416,1.6682,1.6907,1.707,1.7272,1.751,1.7715,1.7715,1.7803,1.7988,1.8008,1.793,1.7744,1.79,1.8008,1.8008,1.8008,1.8115,1.8286,1.8315,1.8403,1.8691,1.8877,1.8984,1.9004,1.9141,1.9412,1.959,1.9785,2.0,2.0244,2.0478,2.0488,2.0321,2.0225,2.0712,2.1872,2.251,2.3327,2.4733,2.5415,2.5799,2.6034,2.5774,2.5624,2.5586,2.4908,2.4443,2.433,2.3622,2.3195,2.3095,2.3095,2.3095,2.3095,2.3095,2.3305,2.3454,2.3649,2.4279,2.5481,2.6496,2.7188,2.5684,2.5684,2.5684,2.5684,2.5684,2.5684,2.5684,2.5684,2.5684,2.5684,2.5684,2.5684,2.5684,2.5567,2.4473,2.3935,2.3769,2.2705,2.2344,2.2584,2.2656,2.2832,2.3071,2.3101,2.2705,2.1973,2.1936,2.1476,2.0703,2.0615,2.0615,2.0615,2.0615,2.0439,2.0068,1.9961,1.9541,1.8773,1.8325,1.8105,1.8008,1.8008,1.8008,1.7988,1.7695,1.7519,1.751,1.7165,1.6999,1.698,1.6989,1.6989,1.6999,1.7334,1.7529,1.7582,1.7832,1.8008,1.8008,1.8008,1.8008,1.8008,1.8008,1.8008,1.8008,1.8008,1.8008,1.8008,1.8071,1.8266,1.8529,1.8695,1.889,1.9248,1.9375,1.9434,1.9434,1.9512,1.9687,2.001,2.0068,2.0205,2.0507,2.0615,2.0498,2.0185,2.0059,2.0464,2.1444,2.268,2.3962,2.5109,2.594,2.6197,2.6273,2.59,2.5573,2.546,2.477,2.4305,2.4042,2.354,2.3145,2.3095,2.3095,2.3095,2.3095,2.3095,2.3215,2.3454,2.3573,2.3959,2.5467,2.6692,2.7509,2.5684,2.5684,2.5684,2.5684,2.5684,2.5684,2.5684,2.5684,2.5684,2.5684,2.5684,2.5684,2.5684,2.5557,2.4766,2.4336,2.4268,2.3428,2.2984,2.3013,2.3042,2.3062,2.3101,2.3101,2.2705,2.1982,2.1914,2.1475,2.0683,2.0615,2.0615,2.0615,2.0615,2.0586,2.0498,2.0117,1.9687,1.9238,1.8799,1.8364,1.8027,1.8008,1.8008,1.8008,1.7969,1.7959,1.793,1.791,1.7881,1.7891,1.7861,1.7871,1.7881,1.792,1.7949,1.7939,1.7988,1.8008,1.8008,1.8008,1.8008,1.8008,1.8008,1.8008,1.8008,1.8018,1.8008,1.8076,1.8334,1.8539,1.8627,1.8994,1.9268,1.9394,1.9678,1.9863,1.9893,2.0215,2.0498,2.0527,2.0498,2.0566,2.0595,2.0615,2.0586,2.0459,2.0458,2.0718,2.1611,2.2626,2.3697,2.4743,2.5399,2.5707,2.5762,2.5674,2.5448,2.5071,2.4845,2.4506,2.4067,2.3547,2.3108,2.312,2.3095,2.3095,2.3095,2.3125,2.3335,2.3708,2.4018,2.4553,2.6,2.6956,2.7433,2.5684,2.5684,2.5684,2.5684,2.5684,2.5684,2.5684,2.5684,2.5684,2.5684,2.5684,2.5684,2.5684,2.5625,2.4814,2.4424,2.4355,2.3491,2.3101,2.3101,2.3101,2.3101,2.3101,2.3101,2.2779,2.2295,2.2256,2.1816,2.1045,2.0732,2.0615,2.0615,2.0615,2.0615,2.0586,2.0429,1.9971,1.9307,1.9111,1.8701,1.8096,1.8008,1.8008,1.8008,1.8008,1.8008,1.8008,1.8008,1.8008,1.8008,1.8008,1.8008,1.8008,1.8008,1.8008,1.8008,1.8008,1.8008,1.8008,1.8008,1.8008,1.8008,1.8008,1.8008,1.8027,1.8232,1.8344,1.8373,1.851,1.8783,1.926,1.9524,1.9756,2.0038,2.0243,2.0293,2.0303,2.0488,2.0605,2.0615,2.0615,2.0615,2.0615,2.0615,2.0615,2.0615,2.0615,2.0828,2.1193,2.2,2.2962,2.394,2.472,2.5485,2.5915,2.5787,2.5536,2.5297,2.5008,2.4632,2.4142,2.3853,2.3534,2.3195,2.3158,2.3145,2.3095,2.3095,2.3245,2.3679,2.4134,2.461,2.5646,2.6443,2.6982,2.5684,2.5684,2.5684,2.5684,2.5684,2.5684,2.5684,2.5684,2.5684,2.5684,2.5684,2.5684,2.5684,2.5577,2.4932,2.4541,2.4326,2.3598,2.3208,2.311,2.3101,2.3101,2.3101,2.3091,2.2877,2.2568,2.25,2.2029,2.1229,2.0781,2.0615,2.0615,2.0615,2.0615,2.0595,2.0498,2.0067,1.9355,1.918,1.875,1.8105,1.8008,1.8008,1.8008,1.8008,1.8008,1.8008,1.8008,1.8008,1.8008,1.8008,1.8008,1.8008,1.8008,1.8008,1.8008,1.8008,1.8008,1.8008,1.8008,1.8008,1.8008,1.8008,1.8066,1.8203,1.8422,1.8705,1.8958,1.8958,1.927,1.9738,2.0019,2.0234,2.0566,2.0615,2.0615,2.0595,2.0615,2.0615,2.0615,2.0615,2.0615,2.0615,2.0615,2.0615,2.0615,2.0615,2.0615,2.0712,2.1413,2.2328,2.3025,2.4145,2.5358,2.6242,2.6197,2.5871,2.5548,2.5247,2.4895,2.4305,2.4167,2.3966,2.3534,2.3396,2.3258,2.3183,2.3158,2.3221,2.3283,2.3708,2.4366,2.4992,2.5715,2.6416,2.5684,2.5684,2.5684,2.5684,2.5684,2.5684,2.5684,2.5684,2.5684,2.5684,2.5684,2.5684,2.5684,2.5654,2.5244,2.4805,2.4394,2.3916,2.3477,2.312,2.3101,2.3101,2.3101,2.3091,2.2886,2.2588,2.2568,2.2119,2.1239,2.0801,2.0615,2.0615,2.0615,2.0615,2.0556,2.0205,1.9746,1.9316,1.8945,1.8442,1.8066,1.8008,1.8008,1.8008,1.8008,1.8008,1.8008,1.8008,1.8008,1.8008,1.8008,1.8008,1.8008,1.8008,1.8008,1.8008,1.8008,1.8008,1.8008,1.8008,1.8018,1.8037,1.8057,1.8159,1.8539,1.8676,1.9017,1.9746,1.9785,1.9873,1.9971,2.0273,2.0527,2.0595,2.0615,2.0615,2.0615,2.0615,2.0615,2.0615,2.0615,2.0615,2.0615,2.0615,2.0615,2.0615,2.0615,2.0615,2.0722,2.1375,2.1924,2.2553,2.3734,2.5335,2.6233,2.6373,2.6135,2.5875,2.5661,2.5385,2.487,2.4418,2.418,2.3979,2.3966,2.376,2.3409,2.3321,2.3434,2.3541,2.37,2.4192,2.4538,2.5007,2.5755,2.5684,2.5684,2.5684,2.5684,2.5684,2.5684,2.5684,2.5684,2.5684,2.5684,2.5684,2.5684,2.5684,2.5674,2.5566,2.5098,2.4394,2.3691,2.3247,2.3101,2.3101,2.3101,2.3101,2.3101,2.3033,2.2896,2.2867,2.2471,2.1689,2.1201,2.084,2.0644,2.0615,2.0615,2.0576,2.0449,2.0,1.9382,1.9121,1.8711,1.8086,1.8008,1.8008,1.8008,1.8008,1.8008,1.8008,1.8008,1.8008,1.8008,1.8008,1.8008,1.8008,1.8008,1.8008,1.8008,1.8008,1.8008,1.8008,1.8008,1.8091,1.8354,1.8373,1.8594,1.9004,1.9251,1.9553,1.9873,2.0195,2.0312,2.0352,2.0517,2.0615,2.0615,2.0615,2.0615,2.0615,2.0615,2.0615,2.0615,2.0615,2.0615,2.0615,2.0615,2.0615,2.0615,2.0615,2.0615,2.0644,2.0944,2.1489,2.2664,2.3588,2.4636,2.6314,2.6487,2.6399,2.6298,2.6109,2.5858,2.541,2.5159,2.4933,2.4569,2.4519,2.4481,2.4136,2.3791,2.3841,2.3475,2.3637,2.3855,2.4205,2.4496,2.5231,2.5684,2.5684,2.5684,2.5684,2.5684,2.5684,2.5684,2.5684,2.5684,2.5684,2.5684,2.5684,2.5684,2.5654,2.5596,2.5225,2.459,2.3887,2.3364,2.311,2.3101,2.3101,2.3101,2.3101,2.3101,2.3062,2.2945,2.2516,2.1904,2.1445,2.1016,2.0635,2.0615,2.0615,2.0576,2.0341,1.9883,1.9492,1.9092,1.8613,1.8232,1.8076,1.8008,1.8008,1.8008,1.8008,1.8008,1.8008,1.8008,1.8008,1.8008,1.8008,1.8008,1.8008,1.8008,1.8008,1.8008,1.8008,1.8027,1.8135,1.8295,1.8578,1.8779,1.9023,1.9453,1.9756,1.9951,2.0146,2.04,2.0615,2.0615,2.0605,2.0615,2.0615,2.0615,2.0615,2.0615,2.0615,2.0615,2.0615,2.0615,2.0615,2.0615,2.0615,2.0615,2.0615,2.0615,2.0615,2.0615,2.0644,2.1126,2.2675,2.3257,2.4264,2.5546,2.6129,2.6383,2.6377,2.6373,2.6172,2.6009,2.5787,2.5548,2.5209,2.5071,2.5071,2.4845,2.4406,2.3954,2.3446,2.3316,2.3442,2.3679,2.3826,2.4595,2.5684,2.5684,2.5684,2.5684,2.5684,2.5684,2.5684,2.5684,2.5684,2.5684,2.5684,2.5684,2.5684,2.5615,2.5381,2.5098,2.4932,2.4492,2.3842,2.3218,2.3149,2.312,2.3101,2.3101,2.3101,2.3081,2.2744,2.2334,2.1885,2.1453,2.1064,2.0693,2.0615,2.0615,2.0595,1.9959,1.9609,1.958,1.8818,1.8305,1.849,1.8223,1.8008,1.8008,1.8008,1.8008,1.8008,1.8008,1.8008,1.8008,1.8008,1.8008,1.8008,1.8008,1.8008,1.8008,1.8008,1.8008,1.8086,1.8364,1.8559,1.8783,1.9082,1.9473,1.9844,1.9961,2.0127,2.042,2.0576,2.0615,2.0615,2.0615,2.0615,2.0615,2.0615,2.0615,2.0615,2.0615,2.0615,2.0615,2.0615,2.0615,2.0615,2.0615,2.0615,2.0615,2.0615,2.0615,2.0615,2.0615,2.1049,2.1924,2.2739,2.3635,2.4731,2.5756,2.6117,2.6405,2.6427,2.6373,2.626,2.6097,2.5946,2.5624,2.5636,2.5611,2.5234,2.4795,2.4243,2.3803,2.3502,2.3175,2.3318,2.3569,2.3861,2.5684,2.5684,2.5684,2.5684,2.5684,2.5684,2.5684,2.5684,2.5684,2.5684,2.5684,2.5684,2.5684,2.5664,2.5528,2.5361,2.5086,2.4609,2.4111,2.3662,2.3574,2.3398,2.313,2.3101,2.3101,2.3081,2.3008,2.2568,2.1982,2.1738,2.1328,2.0752,2.0615,2.0615,2.0595,2.0331,2.0137,1.9844,1.9248,1.8838,1.8598,1.8232,1.8018,1.8008,1.8008,1.8008,1.8008,1.8008,1.8008,1.8008,1.8008,1.8008,1.8008,1.8008,1.8008,1.8008,1.8008,1.8154,1.8373,1.8539,1.888,1.9375,1.9648,1.9922,2.0331,2.0352,2.041,2.0595,2.0615,2.0615,2.0615,2.0615,2.0615,2.0615,2.0615,2.0615,2.0615,2.0615,2.0615,2.0615,2.0615,2.0615,2.0615,2.0615,2.0615,2.0615,2.0615,2.0615,2.0615,2.0615,2.0972,2.1886,2.2403,2.311,2.4289,2.5323,2.5838,2.6198,2.6383,2.6487,2.6411,2.6348,2.6197,2.6135,2.6147,2.5975,2.5598,2.5146,2.4607,2.4029,2.3602,2.3376,2.3208,2.3414,2.3829,2.5684,2.5684,2.5684,2.5684,2.5684,2.5684,2.5684,2.5684,2.5684,2.5684,2.5684,2.5684,2.5684,2.5684,2.5684,2.5586,2.5293,2.501,2.459,2.4014,2.3633,2.3389,2.311,2.3101,2.3101,2.3101,2.3091,2.2793,2.2139,2.1934,2.1514,2.0908,2.0693,2.0615,2.0576,2.0439,2.0215,2.0078,1.958,1.915,1.8857,1.8432,1.8139,1.8037,1.8008,1.8008,1.8008,1.8008,1.8008,1.8008,1.8008,1.8008,1.8008,1.8008,1.8008,1.8008,1.8037,1.8193,1.8539,1.8763,1.916,1.9785,2.0059,2.0254,2.0546,2.0615,2.0615,2.0615,2.0615,2.0615,2.0615,2.0615,2.0615,2.0615,2.0615,2.0615,2.0615,2.0615,2.0615,2.0615,2.0615,2.0615,2.0615,2.0615,2.0615,2.0615,2.0615,2.0615,2.0615,2.0615,2.1155,2.1821,2.2563,2.3294,2.4036,2.485,2.5546,2.5955,2.6245,2.6383,2.6449,2.6449,2.6361,2.6348,2.6348,2.6323,2.6009,2.5511,2.4996,2.4393,2.3866,2.369,2.3627,2.3715,2.4044,2.5684,2.5684,2.5684,2.5684,2.5684,2.5684,2.5684,2.5684,2.5684,2.5684,2.5684,2.5684,2.5684,2.5684,2.5684,2.5654,2.5654,2.5547,2.5127,2.4375,2.3711,2.3208,2.311,2.3101,2.3101,2.3101,2.3101,2.2857,2.2441,2.2129,2.1689,2.1201,2.083,2.0625,2.0566,2.0156,2.0205,2.041,1.9746,1.9355,1.9297,1.8896,1.8525,1.8174,1.8174,1.8193,1.8213,1.8213,1.8125,1.8027,1.8057,1.8105,1.8066,1.8047,1.8086,1.8174,1.8105,1.8389,1.8721,1.9121,1.9512,1.9971,2.0351,2.0605,2.0605,2.0615,2.0644,2.0674,2.0713,2.0713,2.0752,2.0791,2.0791,2.0713,2.0683,2.0625,2.0615,2.0644,2.0684,2.0674,2.0664,2.0713,2.0811,2.0801,2.0772,2.0664,2.0674,2.0723,2.0615,2.0722,2.1049,2.1603,2.2199,2.2489,2.2925,2.3697,2.4397,2.5063,2.5616,2.6129,2.6418,2.6487,2.6487,2.6487,2.6487,2.6474,2.6298,2.5774,2.5385,2.4933,2.4506,2.418,2.4117,2.4243,2.4362,2.5684,2.5684,2.5684,2.5684,2.5684,2.5684,2.5684,2.5684,2.5684,2.5684,2.5684,2.5684,2.5684,2.5684,2.5684,2.5684,2.5625,2.542,2.5176,2.4805,2.4014,2.3447,2.3149,2.3101,2.3101,2.3101,2.3081,2.2867,2.2529,2.2383,2.1963,2.122,2.1113,2.0869,2.0635,2.0478,2.0478,2.0527,2.0049,1.9746,1.9668,1.9336,1.9082,1.8984,1.8926,1.8916,1.8945,1.8955,1.8623,1.8076,1.8286,1.8432,1.8432,1.8442,1.8549,1.8828,1.8926,1.9111,1.9473,1.9648,1.9932,2.037,2.0517,2.0605,2.0615,2.0615,2.0723,2.0947,2.1064,2.1191,2.1435,2.1494,2.1554,2.1496,2.1045,2.0683,2.0723,2.0859,2.1055,2.1074,2.1318,2.1476,2.1496,2.1435,2.1348,2.1123,2.1035,2.0977,2.083,2.0762,2.1095,2.0848,2.1136,2.1308,2.1707,2.244,2.3209,2.3952,2.4767,2.5769,2.6164,2.6487,2.6487,2.6487,2.6487,2.6474,2.6298,2.5971,2.5636,2.5347,2.4996,2.4632,2.4757,2.487,2.4908,2.5684,2.5684,2.5684,2.5684,2.5684,2.5684,2.5684,2.5684,2.5684,2.5684,2.5684,2.5684,2.5684,2.5684,2.5684,2.5684,2.5645,2.5469,2.5146,2.4648,2.3887,2.3335,2.313,2.3101,2.3101,2.3101,2.3101,2.2964,2.274,2.2607,2.2175,2.1765,2.1366,2.1094,2.0879,2.0674,2.0615,2.0566,2.0303,2.0117,1.9902,1.9678,1.9453,1.9336,1.9277,1.9277,1.9297,1.9443,1.9228,1.875,1.8769,1.8906,1.8906,1.887,1.9033,1.9277,1.9277,1.9463,1.9814,1.9912,2.0117,2.0498,2.0615,2.0723,2.081,2.085,2.1035,2.1435,2.1494,2.1641,2.1807,2.1936,2.1936,2.1787,2.1416,2.1163,2.1123,2.1367,2.1484,2.1572,2.1719,2.1894,2.1894,2.1904,2.1777,2.1582,2.1504,2.1387,2.124,2.1173,2.1104,2.1045,2.1342,2.1884,2.2374,2.305,2.3802,2.4388,2.5135,2.5952,2.6196,2.66,2.6487,2.6487,2.6487,2.6449,2.6311,2.616,2.5946,2.5624,2.5322,2.5209,2.5297,2.536,2.541,2.5684,2.5684,2.5684,2.5684,2.5684,2.5684,2.5684,2.5684,2.5684,2.5684,2.5684,2.5684,2.5684,2.5684,2.5684,2.5684,2.5684,2.5635,2.5167,2.457,2.3838,2.3335,2.3247,2.312,2.3101,2.3101,2.3101,2.3081,2.2964,2.2701,2.2526,2.2214,2.166,2.1268,2.1094,2.0771,2.0625,2.0615,2.0576,2.0342,2.0107,1.999,1.9853,1.9666,1.9617,1.9597,1.9609,1.9775,1.9785,1.9434,1.9385,1.9346,1.9346,1.9355,1.9424,1.9492,1.9561,1.9697,1.9922,2.0049,2.0195,2.0596,2.0723,2.083,2.1182,2.1268,2.1475,2.1914,2.1943,2.2012,2.2119,2.208,2.2129,2.2148,2.2041,2.2021,2.2012,2.1973,2.1953,2.1973,2.1982,2.2021,2.2021,2.2012,2.2012,2.1992,2.1914,2.1807,2.167,2.1603,2.1623,2.1672,2.218,2.2917,2.3398,2.3903,2.4651,2.5389,2.6166,2.6781,2.6694,2.6839,2.66,2.6487,2.6487,2.6487,2.6449,2.6298,2.6135,2.6034,2.5774,2.5711,2.5711,2.5774,2.5824,2.5684,2.5684,2.5684,2.5684,2.5684,2.5684,2.5684,2.5684,2.5684,2.5684,2.5684,2.5684,2.5684,2.5684,2.5684,2.5684,2.5674,2.5645,2.542,2.4941,2.4414,2.3945,2.3633,2.331,2.3101,2.3101,2.3101,2.3101,2.3042,2.2974,2.2789,2.2471,2.2051,2.1582,2.126,2.0889,2.0615,2.0615,2.0615,2.0566,2.0478,2.0381,2.0332,2.0253,2.0273,2.0302,2.0331,2.0381,2.0419,2.0273,1.9971,1.9775,1.9785,1.9785,1.9912,2.0165,2.0273,2.0341,2.0429,2.043,2.0605,2.0967,2.1094,2.1269,2.1689,2.1748,2.1943,2.2275,2.2393,2.25,2.2682,2.2799,2.275,2.2721,2.2783,2.2803,2.2803,2.2526,2.2402,2.2432,2.2594,2.2808,2.2832,2.274,2.2666,2.2461,2.2314,2.2217,2.2119,2.2021,2.207,2.2168,2.2702,2.3361,2.3879,2.448,2.5399,2.6097,2.6907,2.7419,2.7331,2.7105,2.6914,2.6688,2.6487,2.6499,2.6537,2.6474,2.6323,2.6285,2.6248,2.6185,2.6147,2.621,2.6197,2.5684,2.5684,2.5684,2.5684,2.5684,2.5684,2.5684,2.5684,2.5684,2.5684,2.5684,2.5684,2.5684,2.5684,2.5684,2.5684,2.5625,2.5498,2.5303,2.4932,2.4434,2.4004,2.376,2.3379,2.3101,2.3101,2.3101,2.3101,2.3101,2.3081,2.2964,2.2793,2.2383,2.2109,2.1748,2.1201,2.0928,2.084,2.0664,2.0615,2.0615,2.0615,2.0615,2.0615,2.0615,2.0615,2.0586,2.0595,2.0605,2.0546,2.0342,2.0215,2.0225,2.0225,2.0352,2.0546,2.0615,2.0615,2.0615,2.0771,2.0977,2.119,2.1416,2.1768,2.206,2.2178,2.2383,2.2643,2.2779,2.2877,2.3071,2.3081,2.3101,2.3101,2.3101,2.3101,2.3062,2.2896,2.2769,2.2799,2.2935,2.3023,2.3091,2.3101,2.3052,2.2773,2.2773,2.2695,2.2725,2.2637,2.2598,2.2745,2.3217,2.3742,2.4259,2.5037,2.6099,2.675,2.7409,2.7752,2.7821,2.7544,2.7231,2.7065,2.6864,2.6637,2.6637,2.6575,2.6499,2.6424,2.6399,2.6461,2.6461,2.6373,2.6361,2.5684,2.5684,2.5684,2.5684,2.5684,2.5684,2.5684,2.5684,2.5684,2.5684,2.5684,2.5684,2.5684,2.5684,2.5684,2.5684,2.5596,2.5439,2.5264,2.5146,2.4385,2.4062,2.3828,2.3447,2.3101,2.3101,2.3101,2.3101,2.3101,2.3091,2.3062,2.2994,2.2705,2.2432,2.2275,2.1768,2.1229,2.1103,2.0889,2.0693,2.0625,2.0615,2.0615,2.0615,2.0615,2.0615,2.0615,2.0615,2.0615,2.0615,2.0615,2.0615,2.0615,2.0615,2.0615,2.0615,2.0615,2.0674,2.0781,2.1016,2.121,2.1337,2.1748,2.2168,2.249,2.2617,2.2764,2.2906,2.3042,2.3042,2.3101,2.3101,2.3101,2.3101,2.3101,2.3101,2.3101,2.3101,2.3052,2.3062,2.3052,2.3081,2.3101,2.3101,2.3101,2.3101,2.3101,2.3101,2.3101,2.3071,2.2945,2.2939,2.3272,2.3851,2.4409,2.5909,2.6936,2.7415,2.8012,2.8288,2.8473,2.8436,2.8172,2.7544,2.7304,2.7065,2.6788,2.6625,2.6562,2.6512,2.6487,2.6487,2.6487,2.6487,2.6537,2.5684,2.5684,2.5684,2.5684,2.5684,2.5684,2.5684,2.5684,2.5684,2.5684,2.5684,2.5684,2.5684,2.5684,2.5684,2.5684,2.5645,2.5576,2.5566,2.542,2.4727,2.4326,2.4189,2.3564,2.3169,2.3101,2.3101,2.3101,2.3101,2.3101,2.3101,2.3003,2.2711,2.2559,2.2441,2.2021,2.1621,2.1385,2.1211,2.0996,2.0811,2.0742,2.0742,2.0732,2.0723,2.0674,2.0635,2.0625,2.0615,2.0615,2.0615,2.0635,2.0703,2.0703,2.0683,2.0615,2.0664,2.0801,2.1025,2.1171,2.1609,2.209,2.2363,2.2578,2.2881,2.2955,2.2984,2.3033,2.3101,2.3101,2.3101,2.3101,2.311,2.3101,2.314,2.3169,2.3169,2.3159,2.3208,2.3276,2.3208,2.3101,2.3101,2.3101,2.3101,2.3101,2.3101,2.3101,2.3101,2.3101,2.3052,2.3086,2.3129,2.3869,2.4555,2.6449,2.7842,2.8162,2.8688,2.9136,2.9327,2.9478,2.9202,2.8461,2.7821,2.7419,2.7153,2.6876,2.6801,2.6889,2.6713,2.6549,2.6751,2.6939,2.6776,2.5684,2.5684,2.5684,2.5684,2.5684,2.5684,2.5684,2.5684,2.5684,2.5684,2.5684,2.5684,2.5684,2.5684,2.5684,2.5684,2.5684,2.5684,2.5684,2.5518,2.5078,2.4746,2.4639,2.3867,2.3564,2.3418,2.3227,2.3101,2.3101,2.3101,2.3101,2.3052,2.2867,2.2799,2.2701,2.2422,2.2129,2.1824,2.1629,2.1465,2.125,2.1271,2.1271,2.1201,2.1016,2.0928,2.0869,2.0683,2.0742,2.0869,2.0918,2.1035,2.1202,2.1182,2.1035,2.0762,2.0791,2.0986,2.1288,2.1541,2.2087,2.2389,2.2643,2.2857,2.3023,2.3081,2.3101,2.3101,2.3101,2.3101,2.3101,2.311,2.3208,2.3437,2.3477,2.353,2.3672,2.3574,2.3549,2.3569,2.3374,2.3227,2.3101,2.3101,2.3101,2.3101,2.3101,2.3101,2.3101,2.3101,2.3101,2.3222,2.3387,2.4372,2.5115,2.6562,2.8136,2.8636,2.9145,2.9611,2.9779,2.9754,2.9641,2.9227,2.8624,2.8034,2.7733,2.7544,2.7429,2.7291,2.7341,2.7331,2.7331,2.7318,2.7228,2.5684,2.5684,2.5684,2.5684,2.5684,2.5684,2.5684,2.5684,2.5684,2.5684,2.5684,2.5684,2.5684,2.5684,2.5684,2.5684,2.5684,2.5684,2.5684,2.5596,2.5254,2.5086,2.4891,2.4375,2.3857,2.3662,2.3486,2.3179,2.3101,2.3101,2.3101,2.3081,2.3091,2.3101,2.2974,2.274,2.2656,2.2422,2.2217,2.2002,2.1904,2.1936,2.1936,2.1885,2.1543,2.1367,2.1328,2.1113,2.1103,2.1279,2.1396,2.1473,2.1807,2.1926,2.1553,2.1035,2.1191,2.1317,2.1629,2.2021,2.2418,2.2662,2.2906,2.3042,2.3091,2.3101,2.3101,2.3101,2.3101,2.3179,2.3257,2.3291,2.3506,2.3799,2.3935,2.3994,2.4121,2.4121,2.4062,2.389,2.3588,2.3442,2.3393,2.3101,2.3101,2.3101,2.3101,2.3101,2.3101,2.3101,2.3135,2.3299,2.38,2.4957,2.5817,2.6532,2.7815,2.8557,2.9145,2.9702,2.9779,2.9779,2.9654,2.9566,2.939,2.885,2.8549,2.816,2.7871,2.777,2.8009,2.8021,2.7808,2.777,2.7733,2.5684,2.5684,2.5684,2.5684,2.5684,2.5684,2.5684,2.5684,2.5684,2.5684,2.5684,2.5684,2.5684,2.5684,2.5684,2.5684,2.5684,2.5684,2.5684,2.5625,2.5342,2.5137,2.5029,2.46,2.415,2.3906,2.374,2.3486,2.3188,2.3101,2.3101,2.3101,2.3101,2.3101,2.3081,2.2984,2.2838,2.2578,2.2471,2.2275,2.2012,2.1973,2.1973,2.1943,2.1865,2.1807,2.1797,2.1641,2.168,2.1768,2.1807,2.1836,2.1936,2.1936,2.1906,2.1768,2.1826,2.1963,2.2236,2.2471,2.2662,2.2877,2.3062,2.3091,2.3179,2.3227,2.3237,2.3101,2.3149,2.3344,2.3652,2.3711,2.3945,2.417,2.4355,2.4385,2.4473,2.4531,2.4482,2.4443,2.4153,2.3994,2.3867,2.3422,2.3101,2.3101,2.3101,2.311,2.3101,2.3101,2.3101,2.3222,2.343,2.45,2.5661,2.6502,2.7557,2.8422,2.9209,2.9792,2.9779,2.9779,2.9779,2.9691,2.9603,2.9465,2.9051,2.8637,2.8285,2.8298,2.8536,2.8373,2.8084,2.8134,2.8335,2.5684,2.5684,2.5684,2.5684,2.5684,2.5684,2.5684,2.5684,2.5684,2.5684,2.5684,2.5684,2.5684,2.5684,2.5684,2.5684,2.5684,2.5684,2.5684,2.5684,2.5527,2.543,2.5352,2.5,2.457,2.4189,2.3867,2.3516,2.3237,2.312,2.3101,2.3101,2.3101,2.3101,2.3101,2.3101,2.3003,2.2877,2.2818,2.2773,2.2646,2.2588,2.2588,2.2578,2.2363,2.2256,2.2197,2.1982,2.2041,2.2148,2.2236,2.2373,2.2529,2.2607,2.2607,2.2598,2.2598,2.2578,2.2529,2.2734,2.2886,2.3013,2.312,2.3198,2.3457,2.3701,2.3828,2.3822,2.3822,2.3965,2.4082,2.4141,2.4394,2.4619,2.4785,2.4941,2.4961,2.4834,2.4834,2.4805,2.4766,2.4531,2.4287,2.3935,2.3545,2.3276,2.3257,2.3227,2.3169,2.3101,2.3101,2.3135,2.3299,2.3714,2.4925,2.5964,2.7237,2.8243,2.9285,2.9739,2.9792,2.9779,2.9779,2.9779,2.9716,2.9566,2.9365,2.9252,2.9013,2.9026,2.9076,2.8913,2.88,2.9001,2.9164,2.5684,2.5684,2.5684,2.5684,2.5684,2.5684,2.5684,2.5684,2.5684,2.5684,2.5684,2.5684,2.5684,2.5684,2.5684,2.5684,2.5684,2.5684,2.5684,2.5684,2.5684,2.5654,2.5596,2.5322,2.501,2.458,2.4365,2.3984,2.3652,2.3432,2.3403,2.312,2.3101,2.3101,2.3101,2.3101,2.3062,2.3052,2.3052,2.3033,2.3023,2.3042,2.3042,2.2974,2.2818,2.2623,2.2574,2.2432,2.2441,2.2578,2.2666,2.2793,2.2945,2.2964,2.2974,2.2974,2.2964,2.2886,2.2818,2.2896,2.3062,2.313,2.3276,2.3525,2.3906,2.4268,2.4414,2.4307,2.4316,2.4394,2.4541,2.458,2.4814,2.5049,2.5244,2.5469,2.5596,2.5342,2.5225,2.5264,2.5185,2.5,2.4727,2.4414,2.4033,2.3569,2.3422,2.3393,2.3383,2.3354,2.3531,2.3619,2.3727,2.4117,2.5107,2.6181,2.7205,2.8219,2.9312,2.9888,3.0041,2.9917,2.9779,2.9779,2.9817,2.9716,2.9578,2.9679,2.9767,2.9578,2.9453,2.9603,2.9654,2.9779,2.9754,2.5684,2.5684,2.5684,2.5684,2.5684,2.5684,2.5684,2.5684,2.5684,2.5684,2.5684,2.5684,2.5684,2.5684,2.5684,2.5684,2.5684,2.5684,2.5684,2.5684,2.5684,2.5684,2.5635,2.5547,2.541,2.5029,2.4795,2.458,2.4365,2.4102,2.3705,2.3218,2.3335,2.3188,2.3198,2.3325,2.3305,2.3276,2.3281,2.3169,2.3149,2.313,2.3101,2.3101,2.3062,2.3052,2.3042,2.2916,2.2877,2.2964,2.2955,2.2964,2.3071,2.3101,2.3101,2.3101,2.3101,2.3062,2.3101,2.313,2.313,2.3227,2.3555,2.3984,2.4346,2.4394,2.4453,2.457,2.4678,2.4756,2.4912,2.5059,2.5234,2.5381,2.5518,2.5576,2.5645,2.5625,2.5547,2.5645,2.5538,2.5352,2.5244,2.4932,2.4482,2.4007,2.391,2.3935,2.4023,2.4033,2.4258,2.4372,2.4401,2.4912,2.5947,2.7009,2.8157,2.9011,2.9938,3.0343,3.053,3.0306,2.998,2.9892,2.993,2.9854,2.9779,2.9779,2.9779,2.9779,2.9779,2.9779,2.9779,2.9779,2.9779,2.5684,2.5684,2.5684,2.5684,2.5684,2.5684,2.5684,2.5684,2.5684,2.5684,2.5684,2.5684,2.5684,2.5684,2.5684,2.5684,2.5684,2.5684,2.5684,2.5684,2.5684,2.5684,2.5684,2.5615,2.5508,2.5176,2.5106,2.4834,2.4424,2.4512,2.4316,2.3939,2.389,2.389,2.389,2.3848,2.3822,2.3764,2.3662,2.3535,2.3486,2.3208,2.3101,2.3101,2.3101,2.3101,2.3091,2.3091,2.3091,2.311,2.312,2.312,2.3101,2.3101,2.311,2.313,2.314,2.3257,2.3506,2.3564,2.3652,2.3984,2.4316,2.4639,2.4824,2.5029,2.5138,2.5196,2.5176,2.5254,2.5391,2.5478,2.5518,2.5635,2.5684,2.5684,2.5684,2.5684,2.5684,2.5684,2.5674,2.5567,2.5547,2.5478,2.498,2.4521,2.4473,2.4499,2.4716,2.4931,2.5201,2.5615,2.5762,2.6111,2.7101,2.815,2.9192,2.9864,3.0523,3.0835,3.106,3.0645,3.0369,3.0231,3.0043,2.9955,2.988,2.9804,2.9779,2.9779,2.9779,2.9779,2.9779,2.9779,2.9779,2.5684,2.5684,2.5684,2.5684,2.5684,2.5684,2.5684,2.5684,2.5684,2.5684,2.5684,2.5684,2.5684,2.5684,2.5684,2.5684,2.5684,2.5684,2.5684,2.5684,2.5684,2.5684,2.5684,2.5645,2.5596,2.5303,2.5244,2.5088,2.4865,2.4834,2.4834,2.4834,2.4785,2.4707,2.4365,2.4424,2.4424,2.4326,2.418,2.3984,2.3926,2.373,2.353,2.3539,2.3559,2.3569,2.3578,2.3588,2.3461,2.3437,2.335,2.3227,2.3149,2.311,2.3159,2.3281,2.3379,2.3545,2.3848,2.4014,2.418,2.4531,2.4785,2.5096,2.5312,2.5557,2.5538,2.5596,2.5635,2.5684,2.5684,2.5635,2.5615,2.5684,2.5684,2.5684,2.5684,2.5684,2.5684,2.5684,2.5674,2.5664,2.5645,2.5625,2.5439,2.5031,2.505,2.5369,2.5959,2.6192,2.6408,2.6904,2.742,2.7841,2.8388,2.9371,3.0261,3.046,3.1046,3.1423,3.1512,3.111,3.0859,3.0783,3.0545,3.0168,3.0018,2.9993,2.9892,2.9779,2.9779,2.9779,2.9779,2.9779,2.9779,2.5684,2.5684,2.5684,2.5684,2.5684,2.5684,2.5684,2.5684,2.5684,2.5684,2.5684,2.5684,2.5684,2.5684,2.5684,2.5684,2.5684,2.5684,2.5684,2.5684,2.5684,2.5684,2.5684,2.5664,2.5645,2.5674,2.5577,2.5508,2.5528,2.543,2.5489,2.5508,2.5372,2.5167,2.4512,2.4443,2.4443,2.4443,2.4463,2.4414,2.4385,2.4277,2.4199,2.418,2.416,2.4141,2.4131,2.4131,2.3994,2.3818,2.3779,2.3633,2.3354,2.3296,2.3422,2.374,2.3769,2.3984,2.4355,2.4394,2.4678,2.499,2.5195,2.5303,2.5586,2.5684,2.5684,2.5684,2.5684,2.5684,2.5684,2.5684,2.5684,2.5684,2.5684,2.5684,2.5684,2.5684,2.5684,2.5684,2.5684,2.5684,2.5684,2.5674,2.5664,2.5586,2.5645,2.6118,2.6767,2.6884,2.691,2.8198,2.8801,2.9307,2.9831,3.0596,3.1233,3.1348,3.1594,3.202,3.2039,3.1687,3.1486,3.1361,3.1022,3.0633,3.0382,3.0193,3.003,2.988,2.9804,2.9779,2.9779,2.9779,2.9779,2.5684,2.5684,2.5684,2.5684,2.5684,2.5684,2.5684,2.5684,2.5684,2.5684,2.5684,2.5684,2.5684,2.5684,2.5684,2.5684,2.5684,2.5684,2.5684,2.5684,2.5684,2.5684,2.5684,2.5684,2.5684,2.5684,2.5684,2.5684,2.5645,2.5684,2.5684,2.5684,2.5664,2.5538,2.5323,2.5235,2.5255,2.5196,2.5059,2.4844,2.4814,2.4609,2.4473,2.4482,2.4492,2.4502,2.4512,2.4541,2.4414,2.4238,2.4209,2.4092,2.3881,2.3906,2.4014,2.4189,2.4219,2.4414,2.4814,2.5068,2.5332,2.5459,2.5488,2.5537,2.5674,2.5684,2.5684,2.5684,2.5684,2.5684,2.5684,2.5684,2.5684,2.5684,2.5684,2.5684,2.5684,2.5684,2.5684,2.5684,2.5684,2.5684,2.5684,2.5684,2.5684,2.5684,2.5684,2.638,2.7127,2.6805,2.6754,2.8896,3.0088,3.065,3.1279,3.1777,3.2096,3.2228,3.242,3.2684,3.2554,3.2215,3.2064,3.1926,3.1512,3.111,3.0871,3.0608,3.0193,2.998,2.9955,2.9854,2.9779,2.9779,2.9779,2.5684,2.5684,2.5684,2.5684,2.5684,2.5684,2.5684,2.5684,2.5684,2.5684,2.5684,2.5684,2.5684,2.5684,2.5684,2.5684,2.5684,2.5684,2.5684,2.5684,2.5684,2.5684,2.5684,2.5684,2.5684,2.5684,2.5684,2.5684,2.5684,2.5684,2.5684,2.5684,2.5684,2.5645,2.5615,2.5606,2.5615,2.5528,2.5391,2.5303,2.5234,2.5088,2.4875,2.4884,2.4884,2.4875,2.4902,2.4853,2.4738,2.4697,2.4629,2.456,2.4502,2.4434,2.4492,2.458,2.4844,2.501,2.5322,2.5478,2.5635,2.5635,2.5684,2.5684,2.5684,2.5684,2.5684,2.5684,2.5684,2.5684,2.5684,2.5684,2.5684,2.5684,2.5684,2.5684,2.5684,2.5684,2.5684,2.5684,2.5684,2.5684,2.5684,2.5684,2.5684,2.5684,2.5732,2.6572,2.741,2.722,2.7437,2.9533,3.1134,3.1689,3.2152,3.2612,3.2896,3.3081,3.3124,3.3068,3.2993,3.2654,3.2566,3.2441,3.2026,3.165,3.1361,3.1047,3.0683,3.0382,3.0206,3.0055,2.9842,2.9779,2.9779,2.5684,2.5684,2.5684,2.5684,2.5684,2.5684,2.5684,2.5684,2.5684,2.5684,2.5684,2.5684,2.5684,2.5684,2.5684,2.5684,2.5684,2.5684,2.5684,2.5684,2.5684,2.5684,2.5684,2.5684,2.5684,2.5684,2.5684,2.5684,2.5684,2.5684,2.5684,2.5684,2.5684,2.5684,2.5684,2.5684,2.5684,2.5645,2.5615,2.5596,2.5537,2.5547,2.545,2.544,2.545,2.545,2.546,2.5469,2.5361,2.5225,2.5088,2.4844,2.4639,2.4473,2.4736,2.5049,2.5469,2.5528,2.5596,2.5664,2.5674,2.5684,2.5684,2.5684,2.5684,2.5684,2.5684,2.5684,2.5684,2.5684,2.5684,2.5684,2.5684,2.5684,2.5684,2.5684,2.5684,2.5684,2.5684,2.5684,2.5684,2.5684,2.5684,2.5684,2.5732,2.5868,2.6014,2.6706,2.7494,2.8143,2.8727,3.0631,3.1965,3.2612,3.2982,3.3081,3.3124,3.3124,3.3124,3.3124,3.3086,3.3074,3.2893,3.2704,3.2478,3.2164,3.1775,3.1486,3.1235,3.0947,3.0658,3.0218,2.998,2.9817,2.9779,2.5684,2.5684,2.5684,2.5684,2.5684,2.5684,2.5684,2.5684,2.5684,2.5684,2.5684,2.5684,2.5684,2.5684,2.5684,2.5684,2.5684,2.5684,2.5684,2.5684,2.5684,2.5684,2.5684,2.5684,2.5684,2.5684,2.5684,2.5684,2.5684,2.5684,2.5684,2.5684,2.5684,2.5684,2.5684,2.5684,2.5684,2.5684,2.5684,2.5684,2.5684,2.5684,2.5684,2.5684,2.5684,2.5684,2.5684,2.5684,2.5596,2.5557,2.5527,2.5362,2.5362,2.5313,2.5488,2.546,2.5615,2.5674,2.5684,2.5684,2.5684,2.5684,2.5684,2.5684,2.5684,2.5684,2.5684,2.5684,2.5684,2.5684,2.5684,2.5684,2.5684,2.5684,2.5684,2.5684,2.5684,2.5684,2.5684,2.5684,2.5684,2.5684,2.5684,2.5684,2.5732,2.5965,2.6342,2.6897,2.772,2.8459,2.9498,3.1368,3.2239,3.2698,3.2982,3.3124,3.3124,3.3124,3.3124,3.3124,3.3111,3.3111,3.3124,3.3011,3.2754,3.2453,3.2102,3.1901,3.1813,3.1436,3.111,3.0583,3.0143,3.003,2.998,2.5684,2.5684,2.5684,2.5684,2.5684,2.5684,2.5684,2.5684,2.5684,2.5684,2.5684,2.5684,2.5684,2.5684,2.5684,2.5684,2.5684,2.5684,2.5684,2.5684,2.5684,2.5684,2.5684,2.5684,2.5684,2.5684,2.5684,2.5684,2.5684,2.5684,2.5684,2.5684,2.5684,2.5684,2.5684,2.5684,2.5684,2.5684,2.5684,2.5684,2.5684,2.5684,2.5684,2.5684,2.5684,2.5684,2.5684,2.5684,2.5684,2.5684,2.5684,2.5684,2.5674,2.5664,2.5664,2.5654,2.5664,2.5684,2.5684,2.5684,2.5684,2.5684,2.5684,2.5684,2.5684,2.5684,2.5684,2.5684,2.5684,2.5684,2.5684,2.5684,2.5684,2.5684,2.5684,2.5684,2.5684,2.5684,2.5684,2.5684,2.5684,2.5684,2.5684,2.5684,2.5732,2.583,2.6149,2.6716,2.7861,2.9143,3.0045,3.14,3.2052,3.2556,3.284,3.3124,3.3124,3.3124,3.3124,3.3124,3.3124,3.3124,3.3124,3.3124,3.3099,3.2754,3.2478,3.2516,3.2416,3.2026,3.1662,3.1298,3.0834,3.0432,3.0394,2.5684,2.5684,2.5684,2.5684,2.5684,2.5684,2.5684,2.5684,2.5684,2.5684,2.5684,2.5684,2.5684,2.5684,2.5684,2.5684,2.5684,2.5684,2.5684,2.5684,2.5684,2.5684,2.5684,2.5684,2.5684,2.5684,2.5684,2.5684,2.5684,2.5684,2.5684,2.5684,2.5684,2.5684,2.5684,2.5684,2.5684,2.5684,2.5684,2.5684,2.5684,2.5684,2.5684,2.5684,2.5684,2.5684,2.5684,2.5684,2.5684,2.5684,2.5684,2.5684,2.5684,2.5684,2.5684,2.5684,2.5684,2.5684,2.5684,2.5684,2.5684,2.5684,2.5684,2.5684,2.5684,2.5684,2.5684,2.5684,2.5684,2.5684,2.5684,2.5684,2.5684,2.5684,2.5684,2.5684,2.5684,2.5684,2.5684,2.5684,2.5684,2.5684,2.5684,2.5684,2.5684,2.5732,2.6245,2.6802,2.7992,2.9544,3.0451,3.1356,3.1721,3.2239,3.2896,3.3124,3.3124,3.3124,3.3124,3.3124,3.3124,3.3124,3.3124,3.3124,3.3124,3.3124,3.2986,3.2893,3.2767,3.2516,3.2215,3.2026,3.1625,3.1135,3.0871,2.5684,2.5684,2.5684,2.5684,2.5684,2.5684,2.5684,2.5684,2.5684,2.5684,2.5684,2.5684,2.5684,2.5684,2.5684,2.5684,2.5684,2.5684,2.5684,2.5684,2.5684,2.5684,2.5684,2.5684,2.5684,2.5684,2.5684,2.5684,2.5684,2.5684,2.5684,2.5684,2.5684,2.5684,2.5684,2.5684,2.5684,2.5684,2.5684,2.5684,2.5684,2.5684,2.5684,2.5684,2.5684,2.5684,2.5684,2.5684,2.5684,2.5684,2.5684,2.5684,2.5684,2.5684,2.5684,2.5684,2.5684,2.5684,2.5684,2.5684,2.5684,2.5684,2.5684,2.5684,2.5684,2.5684,2.5684,2.5684,2.5684,2.5684,2.5684,2.5684,2.5684,2.5684,2.5684,2.5684,2.5684,2.5684,2.5684,2.5684,2.5684,2.5684,2.5684,2.5684,2.5684,2.6149,2.6897,2.7636,2.8634,2.9909,3.0496,3.1223,3.1311,3.1821,3.2655,3.3124,3.3124,3.3124,3.3124,3.3124,3.3124,3.3124,3.3124,3.3124,3.3124,3.3124,3.3124,3.3099,3.2918,3.2767,3.2717,3.2516,3.2441,3.2064,3.17,2.5684,2.5684,2.5684,2.5684,2.5684,2.5684,2.5684,2.5684,2.5684,2.5684,2.5684,2.5684,2.5684,2.5684,2.5684,2.5684,2.5684,2.5684,2.5684,2.5684,2.5684,2.5684,2.5684,2.5684,2.5684,2.5684,2.5684,2.5684,2.5684,2.5684,2.5684,2.5684,2.5684,2.5684,2.5684,2.5684,2.5684,2.5684,2.5684,2.5684,2.5684,2.5684,2.5684,2.5684,2.5684,2.5684,2.5684,2.5684,2.5684,2.5684,2.5684,2.5684,2.5684,2.5684,2.5684,2.5684,2.5684,2.5684,2.5684,2.5684,2.5684,2.5684,2.5684,2.5684,2.5684,2.5684,2.5684,2.5684,2.5684,2.5684,2.5684,2.5684,2.5684,2.5684,2.5684,2.5684,2.5684,2.5684,2.5684,2.5684,2.5684,2.5684,2.5684,2.5684,2.5732,2.5965,2.6802,2.7589,2.8727,3.0135,3.0721,3.1279,3.1545,3.1965,3.2797,3.3124,3.3124,3.3124,3.3124,3.3124,3.3124,3.3124,3.3124,3.3124,3.3124,3.3124,3.3124,3.3124,3.3124,3.3011,3.3023,3.3036,3.2973,3.2817,3.2478,2.5684,2.5684,2.5684,2.5684,2.5684,2.5684,2.5684,2.5684,2.5684,2.5684,2.5684,2.5684,2.5684,2.5684,2.5684,2.5684,2.5684,2.5684,2.5684,2.5684,2.5684,2.5684,2.5684,2.5684,2.5684,2.5684,2.5684,2.5684,2.5684,2.5684,2.5684,2.5684,2.5684,2.5684,2.5684,2.5684,2.5684,2.5684,2.5684,2.5684,2.5684,2.5684,2.5684,2.5684,2.5684,2.5684,2.5684,2.5684,2.5684,2.5684,2.5684,2.5684,2.5684,2.5684,2.5684,2.5684,2.5684,2.5684,2.5684,2.5684,2.5684,2.5684,2.5684,2.5684,2.5684,2.5684,2.5684,2.5684,2.5684,2.5684,2.5684,2.5684,2.5684,2.5684,2.5684,2.5684,2.5684,2.5684,2.5684,2.5684,2.5684,2.5684,2.5684,2.5684,2.583,2.6014,2.6572,2.7315,2.8272,2.9818,3.0956,3.1689,3.2283,3.2754,3.3081,3.3124,3.3124,3.3124,3.3124,3.3124,3.3124,3.3124,3.3124,3.3124,3.3124,3.3124,3.3124,3.3124,3.3124,3.3124,3.3124,3.3124,3.3099,3.3011,3.3061,2.5684,2.5684,2.5684,2.5684,2.5684,2.5684,2.5684,2.5684,2.5684,2.5684,2.5684,2.5684,2.5684,2.5684,2.5684,2.5684,2.5684,2.5684,2.5684,2.5684,2.5684,2.5684,2.5684,2.5684,2.5684,2.5684,2.5684,2.5684,2.5684,2.5684,2.5684,2.5684,2.5684,2.5684,2.5684,2.5684,2.5684,2.5684,2.5684,2.5684,2.5684,2.5684,2.5684,2.5684,2.5684,2.5684,2.5684,2.5684,2.5684,2.5684,2.5684,2.5684,2.5684,2.5684,2.5684,2.5684,2.5684,2.5684,2.5684,2.5684,2.5684,2.5684,2.5684,2.5684,2.5684,2.5684,2.5684,2.5684,2.5684,2.5684,2.5684,2.5684,2.5684,2.5684,2.5684,2.5684,2.5684,2.5684,2.5684,2.5684,2.5684,2.5684,2.5684,2.5684,2.5684,2.6149,2.703,2.7767,2.8819,3.0,3.1267,3.2008,3.284,3.2982,3.3124,3.3124,3.3124,3.3124,3.3124,3.3124,3.3124,3.3124,3.3124,3.3124,3.3124,3.3124,3.3124,3.3124,3.3124,3.3124,3.3124,3.3124,3.3124,3.3124,3.3124]}]]